[[{"header":{"parameterUnit":"m.s-1","parameterCategory":1,"la1":30.6,"la2":29.2853,"lo1":-89.7004,"lo2":-87.6739,"dy":0.0162,"dx":0.0183,"nx":112,"ny":82,"refTime":"2023-05-12T12:00:00:Z","depth":0,"parameterNumber":2,"parameterNumberName":"U-component_of_WINDS"},"data":[0.0,0.0,0.0,0.0,0.0,0.0,0.0,0.0,0.0,0.0,0.0,0.0,0.0,0.0,0.0,0.0,0.0,0.0,0.0,0.0,0.0,0.0,0.0,0.0,0.0,0.0,0.0,0.0,0.0,0.0,0.0,0.0,0.0,0.0,0.0,0.0,0.0,0.0,0.0,0.0,0.0,0.0,0.0,0.0,0.0,0.0,0.0,0.0,0.0,0.0,0.0,0.0,0.0,0.0,0.0,0.0,0.0,0.0,0.0,0.0,0.0,0.0,0.0,0.0,0.0,0.0,0.0,0.0,0.0,0.0,0.0,0.0,0.0,0.0,0.0,0.0,0.0,0.0,0.0,0.0,0.0,0.0,0.0,0.0,0.0,0.0,0.0,0.0,0.0,0.0,-0.8551,-0.8327,-0.803,-0.7488,-0.67,-0.5774,-0.5312,-0.5696,0.0,0.0,0.0,0.0,0.0,0.0,0.0,0.0,0.0,0.0,0.0,0.0,0.0,0.0,0.0,0.0,0.0,0.0,0.0,0.0,0.0,0.0,0.0,0.0,0.0,0.0,0.0,0.0,0.0,0.0,0.0,0.0,0.0,0.0,0.0,0.0,0.0,0.0,0.0,0.0,0.0,0.0,0.0,0.0,0.0,0.0,0.0,0.0,0.0,0.0,0.0,0.0,0.0,0.0,0.0,0.0,0.0,0.0,0.0,0.0,0.0,0.0,0.0,0.0,0.0,0.0,0.0,0.0,0.0,0.0,0.0,0.0,0.0,0.0,0.0,0.0,0.0,0.0,0.0,0.0,0.0,0.0,0.0,0.0,0.0,0.0,0.0,0.0,0.0,0.0,0.0,0.0,0.0,0.0,0.0,0.0,0.0,0.0,0.0,0.0,0.0,0.0,0.0,0.0,-0.8327,-0.7953,-0.7804,-0.7646,-0.7403,-0.6553,-0.6398,-0.7334,0.0,0.0,0.0,0.0,0.0,0.0,0.0,0.0,0.0,0.0,0.0,0.0,0.0,0.0,0.0,0.0,0.0,0.0,0.0,0.0,0.0,0.0,0.0,0.0,0.0,0.0,0.0,0.0,0.0,0.0,0.0,0.0,0.0,0.0,0.0,0.0,0.0,0.0,0.0,0.0,0.0,0.0,0.0,0.0,0.0,0.0,0.0,0.0,0.0,0.0,0.0,0.0,0.0,0.0,0.0,0.0,0.0,0.0,0.0,0.0,0.0,0.0,0.0,0.0,0.0,0.0,0.0,0.0,0.0,0.0,0.0,0.0,0.0,0.0,0.0,0.0,0.0,0.0,0.0,0.0,0.0,0.0,0.0,0.0,0.0,0.0,0.0,0.0,0.0,0.0,0.0,0.0,0.0,0.0,0.0,0.0,0.0,0.0,0.0,0.0,0.0,0.0,0.0,-0.825,-0.7795,-0.7169,-0.7019,-0.6865,-0.6784,-0.6009,-0.6009,-0.7015,-0.5234,0.0,0.0,0.0,0.0,0.0,0.0,0.0,0.0,0.0,0.0,0.0,0.0,0.0,0.0,0.0,0.0,0.0,0.0,0.0,0.0,0.0,0.0,0.0,0.0,0.0,0.0,0.0,0.0,0.0,0.0,0.0,0.0,0.0,0.0,0.0,0.0,0.0,0.0,0.0,0.0,0.0,0.0,0.0,0.0,0.0,0.0,0.0,0.0,0.0,0.0,0.0,0.0,0.0,0.0,0.0,0.0,0.0,0.0,0.0,0.0,0.0,0.0,0.0,0.0,0.0,0.0,0.0,0.0,0.0,0.0,0.0,0.0,0.0,0.0,0.0,0.0,0.0,0.0,0.0,0.0,0.0,0.0,0.0,0.0,0.0,0.0,0.0,0.0,0.0,0.0,0.0,0.0,0.0,0.0,0.0,0.0,0.0,0.0,0.0,0.0,0.0,0.0,-0.8025,-0.7484,-0.6546,-0.6314,-0.6086,-0.5931,-0.5389,-0.5312,-0.6157,-0.5464,0.0,0.0,0.0,0.0,0.0,0.0,0.0,0.0,0.0,0.0,0.0,0.0,0.0,0.0,0.0,0.0,0.0,0.0,0.0,0.0,0.0,0.0,0.0,0.0,0.0,0.0,0.0,0.0,0.0,0.0,0.0,0.0,0.0,0.0,0.0,0.0,0.0,0.0,0.0,0.0,0.0,0.0,0.0,0.0,0.0,0.0,0.0,0.0,0.0,0.0,0.0,0.0,0.0,0.0,0.0,0.0,0.0,0.0,0.0,0.0,0.0,0.0,0.0,0.0,0.0,0.0,0.0,0.0,0.0,0.0,0.0,0.0,0.0,0.0,0.0,0.0,0.0,0.0,0.0,0.0,0.0,0.0,0.0,0.0,0.0,0.0,0.0,0.0,0.0,0.0,0.0,0.0,0.0,0.0,0.0,0.0,0.0,0.0,0.0,0.0,0.0,0.0,-0.8102,-0.7638,-0.6318,-0.624,-0.5931,-0.516,-0.5002,-0.5079,-0.5384,-0.5157,0.0,0.0,0.0,0.0,0.0,0.0,0.0,0.0,0.0,0.0,0.0,0.0,0.0,0.0,0.0,0.0,0.0,0.0,0.0,0.0,0.0,0.0,0.0,0.0,0.0,0.0,0.0,0.0,0.0,0.0,0.0,0.0,0.0,0.0,0.0,0.0,0.0,0.0,0.0,0.0,0.0,0.0,0.0,0.0,0.0,0.0,0.0,0.0,0.0,0.0,0.0,0.0,0.0,0.0,0.0,0.0,0.0,0.0,0.0,0.0,0.0,0.0,0.0,0.0,0.0,0.0,0.0,0.0,0.0,0.0,0.0,0.0,0.0,0.0,0.0,0.0,0.0,0.0,0.0,0.0,0.0,0.0,0.0,0.0,0.0,0.0,0.0,0.0,0.0,0.0,0.0,0.0,0.0,0.0,0.0,0.0,0.0,0.0,0.0,0.0,0.0,0.0,-0.8138,-0.7652,0.0,-0.6031,-0.5546,-0.5303,-0.4656,-0.4329,-0.441,0.0,0.0,0.0,0.0,0.0,0.0,0.0,0.0,0.0,0.0,0.0,0.0,0.0,0.0,0.0,0.0,0.0,0.0,0.0,0.0,0.0,0.0,0.0,0.0,0.0,0.0,0.0,0.0,0.0,0.0,0.0,0.0,0.0,0.0,0.0,0.0,0.0,0.0,0.0,0.0,0.0,0.0,0.0,0.0,0.0,0.0,0.0,0.0,0.0,0.0,0.0,0.0,0.0,0.0,0.0,0.0,0.0,0.0,0.0,0.0,0.0,0.0,0.0,0.0,0.0,0.0,0.0,0.0,0.0,0.0,0.0,0.0,0.0,0.0,0.0,0.0,0.0,0.0,0.0,0.0,0.0,0.0,0.0,0.0,0.0,0.0,0.0,0.0,0.0,0.0,0.0,0.0,0.0,0.0,0.0,0.0,0.0,0.0,0.0,0.0,0.0,0.0,-0.8336,-0.8185,-0.7765,0.0,-0.5936,-0.5272,-0.5025,-0.411,-0.3608,-0.394,0.0,0.0,0.0,0.0,0.0,0.0,0.0,0.0,0.0,0.0,0.0,0.0,0.0,0.0,0.0,0.0,0.0,0.0,0.0,0.0,0.0,0.0,0.0,0.0,0.0,0.0,0.0,0.0,0.0,0.0,0.0,0.0,0.0,0.0,0.0,0.0,0.0,0.0,0.0,0.0,0.0,0.0,0.0,0.0,0.0,0.0,0.0,0.0,0.0,0.0,0.0,0.0,0.0,0.0,0.0,0.0,0.0,0.0,0.0,0.0,0.0,0.0,0.0,0.0,0.0,0.0,0.0,0.0,0.0,0.0,0.0,0.0,0.0,0.0,0.0,0.0,0.0,0.0,0.0,0.0,0.0,0.0,0.0,0.0,0.0,0.0,0.0,0.0,0.0,0.0,0.0,0.0,0.0,0.0,0.0,0.0,0.0,0.0,0.0,0.0,0.0,0.0,-0.8357,-0.8279,-0.7942,-0.6857,-0.5942,-0.5027,-0.4197,-0.328,-0.3112,0.0,0.0,0.0,0.0,0.0,0.0,0.0,0.0,0.0,0.0,0.0,0.0,0.0,0.0,0.0,0.0,0.0,0.0,0.0,0.0,0.0,0.0,0.0,0.0,0.0,0.0,0.0,0.0,0.0,0.0,0.0,0.0,0.0,0.0,0.0,0.0,0.0,0.0,0.0,0.0,0.0,0.0,0.0,0.0,0.0,0.0,0.0,0.0,0.0,0.0,0.0,0.0,0.0,0.0,0.0,0.0,0.0,0.0,0.0,0.0,0.0,0.0,0.0,0.0,0.0,0.0,0.0,0.0,0.0,0.0,0.0,0.0,0.0,0.0,0.0,0.0,0.0,0.0,0.0,0.0,0.0,0.0,0.0,0.0,0.0,0.0,0.0,0.0,0.0,0.0,0.0,0.0,0.0,0.0,0.0,0.0,0.0,0.0,0.0,0.0,0.0,0.0,0.0,-0.7602,-0.7444,-0.7094,-0.6135,-0.5787,-0.5526,-0.5264,-0.5003,-0.4915,-0.5177,0.0,0.0,0.0,0.0,0.0,0.0,0.0,0.0,0.0,0.0,0.0,0.0,0.0,0.0,0.0,0.0,0.0,0.0,0.0,0.0,0.0,0.0,0.0,0.0,0.0,0.0,0.0,0.0,0.0,0.0,0.0,0.0,0.0,0.0,0.0,0.0,0.0,0.0,0.0,0.0,0.0,0.0,0.0,0.0,0.0,0.0,0.0,0.0,0.0,0.0,0.0,0.0,0.0,0.0,0.0,0.0,0.0,0.0,0.0,0.0,0.0,0.0,0.0,0.0,0.0,0.0,0.0,0.0,0.0,0.0,0.0,0.0,0.0,0.0,0.0,0.0,0.0,0.0,0.0,0.0,0.0,0.0,0.0,0.0,0.0,0.0,0.0,0.0,0.0,0.0,0.0,0.0,0.0,0.0,0.0,0.0,0.0,0.0,0.0,0.0,0.0,0.0,-0.7129,-0.6786,-0.634,-0.5719,-0.5364,-0.5097,-0.5097,-0.4832,-0.4832,-0.5364,0.0,0.0,0.0,0.0,0.0,0.0,0.0,0.0,0.0,0.0,0.0,0.0,0.0,0.0,0.0,0.0,0.0,0.0,0.0,0.0,0.0,0.0,0.0,0.0,0.0,0.0,0.0,0.0,0.0,0.0,0.0,0.0,0.0,0.0,0.0,0.0,0.0,0.0,0.0,0.0,0.0,0.0,0.0,0.0,0.0,0.0,0.0,0.0,0.0,0.0,0.0,0.0,0.0,0.0,0.0,0.0,0.0,0.0,0.0,0.0,0.0,0.0,0.0,0.0,0.0,0.0,0.0,0.0,0.0,0.0,0.0,0.0,0.0,0.0,0.0,0.0,0.0,0.0,0.0,0.0,0.0,0.0,0.0,0.0,0.0,0.0,0.0,0.0,0.0,0.0,0.0,0.0,0.0,0.0,0.0,0.0,0.0,0.0,0.0,0.0,0.0,0.0,-0.6874,-0.6163,-0.5542,-0.5453,-0.4743,-0.43,-0.43,-0.3676,-0.3765,-0.5188,0.0,0.0,0.0,0.0,0.0,0.0,0.0,0.0,0.0,0.0,0.0,0.0,0.0,0.0,0.0,0.0,0.0,0.0,0.0,0.0,0.0,0.0,0.0,0.0,0.0,0.0,0.0,0.0,0.0,0.0,0.0,0.0,0.0,0.0,0.0,0.0,0.0,0.0,0.0,0.0,0.0,0.0,0.0,0.0,0.0,0.0,0.0,0.0,0.0,0.0,0.0,0.0,0.0,0.0,0.0,0.0,0.0,0.0,0.0,0.0,-0.8142,0.0,0.0,0.0,0.0,0.0,0.0,0.0,0.0,0.0,0.0,0.0,0.0,0.0,0.0,0.0,0.0,0.0,0.0,0.0,0.0,0.0,0.0,0.0,0.0,0.0,0.0,0.0,0.0,0.0,0.0,0.0,0.0,0.0,0.0,0.0,0.0,0.0,0.0,0.0,0.0,0.0,-0.6074,-0.5186,-0.43,-0.3587,-0.3944,-0.43,-0.43,-0.5097,-0.6074,-0.6868,-0.7044,0.0,0.0,0.0,0.0,0.0,0.0,0.0,0.0,0.0,0.0,0.0,0.0,0.0,0.0,0.0,0.0,0.0,0.0,0.0,0.0,0.0,0.0,0.0,0.0,0.0,0.0,0.0,0.0,0.0,0.0,0.0,0.0,0.0,0.0,0.0,0.0,0.0,0.0,0.0,0.0,0.0,0.0,0.0,0.0,0.0,0.0,0.0,0.0,0.0,0.0,0.0,0.0,0.0,0.0,0.0,0.0,0.0,0.0,0.0,0.0,-0.828,0.0,0.0,0.0,0.0,0.0,0.0,0.0,0.0,0.0,0.0,0.0,0.0,0.0,0.0,0.0,0.0,0.0,0.0,0.0,0.0,0.0,0.0,0.0,0.0,0.0,0.0,0.0,0.0,0.0,0.0,0.0,0.0,0.0,0.0,0.0,0.0,0.0,0.0,0.0,0.0,-0.634,-0.5542,-0.4743,-0.43,-0.4654,-0.5008,-0.5008,-0.5719,-0.6514,-0.7132,-0.7221,0.0,0.0,0.0,0.0,0.0,0.0,0.0,0.0,0.0,0.0,0.0,0.0,0.0,0.0,0.0,0.0,0.0,0.0,0.0,0.0,0.0,0.0,0.0,0.0,0.0,0.0,0.0,0.0,0.0,0.0,0.0,0.0,0.0,0.0,0.0,0.0,0.0,0.0,0.0,0.0,0.0,0.0,0.0,0.0,0.0,0.0,0.0,0.0,0.0,0.0,0.0,0.0,0.0,-0.8388,-0.83,-0.83,-0.8208,-0.812,-0.812,-0.812,-0.83,-0.8568,-0.8388,0.0,0.0,0.0,0.0,0.0,0.0,0.0,0.0,0.0,0.0,0.0,0.0,0.0,0.0,0.0,0.0,0.0,0.0,0.0,0.0,0.0,0.0,0.0,0.0,-0.874,-0.8782,-0.8455,0.0,0.0,0.0,0.0,0.0,0.0,0.0,0.0,0.0,0.0,0.0,-0.6962,-0.6251,-0.5719,-0.5719,-0.5719,-0.5719,-0.5719,-0.5983,-0.6422,-0.6953,-0.7214,-0.7654,0.0,0.0,0.0,0.0,0.0,0.0,0.0,0.0,0.0,0.0,0.0,0.0,0.0,0.0,0.0,0.0,0.0,0.0,0.0,0.0,0.0,0.0,0.0,0.0,0.0,0.0,0.0,0.0,0.0,0.0,0.0,0.0,-0.7943,-0.7943,0.0,0.0,0.0,0.0,0.0,0.0,0.0,0.0,0.0,0.0,0.0,0.0,0.0,-0.8532,-0.8532,-0.8556,-0.8568,-0.8568,-0.7676,-0.7316,-0.7231,-0.6428,-0.6074,-0.6074,-0.6074,0.0,-0.8568,-0.7676,0.0,0.0,0.0,0.0,0.0,0.0,0.0,0.0,0.0,0.0,0.0,0.0,0.0,0.0,0.0,0.0,0.0,0.0,0.0,0.0,0.0,0.0,-0.9174,-0.8911,-0.8911,-0.8819,0.0,-0.8532,-0.8536,-0.8564,-0.8568,0.0,0.0,0.0,0.0,0.0,0.0,0.0,-0.7051,-0.6251,-0.5719,-0.5719,-0.5719,-0.5719,-0.5719,-0.6337,-0.6953,-0.7654,-0.8273,-0.8978,-0.9685,-0.9777,0.0,0.0,0.0,0.0,0.0,0.0,0.0,0.0,0.0,0.0,0.0,0.0,0.0,0.0,0.0,0.0,0.0,0.0,0.0,0.0,0.0,0.0,0.0,0.0,0.0,0.0,0.0,0.0,0.0,-0.7967,-0.8012,-0.8012,-0.8012,-0.8052,0.0,0.0,0.0,0.0,0.0,0.0,0.0,0.0,0.0,-0.8568,-0.8116,-0.7803,-0.7803,-0.7894,-0.7942,-0.7942,-0.7573,-0.7295,-0.7295,-0.6282,-0.5823,-0.5823,-0.6468,-0.7204,-0.7924,-0.6761,-0.6609,-0.6962,0.0,0.0,0.0,0.0,-0.8568,-0.8652,-0.874,-0.874,-0.8828,-0.8915,0.0,0.0,0.0,0.0,0.0,0.0,0.0,0.0,0.0,0.0,-0.9262,-0.9174,-0.9087,-0.9087,-0.8999,-0.9003,-0.8915,0.0,-0.8568,-0.8568,-0.8568,0.0,0.0,0.0,0.0,-0.8201,-0.8288,-0.8021,-0.7753,-0.7753,-0.758,-0.7577,-0.7665,-0.8017,-0.8368,-0.8807,-0.9244,-0.9685,-0.9951,-1.0038,-1.0038,0.0,0.0,0.0,0.0,0.0,0.0,0.0,0.0,0.0,0.0,0.0,0.0,0.0,0.0,0.0,0.0,0.0,0.0,0.0,0.0,0.0,0.0,0.0,0.0,0.0,0.0,0.0,0.0,-0.8126,-0.8154,-0.8154,-0.8154,-0.8211,0.0,0.0,0.0,0.0,0.0,0.0,-0.8271,-0.8313,-0.8337,-0.8337,-0.7629,-0.7424,-0.7742,-0.7955,-0.8037,-0.8076,-0.7791,-0.7695,-0.7597,-0.664,-0.6159,-0.6159,-0.6926,-0.7311,-0.7292,-0.6551,-0.6352,-0.6622,-0.7075,-0.7434,-0.7706,-0.843,-0.8702,-0.8792,-0.8877,-0.8966,-0.9055,-0.9318,-0.9407,-0.9495,-0.9495,0.0,0.0,0.0,0.0,-0.9584,-0.9584,-0.9673,-0.9584,-0.9584,-0.9495,-0.9495,-0.9495,-0.9495,-0.9292,0.0,-0.874,-0.874,-0.874,0.0,0.0,0.0,0.0,-0.9087,-0.9262,-0.9262,-0.9262,-0.9262,-0.9087,-0.9087,-0.9257,-0.9345,-0.9432,-0.9602,-0.9864,-1.0038,-1.0038,-1.0038,-1.0038,-1.0038,0.0,0.0,0.0,0.0,0.0,0.0,0.0,0.0,0.0,0.0,0.0,0.0,0.0,0.0,0.0,0.0,0.0,0.0,0.0,0.0,0.0,0.0,0.0,0.0,0.0,0.0,0.0,0.0,0.0,-0.854,-0.854,0.0,0.0,0.0,0.0,-0.8568,-0.8718,-0.8348,-0.7339,-0.7478,-0.7556,-0.7556,-0.747,-0.811,-0.9324,-0.9336,-0.9332,-0.9501,-0.8601,-0.8202,-0.8103,-0.7208,-0.6711,-0.6711,-0.681,-0.681,-0.6889,-0.74,-0.8128,-0.8881,-0.8034,-0.8221,-0.8975,-0.9072,-0.9072,-0.9072,-0.9072,-0.9258,-0.944,-0.944,-0.9625,-0.9899,-1.0084,-0.9992,0.0,0.0,-1.0172,-1.0172,-1.0449,-1.0542,-1.0449,-1.0265,-1.0172,-1.0084,-0.9899,-0.9899,-0.9793,0.0,-0.9262,-0.9262,-0.9262,0.0,-0.9262,-0.9262,-0.9262,-0.9257,-0.9262,-0.9262,-0.9262,-0.9262,-0.9257,-0.9257,-0.9262,-0.9519,-0.9602,-0.9602,-0.9864,-1.0038,-1.0038,-1.0038,-1.0038,-1.0038,-1.0038,0.0,0.0,0.0,0.0,0.0,0.0,0.0,0.0,0.0,0.0,0.0,0.0,0.0,0.0,0.0,0.0,0.0,0.0,0.0,0.0,0.0,0.0,0.0,0.0,0.0,0.0,0.0,0.0,-0.8568,-0.8568,0.0,-0.8718,-0.8091,-0.7771,-0.7879,-0.7283,-0.7031,-0.7406,-0.755,-0.8016,-0.8684,-0.8304,-0.8237,-0.8696,-0.8794,-0.8874,-0.8933,-0.8621,-0.8004,-0.7282,-0.6246,-0.5315,-0.4696,-0.5313,-0.6036,-0.6861,-0.7795,-0.7888,-0.7432,-0.7723,-0.7953,-0.8247,-0.8909,-0.9096,-0.9096,-0.9465,-0.9651,-0.9744,-1.0111,-1.0297,-1.0389,-1.0482,-1.0389,-1.0389,-1.0482,-1.0482,-1.0482,-1.0575,-1.0575,-1.0575,-1.0482,-1.0482,-1.0482,-1.0389,-1.0389,-1.0348,-1.0199,-0.9904,-0.9722,-0.9722,-0.9722,-0.9722,-0.9899,-0.9899,-0.9899,-1.0081,-1.0171,-1.0171,-1.0171,-0.988,-0.9714,-0.9892,-0.9768,-0.9689,-0.9864,-0.9951,-1.0038,-1.0038,-1.0038,-1.0038,-1.0038,-1.0038,-1.0038,0.0,0.0,0.0,0.0,0.0,0.0,0.0,0.0,0.0,0.0,0.0,0.0,0.0,0.0,0.0,0.0,0.0,0.0,0.0,0.0,0.0,0.0,0.0,0.0,0.0,0.0,-0.8589,-0.8645,-0.8653,-0.8723,-0.8897,-0.7941,-0.7546,-0.8121,-0.7167,-0.693,-0.7711,-0.795,-0.8428,-0.9122,-0.8631,-0.8453,-0.8401,-0.8601,-0.8676,-0.8728,-0.8295,-0.8084,-0.8087,-0.6583,-0.5833,-0.5836,-0.6156,-0.7011,-0.8194,-0.8842,-0.8626,-0.7895,-0.8443,-0.8659,-0.8571,-0.9259,-0.9458,-0.9555,-1.0031,-1.0224,-1.0412,-1.0894,-1.0995,-1.0995,-1.0995,-1.0995,-1.0995,-1.0995,-1.0995,-1.0995,-1.0995,-1.0995,-1.0995,-1.0995,-1.0995,-1.0995,-1.0995,-1.0995,-1.0995,-1.0995,-1.0485,-1.0116,-1.0116,-1.0116,-1.0116,-1.0204,-1.0297,-1.0389,-1.0482,-1.057,-1.0575,-1.0575,-1.036,-1.0194,-1.0376,-1.0154,-0.9953,-1.0064,-1.006,-1.0027,-1.0043,-1.0038,-1.0038,-1.0038,-1.0038,-1.0038,-1.0038,0.0,0.0,0.0,0.0,0.0,0.0,0.0,0.0,0.0,0.0,0.0,0.0,0.0,0.0,0.0,0.0,0.0,0.0,0.0,0.0,0.0,0.0,0.0,-0.8748,-0.8576,-0.8637,-0.8808,-0.8832,-0.8909,-0.9096,-0.8214,-0.8111,-0.928,-0.8596,-0.8153,-0.8262,-0.8501,-0.858,-0.8685,-0.8584,-0.8659,-0.8699,-0.8699,-0.8774,-0.892,-0.7808,-0.8468,-1.0582,-0.8247,-0.8358,-1.0472,-0.9364,-0.9585,-1.0692,-1.0692,-1.0595,-1.0424,-1.0241,-1.0164,-1.016,-1.016,-1.0164,-1.0264,-1.0785,-1.1196,-1.1403,-1.1714,-1.1817,-1.1817,-1.1817,-1.1817,-1.1817,-1.1817,-1.1817,-1.1817,-1.1817,-1.1817,-1.1817,-1.1817,-1.1817,-1.1817,-1.1817,-1.1817,-1.1817,-1.1817,-1.1165,-1.0612,-1.0612,-1.0612,-1.052,-1.0334,-1.0515,0.0,-1.0231,-1.0505,-1.0594,-1.0594,-1.0589,-1.0584,-1.0584,-1.0579,-1.049,-1.0296,-1.0282,-1.0187,-1.0067,-1.0052,-1.0047,-1.0038,-1.0038,-1.0038,-1.0038,0.0,0.0,0.0,0.0,0.0,0.0,0.0,0.0,0.0,0.0,0.0,0.0,0.0,0.0,0.0,0.0,0.0,0.0,0.0,0.0,0.0,0.0,-0.9016,-0.8751,-0.8751,-0.882,-0.8999,-0.9133,-0.9279,-0.9466,-0.8641,-0.8275,-0.879,-0.7846,-0.7682,-0.8512,-0.8656,-0.9065,-0.9926,-0.9176,-0.8818,-0.8859,-0.8859,-0.8879,-0.8923,-0.9471,-0.9581,-0.9364,-0.8696,-0.8251,-0.8026,-0.7695,-0.8251,-0.9364,-0.9364,-0.9892,-1.0603,-1.0428,-1.0278,-1.016,-1.016,-1.0369,-1.0577,-1.0884,-1.1196,-1.1403,-1.1714,-1.1817,-1.1817,-1.1817,-1.1817,-1.1817,-1.1817,-1.1817,-1.1817,-1.1817,-1.1817,-1.1817,-1.1817,-1.1817,-1.1817,-1.1817,-1.1817,-1.1817,-1.1817,-1.1633,-1.1477,-1.1477,-1.1477,-1.1477,-1.1377,-1.125,0.0,-1.1161,-1.1118,-1.1023,-1.1023,-1.0891,-1.0806,-1.0806,-1.0664,-1.0551,-1.0494,-1.049,-1.0461,-1.0405,-1.0263,-1.0112,-1.0043,-1.0038,-1.0038,0.0,0.0,0.0,0.0,0.0,0.0,0.0,0.0,0.0,0.0,0.0,0.0,0.0,0.0,0.0,0.0,0.0,0.0,0.0,0.0,0.0,0.0,-0.9245,-0.8986,-0.9137,-0.9092,-0.9112,-0.9295,-0.9474,-0.9648,-0.9831,-0.8973,-0.8685,-0.9304,-0.8411,-0.834,-0.9408,-0.95,-0.9663,-0.9779,-0.9647,-0.914,-0.814,-0.8699,-0.892,-0.8923,-0.9137,-0.9361,-0.9585,-0.8585,-0.8361,-0.8582,-0.8029,-0.8582,-0.9695,-0.9695,-1.0029,0.0,0.0,0.0,0.0,0.0,-1.0596,-1.0809,-1.1124,-1.1442,-1.1654,-1.1971,-1.2077,-1.2077,-1.2077,-1.2077,-1.2077,-1.2077,-1.2077,-1.2077,-1.2077,-1.2077,-1.2077,-1.2077,-1.2077,-1.2077,-1.2077,-1.2077,-1.2077,-1.2077,-1.2077,0.0,-1.2077,-1.1931,-1.1714,-1.161,-1.1616,-1.1541,-1.1439,-1.1433,-1.1425,-1.134,-1.1227,-1.1118,-1.1028,-1.0905,0.0,0.0,0.0,-1.0669,-1.0579,-1.0461,0.0,0.0,0.0,-1.0176,-1.0176,-1.0086,0.0,0.0,-1.0322,-1.0144,0.0,0.0,0.0,0.0,0.0,0.0,0.0,0.0,0.0,0.0,0.0,0.0,0.0,0.0,0.0,0.0,-0.9051,-0.9283,-0.964,-0.9567,-0.9531,-0.9669,-0.9839,-1.0014,-1.0176,-0.9385,-0.937,-1.0353,-0.9618,-0.9585,-1.0692,0.0,0.0,0.0,0.0,-0.9503,-0.7404,-0.8412,-0.8971,-0.8971,-0.7961,-0.8739,-1.0638,-0.8517,-0.8739,-1.0753,-0.9621,-0.9724,-1.072,-1.07,-1.0692,-1.0692,-1.0692,-1.0692,-1.0692,-1.0692,-1.0911,-1.1126,-1.1459,0.0,0.0,-1.2327,-1.2441,-1.2441,-1.2441,-1.2441,-1.2441,-1.2441,-1.2441,-1.2441,-1.2441,-1.2441,-1.2441,-1.2441,-1.2441,-1.2441,-1.2441,-1.2441,-1.2441,-1.2441,-1.2441,-1.2441,-1.2441,-1.2134,-1.1784,-1.1576,-1.1661,-1.1751,-1.1544,-1.1624,-1.1751,-1.1572,0.0,0.0,-1.125,-1.1231,-1.1146,-1.0943,-1.0929,-1.0834,-1.0617,-1.0612,-1.0598,-1.0575,-1.0577,-1.0486,-1.0486,-1.0465,-1.0799,-1.1576,-1.0574,-1.0207,0.0,0.0,0.0,0.0,0.0,0.0,0.0,0.0,0.0,0.0,0.0,0.0,0.0,0.0,0.0,-0.9518,-0.9502,-0.9648,-1.001,-1.0156,-1.0184,-1.0071,-1.0217,-1.0343,-1.0379,-1.0321,-1.0421,-1.0643,-1.0453,-1.0468,-1.0692,-1.0692,-1.0651,-1.0571,-0.9887,-0.938,-0.9046,-0.9279,-0.9398,-0.9394,0.0,0.0,-1.1118,-1.0654,-1.0658,-1.111,-1.0747,-1.0687,-1.0903,-1.0753,-1.0692,-1.0692,-1.0692,-1.0692,-1.0692,-1.0692,-1.0911,-1.1126,-1.1459,-1.1787,-1.2005,-1.2327,-1.2441,-1.2441,-1.2441,-1.2441,0.0,-1.2441,-1.2441,-1.2441,-1.2441,-1.2441,-1.2441,-1.2441,-1.2441,-1.2441,-1.2441,-1.2441,-1.2441,-1.2441,-1.2441,-1.2441,-1.2441,-1.237,-1.2318,-1.221,-1.2075,-1.1971,-1.1971,-1.1822,-1.1803,-1.1761,-1.1761,-1.1676,-1.1472,-1.1453,-1.1364,-1.1151,-1.1137,-1.1047,-1.0839,-1.0834,-1.0754,-1.0575,-1.1349,-1.1775,-1.1775,-1.2536,-1.3052,-1.3129,-1.1669,-1.1488,0.0,0.0,0.0,0.0,0.0,0.0,0.0,0.0,0.0,0.0,0.0,-1.1934,0.0,0.0,-1.0184,-0.9891,-0.9879,-0.9989,-1.0262,-1.0379,-1.04,-1.031,-1.0456,-1.0562,-1.0562,-1.0639,-1.0692,-1.0692,-1.0777,-1.083,-1.083,-1.0911,-1.0771,-1.0288,-1.017,-0.9978,-0.948,-1.0062,-1.0293,-1.0409,-1.0874,-1.1224,-1.1224,-1.1224,-1.1224,-1.122,-1.1363,-1.1326,-1.1317,-1.1448,-1.1355,-1.1274,-1.1274,-1.1105,-1.0911,-1.1131,-1.124,-1.135,-1.1678,-1.1896,-1.211,-1.298,-1.2871,-1.2545,-1.3088,-1.2871,-1.2441,-1.2441,-1.2441,-1.2441,-1.2441,-1.2441,-1.2441,-1.2441,-1.2441,-1.2441,-1.2441,-1.2441,-1.2441,-1.2441,-1.2441,-1.2441,-1.2441,-1.2441,-1.2441,-1.2441,-1.2356,-1.229,-1.229,-1.2195,-1.2091,-1.1987,-1.1978,-1.1893,-1.1685,-1.1971,-1.2407,-1.2748,-1.2732,-1.2684,-1.2571,-1.2565,-1.2506,-1.2476,-1.2822,-1.3032,-1.3032,-1.3447,-1.3929,-1.4283,-1.3471,-1.3167,0.0,0.0,0.0,0.0,0.0,0.0,0.0,0.0,-1.4515,-1.4226,-1.3134,-1.2248,-1.2254,-1.112,-1.0141,-1.0079,-1.0129,-1.0278,-1.0461,-1.0485,-1.0485,-1.0485,-1.0607,-1.0692,-1.0692,-1.0724,-1.0745,-1.0745,-1.0915,-1.1017,-1.1017,-1.1147,-1.0774,-0.9877,-1.0809,-1.0825,-0.9923,-1.0864,-1.133,-1.133,-1.1325,-1.1442,-1.1442,-1.1442,-1.1442,-1.1558,-1.1752,-1.1833,-1.1799,-1.2144,-1.206,-1.192,-1.2037,-1.193,-1.1775,-1.1595,-1.1782,-1.2001,-1.2005,-1.2327,-1.2975,-1.384,-1.3732,-1.33,-1.4272,-1.3835,-1.3083,-1.3083,-1.2866,-1.2762,-1.2762,-1.2545,-1.2441,-1.2441,-1.2441,-1.2441,-1.2441,-1.2441,-1.2441,-1.2441,-1.2441,-1.2441,-1.2441,-1.2441,-1.2441,-1.2441,-1.2441,-1.2441,-1.2441,-1.2441,-1.2375,-1.2214,-1.2195,-1.2115,-1.1898,-1.2394,-1.306,-1.3688,-1.3773,-1.3841,-1.398,-1.398,-1.4076,-1.4268,-1.4346,-1.4334,-1.4334,-1.4381,-1.4728,-1.5465,-1.5465,-1.5037,-1.4314,-1.4482,0.0,-1.0717,-1.2267,-1.3847,0.0,0.0,-1.3266,-1.1796,-1.1581,-1.1395,-1.0436,-1.0462,-1.0464,-1.0318,-1.0379,-1.0465,-1.0639,-1.0664,-1.0664,-1.0664,-1.068,-1.0692,-1.0692,-1.0842,-1.0936,-1.0936,-1.1098,-1.1196,-1.1196,-1.1212,-1.1181,-1.1224,-1.135,-1.1549,-1.1591,-1.1715,-1.1715,-1.1715,-1.1939,-1.2055,-1.2055,-1.2414,-1.2534,-1.2525,-1.2482,-1.2311,-1.2148,-1.2144,-1.2135,-1.2232,-1.2456,-1.3231,-1.3938,-1.2238,-1.2432,-1.3295,-1.2327,-1.3506,-1.5328,-1.4487,-1.4798,-1.5541,-1.5648,-1.5648,-1.5541,-1.5541,-1.4798,-1.3954,-1.3954,-1.3197,-1.2441,-1.2441,-1.2441,-1.2441,-1.2441,-1.2441,-1.2441,-1.2441,-1.2441,-1.2441,-1.2441,-1.2441,-1.2441,-1.2441,-1.2441,-1.2441,-1.2441,-1.2441,-1.2432,-1.2408,-1.2408,-1.2323,-1.212,-1.2011,-1.1899,-1.1793,-1.1778,-1.2178,-1.2834,-1.292,-1.3307,-1.4268,-1.5197,-1.5556,-1.5556,-1.6476,-1.6937,-1.703,-1.703,-1.6726,-1.3105,0.0,0.0,0.0,-1.206,-1.3588,-1.2513,-1.3168,-1.405,-1.4186,-1.3567,-1.2881,-1.2715,-1.2093,-1.1498,0.0,-1.0733,-1.0611,-1.0899,-1.0802,-1.0692,-1.0692,-1.0789,-1.0854,-1.0854,-1.0923,-1.1009,-1.111,-1.1281,-1.1382,-1.1382,-1.1488,-1.1581,-1.1658,-1.177,-1.1927,-1.2005,-1.2247,-1.2367,-1.2367,-1.2483,-1.2479,-1.2479,-1.2599,-1.284,-1.2955,-1.2879,-1.2917,-1.3076,-1.3076,-1.346,-1.3919,-1.336,-1.4193,-1.5597,-1.393,-1.4139,-1.5092,-1.452,-1.5001,-1.5968,-1.6086,-1.608,-1.6074,-1.6723,-1.6399,-1.5861,-1.5861,-1.5541,-1.5227,-1.5227,-1.4793,-1.4471,-1.4471,-1.4471,-1.4471,-1.4471,-1.4471,-1.4261,-1.3624,-1.3413,-1.3197,-1.255,-1.2441,-1.2441,-1.2441,-1.2441,-1.2441,-1.2441,-1.2441,-1.2441,-1.2441,-1.2441,-1.2572,-1.2991,-1.299,-1.3039,-1.3409,-1.35,-1.3885,-1.4613,-1.4698,-1.5107,-1.5988,-1.6466,-1.6662,-1.6662,-1.7138,-1.7326,-1.7326,-1.7434,-1.7379,-1.2787,0.0,0.0,-1.1325,-1.2218,-1.3604,-1.3872,-1.4198,-1.4855,-1.6293,-1.5306,-1.4251,-1.4219,-1.321,-1.2209,-1.1791,-1.1259,-1.1126,-1.1559,-1.1126,-1.0802,-1.0802,-1.0966,-1.0988,-1.1033,-1.1086,-1.1167,-1.1289,-1.1472,-1.1577,-1.1577,-1.1819,-1.1889,-1.1889,-1.2242,-1.2359,-1.2359,-1.2599,-1.2719,-1.2719,-1.284,-1.284,-1.284,-1.296,-1.3084,-1.3324,-1.3324,-1.3684,-1.4157,-1.3803,-1.4533,-1.5771,-1.4509,-1.5445,-1.7291,-1.6128,-1.6202,-1.6879,-1.6362,-1.651,-1.7148,-1.7609,-1.737,-1.7138,-1.7813,-1.7463,-1.6823,-1.6823,-1.6611,-1.6399,-1.6399,-1.5861,-1.5547,-1.5861,-1.5435,-1.5007,-1.5334,-1.5221,-1.4685,-1.384,-1.3738,-1.3413,-1.2545,-1.2441,-1.2441,-1.2441,-1.2441,-1.2441,-1.2441,-1.2441,-1.2441,-1.2441,-1.2441,-1.2699,-1.329,-1.3699,-1.4013,-1.4572,-1.4867,-1.5456,-1.6281,-1.6268,-1.6662,-1.7604,-1.7596,-1.7596,-1.7596,-1.7691,-1.7691,-1.7691,-1.7991,-1.8093,0.0,0.0,-1.4488,-1.2564,-1.2928,-1.4017,-1.4659,-1.4939,-1.5319,-1.6214,-1.5679,-1.4619,-1.3677,-1.2705,-1.2209,-1.2743,-1.21,-1.1891,-1.2748,-1.1778,-1.1126,-1.1126,-1.1077,-1.1033,0.0,-1.1378,-1.1484,-1.1492,-1.1663,-1.1768,-1.1768,-1.2001,-1.2238,-1.2238,-1.2479,-1.2719,-1.2719,-1.2719,-1.2719,-1.2719,-1.308,-1.3204,-1.3204,-1.3569,-1.3688,-1.3688,-1.3688,-1.4396,-1.5456,-1.4162,-1.5095,-1.7196,-1.6031,-1.7079,-1.9143,-1.8844,-1.8552,-1.83,-1.7185,-1.8189,-1.9816,-1.8401,-1.8749,-1.9582,-1.9374,-1.9168,-1.9168,-1.9168,-1.8422,-1.7582,-1.7582,-1.5873,-1.4487,-1.5648,-1.4153,-1.2871,-1.3948,-1.3305,-1.2545,-1.2436,-1.2436,-1.2441,-1.2441,-1.2441,-1.2441,-1.2441,-1.2441,-1.2441,-1.2441,-1.2441,-1.2441,-1.2441,-1.2441,-1.2436,-1.2432,-1.3511,-1.4051,-1.3903,-1.4827,-1.585,-1.6787,-1.6773,-1.7272,-1.8269,-1.8277,-1.8277,-1.8277,-1.8557,-1.8656,-1.8656,-1.8965,-1.9071,0.0,0.0,-1.4111,-1.3737,-1.4163,-1.5005,-1.6079,-1.5534,-1.5413,-1.7346,-1.6343,-1.521,-1.5791,-1.547,-1.4781,-1.3614,-1.3078,-1.2861,-1.3403,-1.2323,-1.1673,-1.2427,-1.2069,0.0,0.0,0.0,0.0,-1.1898,-1.2088,-1.2126,-1.2367,-1.2483,-1.2479,-1.2479,-1.284,-1.308,-1.308,-1.3204,-1.3324,-1.3324,-1.3444,-1.3564,-1.3569,-1.3688,-1.4157,-1.4867,-1.4043,-1.4867,-1.6744,-1.5456,-1.6391,-1.85,-1.7325,-1.8383,-2.0486,-1.9449,-1.9576,-2.0125,-1.9368,-1.9566,-2.0106,-1.9656,-1.9736,-2.0055,-1.9945,-1.9769,-1.9601,-1.9601,-1.923,-1.8743,-1.8743,-1.8213,-1.747,-1.7147,-1.6399,-1.5761,-1.5441,-1.5007,-1.4476,-1.3732,-1.363,-1.3305,-1.2545,-1.2441,-1.2654,-1.3521,-1.2871,-1.2441,-1.2441,-1.2441,-1.2441,-1.2441,-1.2441,-1.2762,-1.3521,-1.3948,-1.4449,-1.5199,-1.5517,-1.6137,-1.6994,-1.6987,-1.75,-1.8496,-1.8595,-1.8693,-1.8799,-1.8897,-1.8996,-1.8996,-1.9192,-1.9388,-1.5133,-1.4807,-1.4735,-1.5113,-1.5267,-1.5636,-1.7253,-1.6513,-1.6107,-1.8278,-1.7288,-1.6292,-1.7108,-1.6817,-1.6068,-1.5108,-1.4578,-1.4256,-1.4261,-1.3186,-1.2432,-1.2753,-1.2795,-1.2589,0.0,0.0,0.0,-1.235,-1.2354,-1.2479,-1.2719,-1.284,-1.284,-1.284,-1.3204,-1.3324,-1.3324,-1.3569,-1.3688,-1.3688,-1.3688,-1.3923,-1.4396,-1.4396,-1.51,-1.6155,-1.5332,-1.6155,-1.8033,-1.6744,-1.7683,-1.9795,-1.8616,-1.9325,-2.1089,-2.0263,-2.05,-2.1152,-2.0728,-2.0589,-2.0567,-2.045,-2.0413,-2.0391,-2.0274,-2.0091,-1.993,-1.993,-1.9784,-1.9594,-1.9477,-1.9125,-1.8766,-1.8345,-1.7259,-1.6299,-1.5968,-1.5221,-1.4476,-1.3732,-1.3521,-1.3305,-1.2545,-1.2441,-1.2654,-1.3413,-1.2871,-1.255,-1.298,-1.2654,-1.2441,-1.2441,-1.2762,-1.3413,-1.4169,-1.5018,-1.5867,-1.6605,-1.7127,-1.7678,-1.8121,-1.8217,-1.8534,-1.9237,-1.9237,-1.9337,-1.9453,-1.956,-1.956,-1.966,-1.9852,-1.9951,-1.6142,-1.6244,-1.637,-1.6676,-1.6196,-1.6175,-1.8013,-1.7661,-1.7427,-1.8998,-1.8429,-1.7582,0.0,0.0,-1.6287,-1.7028,-1.6499,-1.5861,-1.5553,-1.4476,-1.3403,0.0,0.0,0.0,0.0,0.0,0.0,-1.2955,0.0,-1.2719,-1.2719,-1.3084,-1.3204,-1.3204,-1.3564,-1.3688,-1.3688,-1.3688,-1.3808,-1.3923,-1.3808,-1.4515,-1.5688,-1.5688,-1.6391,-1.7443,-1.7443,-1.815,-1.9325,-1.8027,-1.8971,-2.1089,-1.991,-2.0148,-2.1211,-2.1211,-2.1211,-2.1211,-2.1211,-2.1211,-2.1159,-2.0852,-2.075,-2.0691,-2.0377,-2.0274,-2.0259,-2.0259,-2.0245,-2.0164,-1.9864,-1.9006,-1.8265,-1.9045,-1.6743,-1.4606,-1.5547,-1.4046,-1.2441,-1.2441,-1.2441,-1.2441,-1.2441,-1.2441,-1.2441,-1.2441,-1.2436,-1.2871,-1.3948,-1.3088,-1.2436,-1.2545,-1.3516,-1.4272,-1.4379,-1.6611,-1.8087,-1.8087,-1.9346,-2.0078,-2.0078,-2.0078,-2.0086,-2.0078,-2.0078,-2.0078,-2.0181,-2.0411,-2.0522,-2.0522,-2.0822,-2.0925,-1.6197,-1.6347,-1.6676,-1.696,-1.7357,-1.7876,-1.8564,-1.8039,-1.7803,-1.9049,-1.8429,-1.7898,0.0,0.0,0.0,-1.7575,-1.7259,0.0,-1.7047,-1.608,0.0,-1.608,0.0,-1.585,-1.5519,-1.62,0.0,0.0,-1.3794,-1.3204,-1.3444,-1.3564,-1.3569,-1.3569,-1.3688,-1.3688,-1.3688,-1.3688,-1.4629,-1.6509,-1.5569,-1.5806,-1.6973,-1.6973,-1.7677,-1.8739,-1.7793,-1.8616,-2.0615,-1.9325,-1.9795,-2.1211,-2.0852,-2.0859,-2.1211,-2.1211,-2.1211,-2.1211,-2.1211,-2.1211,-2.1196,-2.1115,-2.1086,-2.1072,-2.0984,-2.0794,-2.0596,-2.0596,-2.042,-2.0216,-2.0135,-1.9888,-1.9469,-1.8493,-1.7016,-1.5561,-1.4843,-1.3408,-1.2441,-1.2441,-1.2441,-1.2441,-1.2441,-1.2441,-1.2441,-1.2441,-1.3295,-1.3722,-1.298,-1.2985,-1.3305,-1.3938,-1.468,-1.5743,-1.7226,-1.7969,-1.8708,-1.9554,-1.9872,-2.0078,-2.0078,-2.0078,-2.0189,-2.0411,-2.0411,-2.0514,-2.0712,-2.0719,-2.0822,-2.0822,-2.0822,-2.0925,-1.6286,-1.6545,-1.7,-1.7421,-1.803,-1.8707,-1.9008,-1.8615,-1.8492,-1.8986,-1.8537,0.0,0.0,0.0,0.0,0.0,0.0,0.0,-1.7687,-1.7041,-1.6723,0.0,-1.7092,0.0,-1.6745,-1.7483,-1.7548,0.0,-1.5095,-1.4038,-1.3688,-1.3688,-1.3923,-1.4515,-1.4515,-1.4748,-1.5337,-1.4748,-1.5451,-1.7443,-1.6744,-1.7097,-1.8267,-1.8267,-1.8971,-2.0148,0.0,-1.991,-2.1096,-2.0385,-2.05,-2.1211,-2.1211,-2.1211,-2.1211,-2.1211,-2.1211,-2.1211,-2.1211,-2.1211,-2.1211,-2.1211,-2.1211,-2.1211,-2.1211,-2.1079,-2.094,-2.094,-2.0801,-2.0625,-2.0486,-2.045,-2.0142,-1.9252,-1.7975,-1.6857,-1.6066,-1.4445,-1.298,-1.2545,-1.2441,-1.2441,-1.2441,-1.2659,-1.2767,-1.2767,-1.3727,-1.4159,-1.3305,-1.4159,-1.5007,-1.5423,-1.6268,-1.7219,-1.8283,-1.8923,-1.9561,-2.0197,-2.0395,-2.0498,-2.0498,-2.0498,-2.0506,-2.0719,-2.0719,-2.0719,-2.0925,-2.0925,-2.0925,-2.0925,-2.0925,-2.0925,-1.6242,-1.6755,-1.7282,-1.7841,-1.8458,-1.8923,-1.9264,-1.9206,-1.9074,-1.884,0.0,-1.8723,-1.8723,-1.8723,-1.8833,-1.9162,0.0,-1.8909,-1.8003,-1.7793,-1.747,-1.6499,-1.7488,-1.7994,-1.7284,-1.8361,-1.8656,-1.7775,-1.6626,-1.5575,-1.4277,-1.4157,-1.4748,-1.5806,-1.5806,-1.6391,-1.7677,-1.6391,-1.6509,-1.791,-1.7677,-1.8267,-1.9557,-1.9557,-2.0148,-2.1211,-2.1211,-2.1211,-2.1211,-2.1211,-2.1211,-2.1211,-2.1211,-2.1211,-2.1211,-2.1211,-2.1211,-2.1211,-2.1211,-2.1211,-2.1211,-2.1211,-2.1211,-2.1211,-2.1211,-2.1211,-2.1211,-2.1211,-2.1211,-2.1145,-2.0859,-2.0786,-2.0706,-2.0377,-1.9185,-1.8076,-1.778,-1.5719,-1.3624,-1.2654,-1.2545,-1.2654,-1.255,-1.3093,-1.3527,-1.3423,-1.4062,-1.4487,-1.4589,-1.5855,-1.6704,-1.6804,-1.7864,-1.8603,-1.87,-1.9879,-2.0514,-2.0514,-2.0822,-2.0925,-2.0925,-2.0925,-2.0925,-2.0925,-2.0925,-2.0925,-2.0925,-2.0925,-2.0925,-2.0925,-2.0925,-2.0925,-1.6279,-1.6995,-1.7733,-1.7682,-1.8232,-1.8942,-1.9213,-1.8855,0.0,0.0,0.0,-1.8386,-1.8386,-1.8386,0.0,-1.8818,0.0,0.0,0.0,0.0,-1.8959,0.0,0.0,0.0,0.0,0.0,0.0,0.0,-1.8739,-1.815,-1.6862,-1.6744,-1.6862,-1.7097,-1.7091,-1.7677,-1.8971,-1.7677,-1.8267,-2.05,-1.9441,-1.9673,-2.0852,-2.0852,-2.0974,-2.1211,-2.1211,0.0,-2.1211,-2.1211,-2.1211,-2.1211,-2.1211,-2.1211,-2.1211,-2.1211,-2.1211,-2.1211,-2.1211,-2.1211,-2.1211,-2.1211,-2.1211,-2.1211,-2.1211,-2.1211,-2.1211,-2.1211,-2.1211,-2.1196,-2.1137,-2.1123,-2.1042,-2.0713,-1.9675,-1.8473,-1.6892,-1.4532,-1.2654,-1.2441,-1.3403,-1.3938,-1.331,-1.4153,-1.4787,-1.4164,-1.5125,-1.618,-1.6804,-1.6605,-1.6605,-1.7331,-1.861,-1.9776,-2.0395,-2.0712,-2.0822,-2.0822,-2.0917,-2.0925,-2.0925,-2.0925,-2.0925,-2.0925,-2.0925,-2.0925,-2.0925,-2.0925,-2.0925,-2.0925,-2.0925,-2.0925,-1.6552,-1.7147,-1.7611,-1.7782,-1.8124,-1.8577,-1.873,0.0,0.0,0.0,0.0,-1.805,-1.805,0.0,0.0,0.0,0.0,0.0,0.0,0.0,0.0,0.0,0.0,0.0,0.0,0.0,0.0,0.0,-2.027,-1.9441,-1.7443,-1.8033,-1.8383,-1.8383,-1.8383,-1.8971,-2.0263,-1.8971,-1.9325,-2.1211,-2.0622,-2.0622,-2.1211,-2.1211,-2.1211,-2.1211,-2.1211,-2.1211,-2.1211,-2.1211,-2.1211,-2.1211,-2.1211,-2.1211,-2.1211,-2.1211,-2.1211,-2.1211,-2.1211,-2.1211,-2.1211,-2.1211,-2.1211,-2.1211,-2.1211,-2.1211,-2.1211,-2.1211,-2.1211,-2.1211,-2.1211,-2.1211,-2.1167,-2.1013,-1.9913,-1.8374,-1.6698,-1.485,-1.3327,-1.29,-1.3413,-1.4051,-1.4369,-1.5215,-1.5855,-1.5962,-1.6711,-1.7569,-1.7877,-1.7982,-1.8401,-1.9228,-1.9872,-2.0506,-2.0917,-2.0925,-2.0925,-2.0925,-2.0925,-2.0925,-2.0925,-2.0925,-2.0925,-2.0925,-2.0925,-2.0925,-2.0925,-2.0925,-2.0925,-2.0925,-2.0925,-2.0925,-1.6809,-1.7138,-1.7502,-1.7752,-1.8007,-1.8218,-1.8284,-1.8196,0.0,0.0,-1.7757,-1.7706,-1.7706,0.0,0.0,0.0,0.0,0.0,0.0,0.0,0.0,0.0,0.0,0.0,0.0,0.0,0.0,0.0,-2.1167,-2.0385,-1.8267,-1.9203,-1.9679,-1.9679,-1.9679,-2.0148,-2.1211,-2.0263,-2.0263,-2.1211,-2.1211,-2.1211,-2.1211,-2.1211,-2.1211,-2.1211,-2.1211,-2.1211,-2.1211,-2.1211,-2.1211,-2.1211,-2.1211,-2.1211,-2.1211,-2.1211,-2.1211,-2.1211,-2.1211,-2.1211,-2.1211,-2.1211,-2.1211,-2.1211,-2.1211,-2.1211,-2.1211,-2.1211,-2.1211,-2.1211,-2.1211,-2.1211,-2.1211,-2.1325,-1.9911,-1.8288,-1.7211,-1.5857,-1.4658,-1.4104,-1.4266,-1.4793,-1.5737,-1.6493,-1.714,-1.7654,-1.8094,-1.8422,-1.8632,-1.9257,-1.999,-2.0822,-2.0925,-2.0925,-2.0925,-2.0925,-2.0925,-2.0925,-2.0925,-2.0925,-2.0925,-2.0925,-2.0925,-2.0925,-2.0925,-2.0925,-2.0925,-2.0925,-2.0925,-2.0925,-2.0925,-2.0925,-1.6571,-1.7095,-1.7734,-1.748,-1.7674,-1.794,-1.8233,0.0,0.0,-1.7757,-1.7582,-1.7377,-1.7377,-1.7377,0.0,0.0,0.0,0.0,0.0,0.0,0.0,0.0,0.0,0.0,0.0,0.0,0.0,0.0,-2.1042,-2.1089,-2.0859,-2.0974,-2.0974,-2.0974,-2.0974,-2.1089,-2.1211,-2.1089,-2.1089,-2.1211,-2.1211,-2.1211,-2.1211,-2.1211,-2.1211,-2.1211,-2.1211,-2.1211,0.0,-2.1211,-2.1211,-2.1211,-2.1211,-2.1211,-2.1211,-2.1211,-2.1211,-2.1211,-2.1211,-2.1211,-2.1211,-2.1211,-2.1211,-2.1211,-2.1211,-2.1211,-2.1211,-2.1211,-2.1211,-2.1211,-2.1211,-2.1211,-2.1325,-2.1554,-1.9918,-1.8346,-1.9023,-1.7302,-1.5855,-1.633,-1.743,-1.8053,-1.743,-1.8499,-1.9153,-1.8422,-1.8318,-1.8736,-1.9472,-1.968,-1.999,-2.0822,-2.0925,-2.0925,-2.0925,-2.0925,-2.0925,-2.0925,-2.0925,-2.0925,-2.0925,-2.0925,-2.0925,-2.0925,-2.0925,-2.0925,-2.0925,-2.0925,-2.0925,-2.0925,-2.0925,-2.0925,-1.6664,-1.6955,-1.7282,-1.729,-1.7428,-1.7552,-1.7684,0.0,0.0,-1.7494,-1.7421,-1.7326,-1.7326,-1.7326,-1.7435,0.0,0.0,0.0,0.0,0.0,0.0,0.0,0.0,0.0,0.0,0.0,0.0,-2.0976,-2.1137,-2.1211,-2.1211,-2.1211,-2.1211,-2.1211,-2.1211,-2.1211,-2.1211,-2.1211,-2.1211,-2.1211,-2.1211,-2.1211,-2.1211,-2.1211,-2.1211,-2.1211,-2.1211,-2.1211,0.0,-2.1211,-2.1211,-2.1211,-2.1211,-2.1211,-2.1211,-2.1211,-2.1211,-2.1211,-2.1211,-2.1211,-2.1211,-2.1211,-2.1211,-2.1211,-2.1211,-2.1211,-2.1211,-2.1211,-2.1211,-2.1211,-2.1211,-2.1325,-2.1439,-2.1189,-2.0158,-1.9172,-1.8207,-1.7464,-1.6851,-1.6692,-1.745,-1.8171,-1.8715,-1.9354,-1.9783,-1.9879,-1.9879,-1.9983,-2.0403,-2.0403,-2.0506,-2.0917,-2.0925,-2.0925,-2.0925,-2.0925,-2.0925,-2.0925,-2.0925,-2.0925,-2.0925,-2.0925,-2.0925,-2.0925,-2.0925,-2.0925,-2.0925,-2.0925,-2.0925,-2.0925,-2.0925,-2.0925,-1.6455,-1.6711,-1.6908,-1.7128,-1.726,-1.7419,0.0,0.0,-1.7419,-1.7692,-1.7512,-1.7326,-1.7326,-1.7512,-1.7673,0.0,0.0,-1.8669,0.0,0.0,0.0,0.0,0.0,0.0,0.0,0.0,0.0,-2.1159,-2.1211,-2.1211,-2.1211,-2.1211,-2.1211,-2.1211,-2.1211,-2.1211,-2.1211,-2.1211,-2.1211,-2.1211,-2.1211,-2.1211,-2.1211,-2.1211,-2.1211,-2.1211,-2.1211,-2.1211,0.0,-2.1211,-2.1211,-2.1211,-2.1211,-2.1211,-2.1211,-2.1211,-2.1211,-2.1211,-2.1211,-2.1211,-2.1211,-2.1211,-2.1211,-2.1211,-2.1211,-2.1211,-2.1211,-2.1211,-2.1325,-2.1325,-2.1325,-2.1432,-2.1425,-2.1296,-2.0709,-1.9814,-1.8945,-1.8637,-1.833,-1.8151,-1.828,-1.8812,-1.9879,-2.0094,-2.03,-2.0822,-2.0925,-2.0925,-2.0925,-2.0925,-2.0925,-2.0925,-2.0925,-2.0925,-2.0925,-2.0925,-2.0925,-2.0925,-2.0925,-2.0925,-2.0925,-2.0925,-2.0925,-2.0925,-2.0925,-2.0925,-2.0925,-2.0925,-2.0925,-2.0925,-2.0925,-2.0925,-1.5921,-1.6382,-1.6857,-1.6857,-1.7099,-1.7606,0.0,0.0,-1.7606,-1.8603,-1.7971,-1.7326,-1.7326,-1.8149,-1.8427,-1.7426,-1.8732,0.0,0.0,0.0,0.0,0.0,0.0,0.0,0.0,0.0,0.0,-2.1159,-2.1211,0.0,-2.1211,-2.1211,-2.1211,-2.1211,-2.1211,-2.1211,-2.1211,-2.1211,-2.1211,-2.1211,-2.1211,-2.1211,-2.1211,-2.1211,-2.1211,-2.1211,-2.1211,-2.1211,0.0,-2.1211,-2.1211,-2.1211,-2.1211,-2.1211,-2.1211,-2.1211,-2.1211,-2.1211,-2.1211,-2.1211,-2.1211,-2.1211,-2.1211,-2.1211,-2.1211,-2.1211,-2.1211,-2.1211,-2.1439,-2.1668,-2.1668,-2.1196,-2.1067,-2.2222,-2.1196,-2.0301,-2.211,-2.1439,-2.067,-2.1196,-2.1059,-2.0917,-2.0925,-2.0925,-2.0917,-2.0925,-2.0925,-2.0925,-2.0925,-2.0925,-2.0925,-2.0925,-2.0925,-2.0925,-2.0925,-2.0925,-2.0925,-2.0925,-2.0925,-2.0925,-2.0925,-2.0925,-2.0925,-2.0925,-2.0925,-2.0925,-2.0925,-2.0925,-2.0925,-2.0925,-2.0925,-2.0925,-1.6174,-1.6139,-1.6316,-1.6748,-1.7462,-1.7956,-1.7825,0.0,-1.8964,-1.7963,-1.8056,-1.8334,-1.8334,-1.8611,-1.8703,-1.8334,-1.9755,0.0,0.0,0.0,0.0,0.0,0.0,0.0,0.0,0.0,-2.0619,-2.1502,-2.1554,-2.166,-2.1774,-2.1774,-2.166,-2.1211,-2.1439,-2.1554,-2.1554,-2.1774,-2.1774,-2.1774,-2.1774,-2.1774,-2.1774,-2.1774,-2.1774,-2.1774,-2.1774,-2.1774,-2.1774,-2.1774,-2.166,-2.1554,-2.1554,-2.1439,-2.1211,-2.1211,-2.1211,-2.1211,-2.1211,-2.1211,-2.1211,-2.1211,-2.1325,-2.1554,-2.1554,-2.1554,-2.1554,-2.1774,-2.1425,-2.1189,-2.2116,-2.1645,-2.1174,-2.1744,-2.1979,-2.1843,-2.1171,-2.1269,-2.1387,-2.0956,-2.0903,-2.0925,-2.0925,-2.0925,-2.0925,-2.0925,-2.0925,-2.0925,-2.0925,-2.0925,-2.0925,-2.0925,-2.0925,-2.0925,-2.0925,-2.0925,-2.0925,-2.0925,-2.0925,-2.0925,-2.0925,-2.0925,-2.0925,-2.0925,-2.0925,-2.0925,-2.0925,-2.0925,-2.1121,-2.1428,-2.1428,-2.1623,0.0,-1.6392,-1.6675,-1.6999,-1.7726,0.0,0.0,0.0,-1.9163,-1.8611,-1.8796,-1.9072,-1.898,-1.9338,-1.9604,-1.9513,-2.0312,0.0,0.0,0.0,0.0,0.0,0.0,0.0,0.0,0.0,-2.0943,-2.1729,-2.1888,-2.1888,-2.2108,-2.2116,-2.1888,-2.1546,-2.1774,-2.1888,-2.1888,-2.2002,-2.2116,-2.2116,-2.2116,-2.2116,-2.2116,-2.2116,-2.2116,-2.2116,-2.2116,-2.2116,0.0,-2.2116,-2.2002,-2.1896,-2.1782,-2.1668,-2.1554,-2.1439,-2.1439,-2.1439,-2.1439,-2.1325,-2.1211,-2.1211,-2.1325,-2.1554,-2.1782,-2.1782,-2.1782,-2.1888,-2.1653,-2.141,-2.2343,-2.1987,-2.1509,-2.1972,-2.232,-2.2207,-2.1524,-2.1677,-2.185,-2.1202,-2.0973,-2.0925,-2.0925,-2.0925,-2.0925,-2.0925,-2.0925,-2.0925,-2.0925,-2.0925,-2.0925,-2.0925,-2.0925,-2.0925,-2.0925,-2.0925,-2.0925,-2.0925,-2.0925,-2.0925,-2.0925,-2.0925,-2.0925,-2.0925,-2.0925,-2.1019,-2.1224,-2.142,-2.1725,-2.203,-2.203,-2.2224,0.0,0.0,0.0,0.0,0.0,0.0,0.0,0.0,0.0,0.0,-1.9985,-1.953,-1.9455,-2.0339,-2.1042,-2.0773,-2.0491,0.0,0.0,0.0,0.0,0.0,0.0,0.0,0.0,-2.1086,-2.1368,-2.2024,-2.2101,-2.2108,-2.2108,-2.2108,-2.2108,-2.2108,-2.2108,-2.2116,-2.2116,-2.2116,-2.2108,-2.2108,-2.2108,-2.2108,-2.2108,-2.2108,-2.2108,0.0,-2.2108,-2.2108,-2.2108,-2.2108,-2.2108,-2.2116,-2.1782,-2.1888,-2.2002,-2.1782,-2.1668,-2.1668,-2.1668,-2.1439,-2.1211,-2.1211,-2.1325,-2.1432,-2.2002,-2.1888,-2.1782,-2.1782,-2.1888,-2.2108,-2.257,-2.2093,-2.1851,-2.278,-2.232,-2.1964,-2.2788,-2.2458,-2.1957,-2.1957,-2.1393,-2.0925,-2.0925,-2.0925,-2.0925,-2.0925,-2.0925,-2.0925,-2.0925,-2.0925,-2.0925,-2.0925,-2.0925,-2.0925,-2.0925,-2.0925,-2.0925,-2.0925,-2.0917,-2.0917,-2.0917,-2.1019,-2.1019,-2.1019,-2.1019,-2.1224,-2.1725,-2.2224,-2.2526,-2.2526,-2.2526,-2.2627,-1.7602,0.0,-1.7466,-1.8468,-1.9569,0.0,0.0,0.0,0.0,0.0,0.0,0.0,0.0,0.0,-2.2031,-2.1943,-2.2447,0.0,0.0,0.0,0.0,0.0,0.0,0.0,0.0,-2.0948,-2.1378,-2.2023,-2.2301,-2.257,-2.2788,-2.2788,-2.2788,-2.2788,-2.2788,-2.2675,-2.2456,-2.2683,-2.2788,-2.2788,-2.2788,-2.2788,-2.2788,-2.2788,-2.2788,-2.2788,-2.2788,-2.2788,-2.2788,-2.2788,-2.2562,-2.2108,-2.2002,-2.1774,-2.1432,-2.1325,-2.1325,-2.1325,-2.1325,-2.1325,-2.1325,-2.1774,-2.2116,-2.2343,-2.2456,-2.223,-2.2116,-2.2562,-2.2207,-2.1858,-2.2675,-2.2207,-2.1851,-2.278,-2.278,-2.278,-2.2901,-2.2458,-2.1957,-2.1957,-2.1393,-2.0925,-2.0925,-2.0925,-2.0925,-2.0925,-2.0925,-2.0925,-2.0925,-2.0925,-2.0925,-2.0925,-2.0925,-2.0925,-2.0925,-2.0925,-2.0925,-2.0925,-2.1326,-2.1522,-2.1522,-2.1928,-2.2123,-2.2123,-2.2123,-2.2232,-2.2325,-2.2426,-2.2728,-2.3129,-2.3129,-2.3329,-1.8948,-1.863,-1.8201,-1.8887,-1.9324,-1.9733,0.0,0.0,0.0,0.0,0.0,0.0,0.0,0.0,0.0,0.0,0.0,0.0,0.0,0.0,0.0,0.0,0.0,0.0,0.0,-2.1324,-2.1666,-2.2238,-2.2592,-2.2796,-2.3014,-2.3014,-2.3014,-2.3014,-2.3014,-2.2901,-2.2796,-2.2909,-2.3014,-2.3014,-2.3014,-2.3014,-2.3014,-2.3014,-2.3014,-2.3014,-2.3014,-2.3014,-2.3014,-2.3014,-2.2788,-2.2449,-2.2343,-2.223,-2.2002,-2.1888,-2.1888,-2.1888,-2.1888,-2.1774,-2.166,-2.2002,-2.223,-2.2456,-2.257,-2.2456,-2.2456,-2.2675,-2.2441,-2.2207,-2.2788,-2.2659,-2.232,-2.2901,-2.3014,-2.3014,-2.3014,-2.2458,-2.1957,-2.1957,-2.1393,-2.0925,-2.0925,-2.0925,-2.0925,-2.0925,-2.0925,-2.0925,-2.0925,-2.0925,-2.0925,-2.0925,-2.1121,-2.1224,-2.1224,-2.1522,-2.1522,-2.1326,-2.1725,-2.203,-2.203,-2.2325,-2.2526,-2.2526,-2.2728,-2.2828,-2.2828,-2.3129,-2.3438,-2.3737,-2.3737,-2.3845,-1.9747,-1.958,-1.9107,-1.9195,-1.8778,-1.8823,0.0,0.0,0.0,0.0,0.0,0.0,0.0,0.0,0.0,0.0,0.0,0.0,0.0,0.0,0.0,0.0,0.0,0.0,-2.1338,-2.1679,-2.2029,-2.2378,-2.2736,-2.2958,-2.3014,-2.3014,-2.3014,-2.3014,-2.3014,-2.3014,-2.3014,-2.3014,-2.3014,-2.3014,-2.3014,-2.3014,-2.3014,-2.3014,-2.3014,-2.3014,-2.3014,0.0,-2.3014,-2.3014,-2.3014,-2.2901,-2.2683,-2.2683,-2.2788,-2.257,-2.257,-2.257,-2.257,-2.2343,-2.223,-2.223,-2.223,-2.2343,-2.257,-2.2683,-2.2683,-2.2683,-2.2683,-2.2683,-2.2901,-2.3014,-2.3014,-2.3014,-2.3014,-2.3014,-2.3014,-2.2458,-2.1957,-2.1957,-2.1393,-2.0925,-2.0925,-2.0925,-2.0925,-2.0925,-2.0925,-2.0925,-2.1019,-2.1019,-2.1019,-2.1121,-2.1522,-2.1827,-2.1827,-2.2325,-2.2426,-2.192,-2.2325,-2.2627,-2.2728,-2.2728,-2.2728,-2.2728,-2.3229,-2.3429,-2.3429,-2.3945,-2.4152,-2.4152,-2.4152,-2.4152,-1.847,-1.8318,-1.855,-1.9904,-1.9817,-1.9315,0.0,0.0,0.0,0.0,0.0,0.0,0.0,0.0,0.0,0.0,0.0,0.0,0.0,0.0,0.0,0.0,0.0,-2.0941,-2.0996,-2.1322,-2.1671,-2.2013,-2.237,-2.2696,-2.2998,-2.3014,-2.3014,-2.3014,-2.3014,-2.3014,-2.3014,-2.3014,-2.3014,-2.3014,-2.3014,-2.3014,-2.3014,-2.3014,-2.3014,-2.3014,0.0,-2.3014,-2.3014,-2.3014,-2.2909,-2.2683,-2.257,-2.2456,-2.2222,-2.223,-2.223,-2.223,-2.223,-2.2343,-2.257,-2.257,-2.2683,-2.2901,-2.2901,-2.2901,-2.2901,-2.2901,-2.2901,-2.2909,-2.3014,-2.3014,-2.3014,-2.3014,-2.3014,-2.3014,-2.3014,-2.2458,-2.1957,-2.1957,-2.1393,-2.0925,-2.0925,-2.0925,-2.0925,-2.0925,-2.0925,-2.1019,-2.1522,-2.1623,-2.1725,-2.2232,-2.2325,-2.2426,-2.2426,-2.2828,-2.3129,-2.3029,-2.3129,-2.3438,-2.3945,-2.3945,-2.3945,-2.3945,-2.4044,-2.4044,-2.4044,-2.4152,-2.4152,-2.4152,-2.4152,-2.4152,-1.8709,-1.7997,-1.7602,-1.8877,-1.861,0.0,0.0,0.0,0.0,0.0,0.0,0.0,0.0,0.0,0.0,0.0,0.0,0.0,0.0,0.0,0.0,0.0,0.0,-2.0925,-2.0925,-2.1242,-2.1513,-2.1671,-2.2005,-2.2355,-2.2712,-2.2728,-2.2815,-2.3006,-2.3014,-2.3014,-2.3014,-2.3014,-2.3014,-2.3014,-2.3014,-2.3014,-2.3014,-2.3014,-2.3014,-2.3014,0.0,-2.3014,-2.3014,-2.3014,-2.2909,-2.2796,-2.2796,-2.2675,-2.2562,-2.2562,-2.2562,-2.2562,-2.2562,-2.2675,-2.2796,-2.2796,-2.2901,-2.3014,-2.3014,-2.3014,-2.3014,-2.3014,-2.3014,-2.3014,-2.3014,-2.3014,-2.3014,-2.3014,-2.3014,-2.3014,-2.3014,-2.2458,-2.1957,-2.1957,-2.1393,-2.0925,-2.0925,-2.1121,-2.1318,-2.1318,-2.1623,-2.1818,-2.2123,-2.2123,-2.2224,-2.2426,-2.2728,-2.2929,-2.2929,-2.3438,-2.3737,-2.3737,-2.3737,-2.3945,-2.4152,-2.4152,-2.4152,-2.4152,-2.4152,-2.4152,-2.4152,-2.4152,-2.4152,-2.4152,-2.4152,-2.4152,-1.855,-1.7683,-1.6894,-1.7521,0.0,0.0,0.0,0.0,0.0,0.0,0.0,0.0,0.0,0.0,0.0,0.0,0.0,0.0,0.0,0.0,0.0,-2.0925,-2.0925,-2.0925,-2.0925,-2.1171,-2.1362,-2.1336,-2.1687,-2.1997,-2.2347,-2.2363,-2.2529,-2.2879,-2.2895,-2.2934,-2.3014,-2.3014,-2.3014,-2.3014,-2.3014,-2.3014,-2.3014,-2.3014,-2.3014,-2.3014,-2.3014,-2.3014,-2.3014,-2.3014,-2.3014,-2.3014,-2.3014,-2.3014,-2.3014,-2.3014,-2.3014,-2.3014,-2.3014,-2.3014,-2.3014,-2.3014,-2.3014,-2.3014,-2.3014,-2.3014,-2.3014,-2.3014,-2.3014,-2.3014,-2.3014,-2.3014,-2.3014,-2.3014,-2.3014,-2.3014,-2.3014,-2.2458,-2.1957,-2.1957,-2.1393,-2.0917,-2.1019,-2.1428,-2.1725,-2.1827,-2.2224,-2.2526,-2.2627,-2.2728,-2.2728,-2.2828,-2.3238,-2.3538,-2.3538,-2.3945,-2.4152,-2.4152,-2.4152,-2.4152,-2.4152,-2.4152,-2.4152,-2.4152,-2.4152,-2.4152,-2.4152,-2.4152,-2.4152,-2.4152,-2.4152,-2.4152,-1.7131,-1.6812,-1.673,-1.6812,0.0,0.0,0.0,0.0,0.0,0.0,0.0,0.0,0.0,0.0,0.0,0.0,0.0,0.0,0.0,0.0,-2.0925,-2.0925,-2.0925,-2.0925,-2.0925,-2.0941,-2.1099,-2.1425,-2.1473,-2.1632,-2.1981,-2.1997,-2.2164,-2.2513,-2.2529,-2.268,-2.3014,-2.3014,-2.3014,-2.3014,-2.3014,-2.3014,-2.3014,-2.3014,-2.3014,-2.3014,-2.3014,-2.3014,-2.3014,-2.3014,-2.3014,-2.3014,-2.3014,-2.3014,-2.3014,-2.3014,-2.3014,-2.3014,-2.3014,-2.3014,-2.3014,-2.3014,-2.3014,-2.3014,-2.3014,-2.3014,-2.3014,-2.3014,-2.3014,-2.3014,-2.3014,-2.3014,-2.3014,-2.3014,-2.3014,-2.3014,-2.3014,-2.2458,-2.1957,-2.1957,-2.1393,-2.1019,-2.1522,-2.1623,-2.1827,-2.2325,-2.2526,-2.2728,-2.3229,-2.3229,-2.3438,-2.4044,-2.4152,-2.4152,-2.4152,-2.4152,-2.4152,-2.4152,-2.4152,-2.4152,-2.4152,-2.4152,-2.4152,-2.4152,-2.4152,-2.4152,-2.4152,-2.4152,-2.4152,-2.4152,-2.4152,-2.4152,-1.6812,-1.673,-1.673,-1.673,0.0,0.0,0.0,0.0,0.0,0.0,0.0,0.0,0.0,0.0,0.0,0.0,0.0,0.0,0.0,-2.0925,-2.0925,-2.0925,-2.0925,-2.0925,-2.0925,-2.0925,-2.098,-2.1107,-2.1123,-2.1274,-2.1624,-2.1648,-2.1798,-2.2148,-2.2156,-2.2331,-2.2688,-2.2688,-2.2791,-2.3014,-2.3014,-2.3014,-2.3014,-2.3014,-2.3014,-2.3014,-2.3014,-2.3014,-2.3014,-2.3014,-2.3014,-2.3014,-2.3014,-2.3014,-2.3014,-2.3014,-2.3014,-2.3014,-2.3014,-2.3014,-2.3014,-2.3014,-2.3014,-2.3014,-2.3014,-2.3014,-2.3014,-2.3014,-2.3014,-2.3014,-2.3014,-2.3014,-2.3014,-2.3014,-2.3014,-2.3014,-2.3014,-2.2633,-2.222,-2.2005,-2.1576,-2.1283,-2.1665,-2.203,-2.2426,-2.2929,-2.3338,-2.3646,-2.3836,-2.3845,-2.3945,-2.4152,-2.4152,-2.4152,-2.4152,-2.4152,-2.4152,-2.4152,-2.4152,-2.4152,-2.4152,-2.4152,-2.4152,-2.4152,-2.4152,-2.4152,-2.4152,-2.4152,-2.4152,-2.4152,-2.4152,-2.4152,-1.673,-1.673,-1.673,0.0,0.0,0.0,0.0,0.0,0.0,0.0,0.0,0.0,0.0,0.0,0.0,0.0,0.0,0.0,-2.0925,-2.0925,-2.0925,-2.0925,-2.0925,-2.0925,-2.0925,-2.0925,-2.0925,-2.0925,-2.0925,-2.1028,-2.1266,-2.1282,-2.1441,-2.1791,-2.1798,-2.1965,-2.2315,-2.2323,-2.2442,-2.2688,-2.2791,-2.2903,-2.3014,-2.3014,-2.3014,-2.3014,-2.3014,-2.3014,-2.3014,-2.3014,-2.3014,-2.3014,-2.3014,-2.3014,-2.3014,-2.3014,-2.3014,-2.3014,-2.3014,-2.3014,-2.3014,-2.3014,-2.3014,-2.3014,-2.3014,-2.3014,-2.3014,-2.3014,-2.3014,-2.3014,-2.3014,-2.3014,-2.3014,-2.3014,-2.3014,-2.3014,-2.3014,-2.2736,-2.2418,-2.2172,-2.1846,-2.1602,-2.1862,-2.2307,-2.2875,-2.3247,-2.3836,-2.4152,-2.4152,-2.4152,-2.4152,-2.4152,-2.4152,-2.4152,-2.4152,-2.4152,-2.4152,-2.4152,-2.4152,-2.4152,-2.4152,-2.4152,-2.4152,-2.4152,-2.4152,-2.4152,-2.4152,-2.4152,-2.4152,-2.4152,-2.4152,-2.4152,-1.673,-1.673,0.0,0.0,0.0,0.0,0.0,0.0,0.0,0.0,0.0,0.0,0.0,0.0,0.0,0.0,0.0,-2.0925,-2.0925,-2.0925,-2.0925,-2.0925,-2.0925,-2.0925,-2.0925,-2.0925,-2.0925,-2.0925,-2.0925,-2.0925,-2.0925,-2.0925,-2.1084,-2.1433,-2.1449,-2.1608,-2.1949,-2.1949,-2.1957,-2.1965,-2.2315,-2.2664,-2.3014,-2.3014,-2.3014,-2.3014,-2.3014,-2.3014,-2.3014,-2.3014,-2.3014,-2.3014,-2.3014,-2.3014,-2.3014,-2.3014,-2.3014,-2.3014,-2.3014,-2.3014,-2.3014,-2.3014,-2.3014,-2.3014,-2.3014,-2.3014,-2.3014,-2.3014,-2.3014,-2.3014,-2.3014,-2.3014,-2.3014,-2.3014,-2.3014,-2.3014,-2.3014,-2.2736,-2.249,-2.249,-2.2204,-2.2068,-2.2256,-2.2806,-2.3194,-2.3291,-2.3845,-2.4161,-2.4152,-2.4152,-2.4152,-2.4152,-2.4152,-2.4152,-2.4152,-2.4152,-2.4152,-2.4152,-2.4152,-2.4152,-2.4152,-2.4152,-2.4152,-2.4152,-2.4152,-2.4152,-2.4152,-2.4152,-2.4152,-2.4152,-2.4152,-2.4152,-1.673,0.0,0.0,0.0,0.0,0.0,0.0,0.0,0.0,0.0,0.0,0.0,0.0,0.0,0.0,-2.0925,-2.0925,-2.0925,-2.0925,-2.0925,-2.0925,-2.0925,-2.0925,-2.0925,-2.0925,-2.0925,-2.0925,-2.0925,-2.0925,-2.0925,-2.0925,-2.0925,-2.0972,-2.1076,-2.1084,-2.1242,-2.16,-2.16,-2.1719,-2.1957,-2.2061,-2.2299,-2.2656,-2.2903,-2.3014,-2.3014,-2.3014,-2.3014,-2.3014,-2.3014,-2.3014,-2.3014,-2.3014,-2.3014,-2.3014,-2.3014,-2.3014,-2.3014,-2.3014,-2.3014,-2.3014,-2.3014,-2.3014,-2.3014,-2.3014,-2.3014,-2.3014,-2.3014,-2.3014,-2.3014,-2.3014,-2.3014,-2.3014,-2.3014,-2.3014,-2.3014,-2.3014,-2.2934,-2.2735,-2.2584,-2.2766,-2.3087,-2.3246,-2.3721,-2.4216,-2.4343,-2.4491,-2.4491,-2.4189,-2.4152,-2.4152,-2.4152,-2.4152,-2.4152,-2.4152,-2.4152,-2.4152,-2.4152,-2.4152,-2.4152,-2.4152,-2.4152,-2.4152,-2.4152,-2.4152,-2.4152,-2.4152,-2.4152,-2.4152,-2.4152,-2.4152,-2.4152,-1.673,0.0,0.0,0.0,0.0,0.0,0.0,0.0,0.0,0.0,0.0,0.0,0.0,0.0,0.0,-2.0925,-2.0925,-2.0925,-2.0925,-2.0925,-2.0925,-2.0925,-2.0925,-2.0925,-2.0925,-2.0925,-2.0925,-2.0925,-2.0925,-2.0925,-2.0925,-2.0925,-2.0925,-2.0925,-2.0925,-2.102,-2.1242,-2.1242,-2.1346,-2.1544,-2.1687,-2.187,-2.2084,-2.2434,-2.2593,-2.2601,-2.2744,-2.2807,-2.2815,-2.2958,-2.3014,-2.3014,-2.3014,-2.3014,-2.3014,-2.3014,-2.3014,-2.3014,-2.3014,-2.3014,-2.3014,-2.3014,-2.3014,-2.3014,-2.3014,-2.3014,-2.3014,-2.3014,-2.3014,-2.3014,-2.3014,-2.3014,-2.3014,-2.3014,-2.3014,-2.3014,-2.3352,-2.3384,-2.3392,-2.3416,-2.3723,-2.393,-2.3965,-2.4438,-2.4738,-2.4769,-2.4783,-2.4684,-2.4436,-2.4262,-2.4152,-2.4152,-2.4152,-2.4152,-2.4152,-2.4152,-2.4152,-2.4152,-2.4152,-2.4152,-2.4152,-2.4152,-2.4152,-2.4152,-2.4152,-2.4152,-2.4152,-2.4152,-2.4152,-2.4152,-2.4152,-2.4152,0.0,0.0,0.0,0.0,0.0,0.0,0.0,0.0,0.0,0.0,0.0,0.0,0.0,0.0,-2.0925,-2.0925,-2.0925,-2.0925,-2.0925,-2.0925,-2.0925,-2.0925,-2.0925,-2.0925,-2.0925,-2.0925,-2.0925,-2.0925,-2.0925,-2.0925,-2.0925,-2.0925,-2.0925,-2.0925,-2.0925,-2.0925,-2.0925,-2.0925,-2.0925,-2.0925,-2.125,-2.1401,-2.1417,-2.1791,-2.1957,-2.1973,-2.2299,-2.2434,-2.2466,-2.2784,-2.2919,-2.2919,-2.295,-2.2966,-2.2974,-2.3006,-2.3014,-2.3014,-2.3014,-2.3014,-2.3014,-2.3014,-2.3014,-2.3014,-2.3014,-2.3014,-2.3014,-2.3014,-2.3014,-2.3014,-2.3014,-2.3127,-2.3127,-2.3127,-2.3127,-2.3239,-2.3809,-2.3995,-2.4132,-2.4693,-2.4838,-2.477,-2.4485,-2.4849,-2.5139,-2.4747,-2.4778,-2.4821,-2.4785,-2.4445,-2.4198,-2.4161,-2.4152,-2.4152,-2.4152,-2.4152,-2.4152,-2.4152,-2.4152,-2.4152,-2.4152,-2.4152,-2.4152,-2.4152,-2.4152,-2.4152,-2.4152,-2.4152,-2.4152,-2.4152,-2.4152,-2.4152,0.0,0.0,0.0,0.0,0.0,0.0,0.0,0.0,0.0,0.0,0.0,0.0,0.0,0.0,-2.0925,-2.0925,-2.0925,-2.0925,-2.0925,-2.0925,-2.0925,-2.0925,-2.0925,-2.0925,-2.0925,-2.0925,-2.0925,-2.0925,-2.0925,-2.0925,-2.0925,-2.0925,-2.0925,-2.0925,-2.0925,-2.0925,-2.0925,-2.0925,-2.0925,-2.0925,-2.0996,-2.1036,-2.1052,-2.1679,-2.1957,-2.1965,-2.2037,-2.2077,-2.2077,-2.2156,-2.2188,-2.2212,-2.249,-2.2601,-2.2633,-2.2911,-2.3014,-2.3014,-2.3014,-2.3014,-2.3014,-2.3014,-2.3014,-2.3014,-2.3014,-2.3014,-2.3014,-2.3014,-2.3014,-2.3127,-2.3576,-2.3697,-2.3801,-2.4342,-2.4016,-2.3817,-2.4426,-2.4624,-2.459,-2.4787,-2.5154,-2.5485,-2.5388,-2.5918,-2.61,-2.5788,-2.5491,-2.5133,-2.4821,-2.4702,-2.4519,-2.4189,-2.4152,-2.4152,-2.4152,-2.4152,-2.4152,-2.4152,-2.4152,-2.4152,-2.4152,-2.4152,-2.4152,-2.4152,-2.4152,-2.4152,-2.4152,-2.4152,-2.4152,-2.4152,-2.4152,-2.4152,0.0,0.0,0.0,0.0,0.0,0.0,0.0,0.0,0.0,0.0,0.0,0.0,0.0,-2.0925,-2.0925,-2.0925,-2.0925,-2.0925,-2.0925,-2.0925,-2.0925,-2.0925,-2.0925,-2.0925,-2.0925,-2.0925,-2.0925,-2.0925,-2.0925,-2.0925,-2.0925,-2.0925,-2.0925,-2.0925,-2.0925,-2.0925,-2.0925,-2.0925,-2.0925,-2.0925,-2.0925,-2.0925,-2.0933,-2.1298,-2.1465,-2.1473,-2.164,-2.1711,-2.1727,-2.1886,-2.1957,-2.1973,-2.2164,-2.2235,-2.2275,-2.2633,-2.2768,-2.2784,-2.2958,-2.3014,-2.3014,-2.3014,-2.3014,-2.3014,-2.3352,-2.3464,-2.3464,-2.3464,-2.368,-2.3904,-2.3913,-2.4136,-2.4462,-2.5119,-2.4795,-2.447,-2.5069,-2.5188,-2.529,-2.5586,-2.5925,-2.6154,-2.6154,-2.6373,-2.6518,-2.6298,-2.5913,-2.5509,-2.5115,-2.4904,-2.462,-2.4198,-2.4152,-2.4152,-2.4152,-2.4152,-2.4152,-2.4152,-2.4152,-2.4152,-2.4152,-2.4152,-2.4152,-2.4152,-2.4152,-2.4152,-2.4152,-2.4152,-2.4152,-2.4152,-2.4152,-2.4152,0.0,0.0,0.0,0.0,0.0,0.0,0.0,0.0,0.0,0.0,0.0,0.0,-2.079,-2.0925,-2.0925,-2.0925,-2.0925,-2.0925,-2.0925,-2.0925,-2.0925,-2.0925,-2.0925,-2.0925,-2.0925,-2.0925,-2.0925,-2.0925,-2.0925,-2.0925,-2.0925,-2.0925,-2.0925,-2.0925,-2.0925,-2.0925,-2.0925,-2.0925,-2.0925,-2.0925,-2.0925,-2.0925,-2.0925,-2.0925,-2.0925,-2.0941,-2.1227,-2.1354,-2.1377,-2.1663,-2.1775,-2.1791,-2.1846,-2.187,-2.1918,-2.2267,-2.2394,-2.245,-2.2799,-2.3039,-2.3047,-2.2974,-2.3103,-2.332,-2.364,-2.3888,-2.4153,-2.4153,-2.447,-2.4676,-2.4351,-2.4573,-2.5119,-2.5679,-2.5459,-2.5229,-2.5798,-2.5869,-2.6024,-2.6491,-2.6591,-2.6591,-2.6591,-2.6591,-2.6591,-2.6591,-2.6289,-2.5922,-2.5527,-2.5133,-2.473,-2.4308,-2.4198,-2.4152,-2.4152,-2.4152,-2.4152,-2.4152,-2.4152,-2.4152,-2.4152,-2.4152,-2.4152,-2.4152,-2.4152,-2.4152,-2.4152,-2.4152,-2.4152,-2.4152,-2.4152,-2.4152,0.0,0.0,0.0,0.0,0.0,0.0,0.0,0.0,0.0,0.0,0.0,0.0,-2.079,-2.0925,-2.0925,-2.0925,-2.0925,-2.0925,-2.0925,-2.0925,-2.0925,-2.0925,-2.0925,-2.0925,-2.0925,-2.0925,-2.0925,-2.0925,-2.0925,-2.0925,-2.0925,-2.0925,-2.0925,-2.0925,-2.0925,-2.0925,-2.0925,-2.0925,-2.0925,-2.0925,-2.0925,-2.0925,-2.0925,-2.0925,-2.0925,-2.0925,-2.0972,-2.0996,-2.0996,-2.1044,-2.106,-2.1091,-2.1393,-2.152,-2.156,-2.1902,-2.2029,-2.2077,-2.2434,-2.2892,-2.3263,-2.3039,-2.3454,-2.3883,-2.3316,-2.4122,-2.5223,-2.5223,-2.5051,-2.4898,-2.5348,-2.5578,-2.5688,-2.6364,-2.6473,-2.6364,-2.6473,-2.6482,-2.6491,-2.6591,-2.6591,-2.6591,-2.6591,-2.6591,-2.6591,-2.6591,-2.6536,-2.6353,-2.594,-2.5537,-2.5142,-2.4739,-2.4372,-2.4152,-2.4152,-2.4152,-2.4152,-2.4152,-2.4152,-2.4152,-2.4152,-2.4152,-2.4152,-2.4152,-2.4152,-2.4152,-2.4152,-2.4152,-2.4152,-2.4152,-2.4152,-2.4152,0.0,0.0,0.0,0.0,0.0,0.0,0.0,0.0,0.0,0.0,0.0,-1.9797,-2.0496,-2.079,-2.0925,-2.0925,-2.0925,-2.0925,-2.0925,-2.0925,-2.0925,-2.0925,-2.0925,-2.0925,-2.0925,-2.0925,-2.0925,-2.0925,-2.0925,-2.0925,-2.0925,-2.0925,-2.0925,-2.0925,-2.0925,-2.0925,-2.0925,-2.0925,-2.0925,-2.0925,-2.0925,-2.0925,-2.0917,-2.1224,-2.1224,-2.0925,-2.0925,-2.0925,-2.0925,-2.0925,-2.0925,-2.0941,-2.1091,-2.1155,-2.1195,-2.1544,-2.1884,-2.2282,-2.2844,-2.336,-2.3855,-2.3953,-2.4283,-2.4488,-2.4412,-2.4939,-2.5631,-2.5922,-2.5979,-2.5798,-2.5688,-2.5907,-2.6254,-2.6591,-2.6591,-2.6591,-2.6591,-2.6591,-2.6591,-2.6591,-2.6591,-2.6591,-2.6591,-2.6591,-2.6591,-2.6591,-2.6591,-2.6435,-2.6013,-2.5619,-2.5225,-2.4821,-2.4409,-2.4152,-2.4152,-2.4152,-2.4152,-2.4152,-2.4152,-2.4152,-2.4152,-2.4152,-2.4152,-2.4152,-2.4152,-2.4152,-2.4152,-2.4152,-2.4152,-2.4152,-2.4152,-2.4152,0.0,0.0,0.0,0.0,0.0,0.0,0.0,0.0,0.0,0.0,-1.9248,-1.9526,-2.0035,-2.0496,-2.079,-2.079,-2.0861,-2.1019,-2.1224,-2.1121,-2.1019,-2.1216,-2.1019,-2.0925,-2.0925,-2.0925,-2.0925,-2.0925,-2.0925,-2.0925,-2.0925,-2.0925,-2.0925,-2.0925,-2.0925,-2.0925,-2.0925,-2.0925,-2.0925,-2.0925,-2.0925,-2.1019,-2.1121,-2.1522,-2.1522,-2.1326,-2.1326,-2.1326,-2.1326,-2.1121,-2.1121,-2.1121,-2.0917,-2.1019,-2.1154,-2.1418,-2.1835,-2.2445,-2.3086,-2.3801,-2.4369,-2.4867,-2.5049,-2.534,-2.5652,-2.578,-2.6044,-2.6464,-2.6655,-2.6482,-2.6026,-2.6245,-2.6591,-2.6591,-2.6591,-2.6591,-2.6591,-2.6591,-2.6591,-2.6591,-2.6591,-2.6591,-2.6591,-2.6591,-2.6591,-2.6591,-2.6591,-2.6472,-2.616,-2.5683,-2.5262,-2.4959,-2.4464,-2.4152,-2.4152,-2.4152,-2.4152,-2.4152,-2.4152,-2.4152,-2.4152,-2.4152,-2.4152,-2.4152,-2.4152,-2.4152,-2.4152,-2.4152,-2.4152,-2.4152,-2.4152,-2.4152,0.0,0.0,0.0,0.0,0.0,0.0,0.0,0.0,0.0,0.0,-1.8899,-1.9383,-1.9415,-1.9971,-2.0416,-2.0416,-2.0702,-2.1224,-2.2224,-2.1522,-2.1326,-2.2325,-2.1522,-2.0925,-2.0925,-2.0925,-2.0925,-2.0925,-2.0925,-2.0925,-2.0925,-2.0925,-2.0925,-2.0925,-2.0925,-2.0925,-2.0925,-2.0925,-2.0925,-2.0925,-2.0925,-2.1121,-2.1623,-2.1725,-2.1928,-2.2426,-2.2426,-2.2426,-2.2426,-2.1827,-2.1623,-2.1623,-2.1121,-2.1224,-2.1623,-2.1648,-2.2055,-2.2511,-2.2928,-2.3722,-2.4632,-2.5174,-2.5865,-2.6473,-2.6473,-2.6582,-2.6591,-2.6591,-2.6591,-2.6582,-2.6591,-2.6591,-2.6591,-2.6591,-2.6591,-2.6591,-2.6591,-2.6591,-2.6591,-2.6591,-2.6591,-2.6591,-2.6591,-2.6591,-2.6591,-2.6591,-2.6591,-2.6582,-2.6554,-2.5858,-2.5362,-2.5344,-2.4629,-2.4152,-2.4152,-2.4152,-2.4152,-2.4152,-2.4152,-2.4152,-2.4152,-2.4152,-2.4152,-2.4152,-2.4152,-2.4152,-2.4152,-2.4152,-2.4152,-2.4152,-2.4152,-2.4152,0.0,0.0,0.0,0.0,0.0,0.0,0.0,0.0,0.0,0.0,-1.8502,-1.8756,-1.8978,-1.959,-2.0051,-2.0051,-2.0353,-2.0978,-2.2068,-2.2072,-2.2316,-2.3402,-2.2619,-2.1928,-2.1928,-2.1928,-2.1928,-2.1928,-2.1928,-2.1928,-2.1928,-2.1216,-2.0925,-2.0925,-2.0925,-2.0925,-2.0925,-2.0925,-2.1121,-2.142,-2.142,-2.1725,-2.2224,-2.2526,-2.2828,-2.3029,-2.3438,-2.3138,-2.2526,-2.2325,-2.2224,-2.2224,-2.203,-2.2021,-2.2224,-2.2224,-2.2526,-2.309,-2.3484,-2.4302,-2.5227,-2.5636,-2.6153,-2.6591,-2.6591,-2.6591,-2.6591,-2.6591,-2.6591,-2.6591,-2.6591,-2.6591,-2.6591,-2.6591,-2.6591,-2.6591,-2.6591,-2.6591,-2.6591,-2.6591,-2.6591,-2.6591,-2.6591,-2.6591,-2.6591,-2.6591,-2.6591,-2.649,-2.6224,-2.5711,-2.5271,-2.5014,-2.4491,-2.4152,-2.4152,-2.4152,-2.4152,-2.4152,-2.4152,-2.4152,-2.4152,-2.4152,-2.4152,-2.4152,-2.4152,-2.4152,-2.4152,-2.4152,-2.4152,-2.4152,-2.4152,-2.4152,0.0,0.0,0.0,0.0,0.0,0.0,0.0,0.0,0.0,0.0,-1.8041,-1.8232,-1.8589,-1.9026,-1.9415,-1.9662,-2.0273,-2.1089,-2.2144,-2.2574,-2.3206,-2.4287,-2.3619,-2.302,-2.302,-2.302,-2.302,-2.302,-2.302,0.0,-2.2526,-2.1827,-2.1216,-2.0917,-2.0925,-2.0925,-2.0925,-2.1121,-2.1326,-2.1725,-2.1928,-2.2224,-2.2828,-2.3129,-2.3429,-2.3637,-2.4053,-2.3746,-2.3038,-2.2828,-2.2728,-2.2728,-2.2526,-2.2627,-2.2728,-2.2728,-2.3129,-2.3673,-2.3951,-2.4515,-2.5234,-2.5637,-2.6041,-2.6408,-2.6545,-2.6591,-2.6591,-2.6591,-2.6591,-2.6591,-2.6591,-2.6591,-2.6591,-2.6591,-2.6591,-2.6591,-2.6591,-2.6591,-2.6591,-2.6591,-2.6591,-2.6591,-2.6591,-2.6591,-2.6591,-2.6591,-2.6591,-2.6435,-2.6013,-2.5619,-2.5225,-2.4821,-2.4409,-2.4152,-2.4152,-2.4152,-2.4152,-2.4152,-2.4152,-2.4152,-2.4152,-2.4152,-2.4152,-2.4152,-2.4152,-2.4152,-2.4152,-2.4152,-2.4152,-2.4152,-2.4152,-2.4152,0.0,0.0,0.0,0.0,0.0,0.0,0.0,0.0,0.0,-1.7355,-1.7533,-1.7866,-1.8216,-1.8279,-1.8518,-1.9225,-2.0475,-2.1648,-2.2765,-2.3208,-2.3849,-2.4925,-2.4503,-2.4159,-2.4168,-2.4168,-2.4177,-2.4187,-2.4187,-2.3701,-2.2627,-2.2526,-2.203,-2.0917,-2.0925,-2.0925,-2.0925,-2.142,-2.1725,-2.1725,-2.2224,-2.2828,-2.3329,-2.3329,-2.3637,-2.4152,-2.4152,-2.4152,-2.4152,-2.3538,-2.3329,-2.3229,-2.2728,-2.2828,-2.3329,-2.3329,-2.3737,-2.4152,-2.4152,-2.4427,-2.4849,-2.5243,-2.5637,-2.6041,-2.6463,-2.6591,-2.6591,-2.6591,-2.6591,-2.6591,-2.6591,-2.6591,-2.6591,-2.6591,-2.6591,-2.6591,-2.6591,-2.6591,-2.6591,-2.6591,-2.6591,-2.6591,-2.6591,-2.6591,-2.6591,-2.6591,-2.6582,-2.6417,-2.5995,-2.5592,-2.5197,-2.4803,-2.44,-2.4152,-2.4152,-2.4152,-2.4152,-2.4152,-2.4152,-2.4152,-2.4152,-2.4152,-2.4152,-2.4152,-2.4152,-2.4152,-2.4152,-2.4152,-2.4152,-2.4152,-2.4152,-2.4152,-1.9301,0.0,0.0,0.0,0.0,0.0,0.0,0.0,0.0,-1.7307,-1.735,-1.7517,-1.7858,-1.7914,-1.8065,-1.8526,-1.9919,-2.1351,-2.2373,-2.3456,-2.4468,-2.5503,-2.4864,-2.4392,-2.4699,-2.4737,-2.4861,0.0,-2.5294,-2.4796,-2.3701,-2.2215,-2.1224,-2.0925,-2.0925,-2.1121,-2.142,-2.1623,-2.2131,-2.2828,-2.3029,-2.3438,-2.3945,-2.3945,-2.4044,-2.4152,-2.4152,-2.4152,-2.4152,-2.4044,-2.3945,-2.3945,-2.3746,-2.3845,-2.3945,-2.3945,-2.4044,-2.4152,-2.4152,-2.4427,-2.4849,-2.5243,-2.5637,-2.6041,-2.6463,-2.6591,-2.6591,-2.6591,-2.6591,-2.6591,-2.6591,-2.6591,-2.6591,-2.6591,-2.6591,-2.6591,-2.6591,-2.6591,-2.6591,-2.6591,-2.6591,-2.6591,-2.6591,-2.6591,-2.6591,-2.6591,-2.6325,-2.5986,-2.5582,-2.5188,-2.4785,-2.4372,-2.4225,-2.4152,-2.4152,-2.4152,-2.4152,-2.4152,-2.4152,-2.4152,-2.4152,-2.4152,-2.4152,-2.4152,-2.4152,-2.4152,-2.4152,-2.4152,-2.4152,-2.4152,-2.4152,-2.4152,0.0,0.0,0.0,0.0,0.0,0.0,-1.7951,-1.7635,-1.7539,0.0,-1.7048,-1.7159,-1.7501,-1.7892,-1.8091,-1.8105,-1.9698,-2.113,-2.2025,-2.3214,-2.4495,-2.5516,-2.5209,-2.5045,-2.5315,-2.5345,-2.5618,-2.6069,-2.6099,-2.5488,-2.4177,-2.2509,-2.1326,-2.0917,-2.0925,-2.1121,-2.1725,-2.1928,-2.2426,-2.3329,-2.3538,-2.3845,-2.4152,-2.4152,-2.4152,-2.4152,-2.4152,-2.4152,-2.4152,-2.4152,-2.4152,-2.4152,-2.4152,-2.4152,-2.4152,-2.4152,-2.4152,-2.4152,-2.4152,-2.4317,-2.4592,-2.4996,-2.539,-2.5793,-2.6197,-2.6444,-2.6591,-2.6591,-2.6591,-2.6591,-2.6591,-2.6591,-2.6591,-2.6591,-2.6591,-2.6591,-2.6591,-2.6591,-2.6591,-2.6591,-2.6591,-2.6591,-2.6591,-2.6444,-2.6325,-2.6325,-2.5977,-2.5564,-2.5179,-2.4931,-2.462,-2.4198,-2.4152,-2.4152,-2.4152,-2.4152,-2.4152,-2.4152,-2.4152,-2.4152,-2.4152,-2.4152,-2.4152,-2.4152,-2.4152,-2.4152,-2.4152,-2.4152,-2.4152,-2.4152,-2.4152,-2.4152,0.0,0.0,0.0,0.0,0.0,0.0,-1.8282,-1.8112,-1.7951,-1.7057,-1.6894,-1.7072,-1.7327,-1.8104,-1.8547,-1.8075,-1.96,-2.1108,-2.1566,-2.2866,-2.4039,-2.4975,-2.5492,-2.5751,-2.5802,-2.5802,-2.5999,-2.6455,-2.6445,-2.57,-2.4168,-2.3111,-2.2021,-2.1121,-2.1019,-2.1326,-2.1928,-2.2426,-2.2828,-2.3429,-2.3945,-2.4152,-2.4152,-2.4152,-2.4152,-2.4152,-2.4152,-2.4152,-2.4152,-2.4152,-2.4152,-2.4152,-2.4152,-2.4152,-2.4152,-2.4152,-2.4152,-2.4152,-2.4152,-2.4152,-2.4225,-2.4647,-2.5014,-2.539,-2.5821,-2.6224,-2.6527,-2.6573,-2.6591,-2.6591,-2.6591,-2.6591,-2.6591,-2.6591,-2.6591,-2.6591,-2.6591,-2.6554,-2.6518,-2.6518,-2.6518,-2.6518,-2.6518,-2.6169,-2.5894,-2.5894,-2.5555,-2.5179,-2.4831,-2.4739,-2.4565,-2.4198,-2.4152,-2.4152,-2.4152,-2.4152,-2.4152,-2.4152,-2.4152,-2.4152,-2.4152,-2.4152,-2.4152,-2.4152,-2.4152,-2.4152,-2.4152,-2.4152,-2.4152,-2.4152,-2.4152,-2.4152,0.0,0.0,0.0,0.0,0.0,0.0,-1.8772,-1.8913,-1.8975,0.0,-1.8175,-1.8434,-1.7972,-1.8843,-1.9522,-1.9194,-1.9806,-2.0514,-2.1185,-2.2427,-2.3583,-2.4502,-2.4747,-2.4943,-2.5326,-2.5357,-2.5544,-2.5978,-2.5601,-2.4928,-2.4168,-2.3111,-2.2426,-2.2224,-2.1725,-2.2224,-2.3628,-2.3329,-2.3429,-2.4053,-2.4152,-2.4152,-2.4152,-2.4152,-2.4152,-2.4152,-2.4152,-2.4152,-2.4152,-2.4152,-2.4152,-2.4152,-2.4152,-2.4152,-2.4152,-2.4152,-2.4152,-2.4152,-2.4152,-2.4152,-2.4225,-2.4647,-2.4831,-2.5032,-2.5748,-2.6013,-2.6151,-2.649,-2.6591,-2.6591,-2.6591,-2.6591,-2.6591,-2.6591,-2.6591,-2.6591,-2.6591,-2.6325,-2.6078,-2.6078,-2.6078,-2.6078,-2.6078,-2.5748,-2.5482,-2.5482,-2.5152,-2.4867,-2.4794,-2.4482,-2.4244,-2.4161,-2.4152,-2.4152,-2.4152,-2.4152,-2.4152,-2.4152,-2.4152,-2.4152,-2.4152,-2.4152,-2.4152,-2.4152,-2.4152,-2.4152,-2.4152,-2.4152,-2.4152,-2.4152,-2.4152,-2.4152,0.0,0.0,0.0,-1.9301,0.0,0.0,0.0,-1.8922,-1.8993,-1.8585,-1.8807,-1.8966,-1.8966,-1.9825,-2.0352,-1.978,-2.0306,-2.0914,-2.1418,-2.201,-2.2889,-2.4093,-2.4209,-2.4385,-2.484,-2.4892,-2.5068,-2.5691,-2.5685,-2.5371,-2.4736,-2.3697,-2.3305,-2.3502,-2.271,-2.2911,-2.4313,-2.4007,-2.4026,-2.4152,-2.4152,-2.4152,-2.4152,-2.4152,-2.4152,-2.4152,-2.4152,-2.4152,-2.4152,-2.4152,-2.4152,-2.4152,-2.4152,-2.4152,-2.4152,-2.4152,-2.4152,-2.4152,-2.4152,-2.4152,-2.4189,-2.44,-2.4611,-2.4858,-2.5252,-2.5789,-2.6389,-2.6495,-2.6571,-2.6591,-2.6591,-2.6435,-2.627,-2.627,-2.6123,-2.5977,-2.5977,-2.5812,-2.5665,-2.5665,-2.5509,-2.5436,-2.5637,-2.5335,-2.5078,-2.5078,-2.473,-2.4464,-2.4464,-2.428,-2.4152,-2.4152,-2.4152,-2.4152,-2.4152,-2.4152,-2.4152,-2.4152,-2.4152,-2.4152,-2.4152,-2.4152,-2.4152,-2.4152,-2.4152,-2.4152,-2.4152,-2.4152,-2.4152,-2.4152,-2.4152,-2.4152,0.0,0.0,0.0,0.0,0.0,-1.9381,0.0,0.0,0.0,-1.9204,-1.9195,0.0,0.0,0.0,0.0,0.0,0.0,0.0,0.0,-2.185,0.0,-2.3753,-2.3826,-2.3919,-2.4374,-2.4488,-2.4812,-2.5522,-2.5899,-2.5846,-2.5248,-2.4497,-2.4315,-2.4752,-2.3845,-2.3791,-2.4786,-2.4698,-2.451,-2.4152,-2.4152,-2.4152,-2.4152,-2.4152,-2.4152,-2.4152,-2.4152,-2.4152,-2.4152,-2.4152,-2.4152,-2.4152,-2.4152,-2.4152,-2.4152,-2.4152,-2.4152,-2.4152,-2.4152,-2.4152,-2.4152,-2.4152,-2.4436,-2.4785,-2.4785,-2.5533,-2.6259,-2.6374,-2.6356,-2.6344,-2.6353,-2.6105,-2.5848,-2.5848,-2.5601,-2.5372,-2.5372,-2.5307,-2.5262,-2.5262,-2.4931,-2.4785,-2.5188,-2.4931,-2.4656,-2.4656,-2.4372,-2.4152,-2.4152,-2.4152,-2.4152,-2.4152,-2.4152,-2.4152,-2.4152,-2.4152,-2.4152,-2.4152,-2.4152,-2.4152,-2.4152,-2.4152,-2.4152,-2.4152,-2.4152,-2.4152,-2.4152,-2.4152,-2.4152,-2.4152,-2.4152,-2.4152,0.0,0.0,0.0,0.0,-1.9696,0.0,0.0,0.0,-2.001,-2.0079,0.0,0.0,0.0,0.0,0.0,0.0,0.0,0.0,-2.2049,-2.2179,-2.2661,-2.3716,-2.351,-2.3524,-2.4158,-2.4397,-2.4812,-2.5522,-2.5606,-2.5461,-2.5057,-2.5095,-2.5228,-2.555,-2.517,-2.5294,-2.5897,-2.5489,-2.4913,-2.4152,-2.4152,-2.4152,-2.4152,-2.4152,-2.4152,-2.4152,-2.4152,-2.4152,-2.4152,-2.4152,-2.4152,-2.4152,-2.4152,-2.4152,-2.4152,-2.4152,-2.4152,-2.4152,-2.4152,-2.4152,-2.4152,-2.4152,-2.4436,-2.4785,-2.4785,-2.4957,-2.5277,-2.5436,-2.534,-2.5236,-2.5491,-2.5472,-2.5436,-2.5436,-2.5399,-2.5372,-2.5372,-2.5096,-2.4849,-2.4849,-2.451,-2.4363,-2.4776,-2.45,-2.4225,-2.4225,-2.4189,-2.4152,-2.4152,-2.4152,-2.4152,-2.4152,-2.4152,-2.4152,-2.4152,-2.4152,-2.4152,-2.4152,-2.4152,-2.4152,-2.4152,-2.4152,-2.4152,-2.4152,-2.4152,-2.4152,-2.4152,-2.4152,-2.4152,-2.4152,-2.4152,-2.4152,0.0,0.0,0.0,0.0,0.0,0.0,-1.9002,0.0,-1.9766,0.0,0.0,0.0,0.0,0.0,0.0,0.0,-2.2573,0.0,0.0,0.0,-2.2658,0.0,0.0,0.0,-2.4136,-2.4294,-2.4587,-2.5295,-2.5509,-2.5614,-2.5696,-2.5167,-2.5503,-2.6794,-2.6151,-2.5909,-2.637,-2.6071,-2.5401,-2.4152,-2.4152,-2.4152,-2.4152,-2.4152,-2.4152,-2.4152,-2.4152,-2.4152,-2.4152,-2.4152,-2.4152,-2.4152,-2.4152,-2.4152,-2.4152,-2.4152,-2.4152,-2.4152,-2.4152,-2.4152,-2.4152,-2.4152,-2.4271,-2.4418,-2.4418,-2.4684,-2.4884,-2.4754,-2.4927,-2.5231,-2.5222,-2.5067,-2.5032,-2.5032,-2.484,-2.4666,-2.4666,-2.4537,-2.4418,-2.4418,-2.4271,-2.4207,-2.439,-2.4271,-2.4152,-2.4152,-2.4152,-2.4152,-2.4152,-2.4152,-2.4152,-2.4152,-2.4152,-2.4152,-2.4152,-2.4152,-2.4152,-2.4152,-2.4152,-2.4152,-2.4152,-2.4152,-2.4152,-2.4152,-2.4152,-2.4152,-2.4152,-2.4152,-2.4152,-2.4152,-2.4152,-2.4152,-1.8033,0.0,0.0,0.0,0.0,0.0,0.0,0.0,0.0,0.0,0.0,0.0,0.0,0.0,0.0,0.0,0.0,-2.2809,0.0,-2.2702,0.0,0.0,0.0,0.0,0.0,-2.4019,-2.4365,-2.505,-2.526,-2.5559,-2.613,-2.5438,-2.5779,-2.7547,-2.666,-2.6276,-2.6542,-2.6264,-2.5499,-2.4152,-2.4152,-2.4152,-2.4152,-2.4152,-2.4152,-2.4152,-2.4152,-2.4152,-2.4152,-2.4152,-2.4152,-2.4152,-2.4152,-2.4152,-2.4152,-2.4152,-2.4152,-2.4152,-2.4152,-2.4152,-2.4152,-2.4152,-2.4152,-2.4152,-2.4152,-2.4363,-2.4592,-2.4326,-2.4665,-2.5032,-2.4781,-2.4692,-2.4611,-2.4611,-2.4372,-2.4152,-2.4152,-2.4152,-2.4152,-2.4152,-2.4152,-2.4152,-2.4152,-2.4152,-2.4152,-2.4152,-2.4152,-2.4152,-2.4152,-2.4152,-2.4152,-2.4152,-2.4152,-2.4152,-2.4152,-2.4152,-2.4152,-2.4152,-2.4152,-2.4152,-2.4152,-2.4152,-2.4152,-2.4152,-2.4152,-2.4152,-2.4152,-2.4152,-2.4152,-2.4152,-2.4152,-2.4152,0.0,0.0,0.0,-1.899,0.0,0.0,0.0,0.0,-1.946,0.0,0.0,0.0,0.0,0.0,0.0,0.0,0.0,0.0,0.0,0.0,0.0,0.0,0.0,0.0,0.0,-2.3573,-2.4111,0.0,-2.4837,-2.5135,-2.5895,-2.6098,-2.6476,-2.7315,-2.6778,-2.6474,-2.6542,-2.5781,-2.4913,-2.4152,-2.4152,-2.4152,-2.4152,-2.4152,-2.4152,-2.4152,-2.4152,-2.4152,-2.4152,-2.4152,-2.4152,-2.4152,-2.4152,-2.4152,-2.4152,-2.4152,-2.4152,-2.4152,-2.4152,-2.4152,-2.4152,-2.4152,-2.4152,-2.4152,-2.4152,-2.4161,-2.417,-2.417,-2.418,-2.4189,-2.4189,-2.418,-2.417,-2.417,-2.4161,-2.4152,-2.4152,-2.4152,-2.4152,-2.4152,-2.4152,-2.4152,-2.4152,-2.4152,-2.4152,-2.4152,-2.4152,-2.4152,-2.4152,-2.4152,-2.4152,-2.4152,-2.4152,-2.4152,-2.4152,-2.4152,-2.4152,-2.4152,-2.4152,-2.4152,-2.4152,-2.4152,-2.4152,-2.4152,-2.4152,-2.4152,-2.4152,-2.4152,-2.4152,-2.4152,-2.4152,-2.4152,0.0,0.0,-1.7196,-1.7494,0.0,0.0,0.0,0.0,0.0,0.0,0.0,0.0,0.0,0.0,0.0,0.0,0.0,0.0,0.0,0.0,0.0,0.0,0.0,0.0,0.0,0.0,0.0,0.0,-2.499,-2.53,-2.5874,-2.5964,-2.6012,-2.6126,-2.6225,-2.6228,-2.6118,-2.5537,-2.5197,-2.4913,-2.444,-2.4152,-2.4152,-2.4152,-2.4152,-2.4152,-2.4152,-2.4152,-2.4152,-2.4152,-2.4152,-2.4152,-2.4152,-2.4152,-2.4152,-2.4152,-2.4152,-2.4152,-2.4152,-2.4152,-2.4152,-2.4152,-2.4152,-2.4152,-2.4152,-2.4152,-2.4152,-2.4152,-2.4152,-2.4152,-2.4152,-2.4152,-2.4152,-2.4152,-2.4152,-2.4152,-2.4152,-2.4152,-2.4152,-2.4152,-2.4152,-2.4152,-2.4152,-2.4152,-2.4152,-2.4152,-2.4152,-2.4152,-2.4152,-2.4152,-2.4152,-2.4152,-2.4152,-2.4152,-2.4152,-2.4152,-2.4152,-2.4152,-2.4152,-2.4152,-2.4152,-2.4152,-2.4152,-2.4152,-2.4152,-2.4152,-2.4152,-2.4152,-2.4152,-2.426,-2.4436,-2.4565,-1.5765,-1.6075,0.0,-1.6608,-1.6727,0.0,-1.838,0.0,-1.8473,0.0,0.0,0.0,0.0,0.0,0.0,0.0,0.0,0.0,0.0,-2.3001,0.0,0.0,0.0,0.0,0.0,0.0,-2.3567,-2.4335,-2.4734,-2.5142,-2.5622,-2.5808,-2.5955,-2.5989,-2.5816,-2.5808,-2.5802,-2.5189,-2.4913,-2.4913,-2.444,-2.4152,-2.4152,-2.4152,-2.4152,-2.4152,-2.4152,-2.4152,-2.4152,-2.4152,-2.4152,-2.4152,-2.4152,-2.4152,-2.4152,-2.4152,-2.4152,-2.4152,-2.4152,-2.4152,-2.4152,-2.4152,-2.4152,-2.4152,-2.4152,-2.4152,-2.4216,-2.45,-2.4372,-2.4225,-2.451,-2.4372,-2.4152,-2.4152,-2.4152,-2.4152,-2.4152,-2.4152,-2.4152,-2.4152,-2.4152,-2.4152,-2.4152,-2.4152,-2.4152,-2.4152,-2.4152,-2.4152,-2.4152,-2.4152,-2.4152,-2.4152,-2.4152,-2.4152,-2.4152,-2.4152,-2.4152,-2.4152,-2.4152,-2.4152,-2.4152,-2.4152,-2.4152,-2.4152,-2.4152,-2.4152,-2.4152,-2.4308,-2.4381,-2.439,-2.4803,-2.5069]},{"header":{"parameterUnit":"m.s-1","parameterCategory":1,"la1":30.6,"la2":29.2853,"lo1":-89.7004,"lo2":-87.6739,"dy":0.0162,"dx":0.0183,"nx":112,"ny":82,"refTime":"2023-05-12T12:00:00:Z","depth":0,"parameterNumber":3,"parameterNumberName":"V-component_of_WINDS"},"data":[0.0,0.0,0.0,0.0,0.0,0.0,0.0,0.0,0.0,0.0,0.0,0.0,0.0,0.0,0.0,0.0,0.0,0.0,0.0,0.0,0.0,0.0,0.0,0.0,0.0,0.0,0.0,0.0,0.0,0.0,0.0,0.0,0.0,0.0,0.0,0.0,0.0,0.0,0.0,0.0,0.0,0.0,0.0,0.0,0.0,0.0,0.0,0.0,0.0,0.0,0.0,0.0,0.0,0.0,0.0,0.0,0.0,0.0,0.0,0.0,0.0,0.0,0.0,0.0,0.0,0.0,0.0,0.0,0.0,0.0,0.0,0.0,0.0,0.0,0.0,0.0,0.0,0.0,0.0,0.0,0.0,0.0,0.0,0.0,0.0,0.0,0.0,0.0,0.0,0.0,-3.4945,-3.502,-3.5129,-3.5229,-3.5288,-3.5451,-3.5543,-3.5463,0.0,0.0,0.0,0.0,0.0,0.0,0.0,0.0,0.0,0.0,0.0,0.0,0.0,0.0,0.0,0.0,0.0,0.0,0.0,0.0,0.0,0.0,0.0,0.0,0.0,0.0,0.0,0.0,0.0,0.0,0.0,0.0,0.0,0.0,0.0,0.0,0.0,0.0,0.0,0.0,0.0,0.0,0.0,0.0,0.0,0.0,0.0,0.0,0.0,0.0,0.0,0.0,0.0,0.0,0.0,0.0,0.0,0.0,0.0,0.0,0.0,0.0,0.0,0.0,0.0,0.0,0.0,0.0,0.0,0.0,0.0,0.0,0.0,0.0,0.0,0.0,0.0,0.0,0.0,0.0,0.0,0.0,0.0,0.0,0.0,0.0,0.0,0.0,0.0,0.0,0.0,0.0,0.0,0.0,0.0,0.0,0.0,0.0,0.0,0.0,0.0,0.0,0.0,0.0,-3.502,-3.5147,-3.52,-3.5215,-3.5207,-3.5355,-3.5383,-3.5261,0.0,0.0,0.0,0.0,0.0,0.0,0.0,0.0,0.0,0.0,0.0,0.0,0.0,0.0,0.0,0.0,0.0,0.0,0.0,0.0,0.0,0.0,0.0,0.0,0.0,0.0,0.0,0.0,0.0,0.0,0.0,0.0,0.0,0.0,0.0,0.0,0.0,0.0,0.0,0.0,0.0,0.0,0.0,0.0,0.0,0.0,0.0,0.0,0.0,0.0,0.0,0.0,0.0,0.0,0.0,0.0,0.0,0.0,0.0,0.0,0.0,0.0,0.0,0.0,0.0,0.0,0.0,0.0,0.0,0.0,0.0,0.0,0.0,0.0,0.0,0.0,0.0,0.0,0.0,0.0,0.0,0.0,0.0,0.0,0.0,0.0,0.0,0.0,0.0,0.0,0.0,0.0,0.0,0.0,0.0,0.0,0.0,0.0,0.0,0.0,0.0,0.0,0.0,-3.5038,-3.5162,-3.5235,-3.5285,-3.5315,-3.5311,-3.5432,-3.5432,-3.5266,-3.5554,0.0,0.0,0.0,0.0,0.0,0.0,0.0,0.0,0.0,0.0,0.0,0.0,0.0,0.0,0.0,0.0,0.0,0.0,0.0,0.0,0.0,0.0,0.0,0.0,0.0,0.0,0.0,0.0,0.0,0.0,0.0,0.0,0.0,0.0,0.0,0.0,0.0,0.0,0.0,0.0,0.0,0.0,0.0,0.0,0.0,0.0,0.0,0.0,0.0,0.0,0.0,0.0,0.0,0.0,0.0,0.0,0.0,0.0,0.0,0.0,0.0,0.0,0.0,0.0,0.0,0.0,0.0,0.0,0.0,0.0,0.0,0.0,0.0,0.0,0.0,0.0,0.0,0.0,0.0,0.0,0.0,0.0,0.0,0.0,0.0,0.0,0.0,0.0,0.0,0.0,0.0,0.0,0.0,0.0,0.0,0.0,0.0,0.0,0.0,0.0,0.0,0.0,-3.511,-3.5209,-3.5316,-3.5359,-3.5418,-3.5445,-3.5531,-3.5543,-3.5366,-3.55,0.0,0.0,0.0,0.0,0.0,0.0,0.0,0.0,0.0,0.0,0.0,0.0,0.0,0.0,0.0,0.0,0.0,0.0,0.0,0.0,0.0,0.0,0.0,0.0,0.0,0.0,0.0,0.0,0.0,0.0,0.0,0.0,0.0,0.0,0.0,0.0,0.0,0.0,0.0,0.0,0.0,0.0,0.0,0.0,0.0,0.0,0.0,0.0,0.0,0.0,0.0,0.0,0.0,0.0,0.0,0.0,0.0,0.0,0.0,0.0,0.0,0.0,0.0,0.0,0.0,0.0,0.0,0.0,0.0,0.0,0.0,0.0,0.0,0.0,0.0,0.0,0.0,0.0,0.0,0.0,0.0,0.0,0.0,0.0,0.0,0.0,0.0,0.0,0.0,0.0,0.0,0.0,0.0,0.0,0.0,0.0,0.0,0.0,0.0,0.0,0.0,0.0,-3.5092,-3.5176,-3.5378,-3.5391,-3.5445,-3.5585,-3.5588,-3.5577,-3.5492,-3.5566,0.0,0.0,0.0,0.0,0.0,0.0,0.0,0.0,0.0,0.0,0.0,0.0,0.0,0.0,0.0,0.0,0.0,0.0,0.0,0.0,0.0,0.0,0.0,0.0,0.0,0.0,0.0,0.0,0.0,0.0,0.0,0.0,0.0,0.0,0.0,0.0,0.0,0.0,0.0,0.0,0.0,0.0,0.0,0.0,0.0,0.0,0.0,0.0,0.0,0.0,0.0,0.0,0.0,0.0,0.0,0.0,0.0,0.0,0.0,0.0,0.0,0.0,0.0,0.0,0.0,0.0,0.0,0.0,0.0,0.0,0.0,0.0,0.0,0.0,0.0,0.0,0.0,0.0,0.0,0.0,0.0,0.0,0.0,0.0,0.0,0.0,0.0,0.0,0.0,0.0,0.0,0.0,0.0,0.0,0.0,0.0,0.0,0.0,0.0,0.0,0.0,0.0,-3.6706,-3.6791,0.0,-3.7032,-3.7107,-3.7143,-3.7249,-3.7269,-3.7259,0.0,0.0,0.0,0.0,0.0,0.0,0.0,0.0,0.0,0.0,0.0,0.0,0.0,0.0,0.0,0.0,0.0,0.0,0.0,0.0,0.0,0.0,0.0,0.0,0.0,0.0,0.0,0.0,0.0,0.0,0.0,0.0,0.0,0.0,0.0,0.0,0.0,0.0,0.0,0.0,0.0,0.0,0.0,0.0,0.0,0.0,0.0,0.0,0.0,0.0,0.0,0.0,0.0,0.0,0.0,0.0,0.0,0.0,0.0,0.0,0.0,0.0,0.0,0.0,0.0,0.0,0.0,0.0,0.0,0.0,0.0,0.0,0.0,0.0,0.0,0.0,0.0,0.0,0.0,0.0,0.0,0.0,0.0,0.0,0.0,0.0,0.0,0.0,0.0,0.0,0.0,0.0,0.0,0.0,0.0,0.0,0.0,0.0,0.0,0.0,0.0,0.0,-3.7603,-3.7696,-3.7745,0.0,-3.8016,-3.8114,-3.8167,-3.8296,-3.8346,-3.8294,0.0,0.0,0.0,0.0,0.0,0.0,0.0,0.0,0.0,0.0,0.0,0.0,0.0,0.0,0.0,0.0,0.0,0.0,0.0,0.0,0.0,0.0,0.0,0.0,0.0,0.0,0.0,0.0,0.0,0.0,0.0,0.0,0.0,0.0,0.0,0.0,0.0,0.0,0.0,0.0,0.0,0.0,0.0,0.0,0.0,0.0,0.0,0.0,0.0,0.0,0.0,0.0,0.0,0.0,0.0,0.0,0.0,0.0,0.0,0.0,0.0,0.0,0.0,0.0,0.0,0.0,0.0,0.0,0.0,0.0,0.0,0.0,0.0,0.0,0.0,0.0,0.0,0.0,0.0,0.0,0.0,0.0,0.0,0.0,0.0,0.0,0.0,0.0,0.0,0.0,0.0,0.0,0.0,0.0,0.0,0.0,0.0,0.0,0.0,0.0,0.0,0.0,-3.7698,-3.7735,-3.7768,-3.792,-3.8054,-3.8186,-3.8325,-3.8454,-3.8468,0.0,0.0,0.0,0.0,0.0,0.0,0.0,0.0,0.0,0.0,0.0,0.0,0.0,0.0,0.0,0.0,0.0,0.0,0.0,0.0,0.0,0.0,0.0,0.0,0.0,0.0,0.0,0.0,0.0,0.0,0.0,0.0,0.0,0.0,0.0,0.0,0.0,0.0,0.0,0.0,0.0,0.0,0.0,0.0,0.0,0.0,0.0,0.0,0.0,0.0,0.0,0.0,0.0,0.0,0.0,0.0,0.0,0.0,0.0,0.0,0.0,0.0,0.0,0.0,0.0,0.0,0.0,0.0,0.0,0.0,0.0,0.0,0.0,0.0,0.0,0.0,0.0,0.0,0.0,0.0,0.0,0.0,0.0,0.0,0.0,0.0,0.0,0.0,0.0,0.0,0.0,0.0,0.0,0.0,0.0,0.0,0.0,0.0,0.0,0.0,0.0,0.0,0.0,-3.9569,-3.9679,-3.9723,-3.9863,-3.9915,-3.9952,-3.9987,-4.002,-4.0031,-3.9998,0.0,0.0,0.0,0.0,0.0,0.0,0.0,0.0,0.0,0.0,0.0,0.0,0.0,0.0,0.0,0.0,0.0,0.0,0.0,0.0,0.0,0.0,0.0,0.0,0.0,0.0,0.0,0.0,0.0,0.0,0.0,0.0,0.0,0.0,0.0,0.0,0.0,0.0,0.0,0.0,0.0,0.0,0.0,0.0,0.0,0.0,0.0,0.0,0.0,0.0,0.0,0.0,0.0,0.0,0.0,0.0,0.0,0.0,0.0,0.0,0.0,0.0,0.0,0.0,0.0,0.0,0.0,0.0,0.0,0.0,0.0,0.0,0.0,0.0,0.0,0.0,0.0,0.0,0.0,0.0,0.0,0.0,0.0,0.0,0.0,0.0,0.0,0.0,0.0,0.0,0.0,0.0,0.0,0.0,0.0,0.0,0.0,0.0,0.0,0.0,0.0,0.0,-4.0431,-4.0549,-4.0602,-4.0694,-4.0742,-4.0776,-4.0776,-4.0828,-4.0828,-4.0742,0.0,0.0,0.0,0.0,0.0,0.0,0.0,0.0,0.0,0.0,0.0,0.0,0.0,0.0,0.0,0.0,0.0,0.0,0.0,0.0,0.0,0.0,0.0,0.0,0.0,0.0,0.0,0.0,0.0,0.0,0.0,0.0,0.0,0.0,0.0,0.0,0.0,0.0,0.0,0.0,0.0,0.0,0.0,0.0,0.0,0.0,0.0,0.0,0.0,0.0,0.0,0.0,0.0,0.0,0.0,0.0,0.0,0.0,0.0,0.0,0.0,0.0,0.0,0.0,0.0,0.0,0.0,0.0,0.0,0.0,0.0,0.0,0.0,0.0,0.0,0.0,0.0,0.0,0.0,0.0,0.0,0.0,0.0,0.0,0.0,0.0,0.0,0.0,0.0,0.0,0.0,0.0,0.0,0.0,0.0,0.0,0.0,0.0,0.0,0.0,0.0,0.0,-4.0534,-4.0629,-4.0718,-4.073,-4.0839,-4.0907,-4.0907,-4.0988,-4.098,-4.0784,0.0,0.0,0.0,0.0,0.0,0.0,0.0,0.0,0.0,0.0,0.0,0.0,0.0,0.0,0.0,0.0,0.0,0.0,0.0,0.0,0.0,0.0,0.0,0.0,0.0,0.0,0.0,0.0,0.0,0.0,0.0,0.0,0.0,0.0,0.0,0.0,0.0,0.0,0.0,0.0,0.0,0.0,0.0,0.0,0.0,0.0,0.0,0.0,0.0,0.0,0.0,0.0,0.0,0.0,0.0,0.0,0.0,0.0,0.0,0.0,-3.8304,0.0,0.0,0.0,0.0,0.0,0.0,0.0,0.0,0.0,0.0,0.0,0.0,0.0,0.0,0.0,0.0,0.0,0.0,0.0,0.0,0.0,0.0,0.0,0.0,0.0,0.0,0.0,0.0,0.0,0.0,0.0,0.0,0.0,0.0,0.0,0.0,0.0,0.0,0.0,0.0,0.0,-4.0642,-4.0765,-4.0907,-4.0996,-4.0963,-4.0907,-4.0907,-4.0776,-4.0642,-4.0496,-4.0466,0.0,0.0,0.0,0.0,0.0,0.0,0.0,0.0,0.0,0.0,0.0,0.0,0.0,0.0,0.0,0.0,0.0,0.0,0.0,0.0,0.0,0.0,0.0,0.0,0.0,0.0,0.0,0.0,0.0,0.0,0.0,0.0,0.0,0.0,0.0,0.0,0.0,0.0,0.0,0.0,0.0,0.0,0.0,0.0,0.0,0.0,0.0,0.0,0.0,0.0,0.0,0.0,0.0,0.0,0.0,0.0,0.0,0.0,0.0,0.0,-3.8954,0.0,0.0,0.0,0.0,0.0,0.0,0.0,0.0,0.0,0.0,0.0,0.0,0.0,0.0,0.0,0.0,0.0,0.0,0.0,0.0,0.0,0.0,0.0,0.0,0.0,0.0,0.0,0.0,0.0,0.0,0.0,0.0,0.0,0.0,0.0,0.0,0.0,0.0,0.0,0.0,-4.0602,-4.0718,-4.0839,-4.0907,-4.0849,-4.0787,-4.0787,-4.0694,-4.0554,-4.045,-4.0434,0.0,0.0,0.0,0.0,0.0,0.0,0.0,0.0,0.0,0.0,0.0,0.0,0.0,0.0,0.0,0.0,0.0,0.0,0.0,0.0,0.0,0.0,0.0,0.0,0.0,0.0,0.0,0.0,0.0,0.0,0.0,0.0,0.0,0.0,0.0,0.0,0.0,0.0,0.0,0.0,0.0,0.0,0.0,0.0,0.0,0.0,0.0,0.0,0.0,0.0,0.0,0.0,0.0,-4.0328,-4.0346,-4.0346,-4.0345,-4.0363,-4.0363,-4.0363,-4.0346,-4.031,-4.0328,0.0,0.0,0.0,0.0,0.0,0.0,0.0,0.0,0.0,0.0,0.0,0.0,0.0,0.0,0.0,0.0,0.0,0.0,0.0,0.0,0.0,0.0,0.0,0.0,-4.0253,-4.0024,-3.9356,0.0,0.0,0.0,0.0,0.0,0.0,0.0,0.0,0.0,0.0,0.0,-4.0519,-4.0615,-4.0694,-4.0694,-4.0694,-4.0694,-4.0694,-4.0636,-4.0549,-4.0462,-4.0396,-4.0315,0.0,0.0,0.0,0.0,0.0,0.0,0.0,0.0,0.0,0.0,0.0,0.0,0.0,0.0,0.0,0.0,0.0,0.0,0.0,0.0,0.0,0.0,0.0,0.0,0.0,0.0,0.0,0.0,0.0,0.0,0.0,0.0,-3.7368,-3.7368,0.0,0.0,0.0,0.0,0.0,0.0,0.0,0.0,0.0,0.0,0.0,0.0,0.0,-4.0138,-4.0138,-4.0253,-4.031,-4.031,-4.043,-4.0457,-4.0492,-4.0588,-4.0642,-4.0642,-4.0642,0.0,-4.031,-4.043,0.0,0.0,0.0,0.0,0.0,0.0,0.0,0.0,0.0,0.0,0.0,0.0,0.0,0.0,0.0,0.0,0.0,0.0,0.0,0.0,0.0,0.0,-4.0137,-4.0196,-4.0196,-4.0196,0.0,-4.0138,-4.0157,-4.0291,-4.031,0.0,0.0,0.0,0.0,0.0,0.0,0.0,-4.0504,-4.0615,-4.0694,-4.0694,-4.0694,-4.0694,-4.0694,-4.0582,-4.0462,-4.0315,-4.0212,-4.0081,-3.9956,-3.9954,0.0,0.0,0.0,0.0,0.0,0.0,0.0,0.0,0.0,0.0,0.0,0.0,0.0,0.0,0.0,0.0,0.0,0.0,0.0,0.0,0.0,0.0,0.0,0.0,0.0,0.0,0.0,0.0,0.0,-3.7483,-3.7693,-3.7693,-3.7693,-3.7884,0.0,0.0,0.0,0.0,0.0,0.0,0.0,0.0,0.0,-4.031,-4.0802,-4.1102,-4.1102,-4.1581,-4.1831,-4.1831,-4.1879,-4.1909,-4.1909,-4.2033,-4.2099,-4.2099,-4.2025,-4.1925,-4.1735,-4.0949,-4.0579,-4.0519,0.0,0.0,0.0,0.0,-4.031,-4.0272,-4.0253,-4.0253,-4.0234,-4.0215,0.0,0.0,0.0,0.0,0.0,0.0,0.0,0.0,0.0,0.0,-4.0117,-4.0137,-4.0157,-4.0157,-4.0176,-4.0195,-4.0215,0.0,-4.031,-4.031,-4.031,0.0,0.0,0.0,0.0,-4.0307,-4.0289,-4.0323,-4.0356,-4.0356,-4.0408,-4.0389,-4.0372,-4.0304,-4.0233,-4.0139,-4.004,-3.9956,-3.9911,-3.9889,-3.9889,0.0,0.0,0.0,0.0,0.0,0.0,0.0,0.0,0.0,0.0,0.0,0.0,0.0,0.0,0.0,0.0,0.0,0.0,0.0,0.0,0.0,0.0,0.0,0.0,0.0,0.0,0.0,0.0,-3.8228,-3.8362,-3.8362,-3.8362,-3.8629,0.0,0.0,0.0,0.0,0.0,0.0,-4.0651,-4.0862,-4.0977,-4.0977,-4.1671,-4.2104,-4.2285,-4.2921,-4.3363,-4.3574,-4.3626,-4.3643,-4.364,-4.3777,-4.3827,-4.3827,-4.3732,-4.3689,-4.3574,-4.1952,-4.1272,-4.1229,-4.1174,-4.1111,-4.108,-4.0978,-4.0941,-4.0922,-4.0883,-4.0864,-4.0844,-4.0765,-4.0745,-4.0724,-4.0724,0.0,0.0,0.0,0.0,-4.0703,-4.0703,-4.0682,-4.0703,-4.0703,-4.0724,-4.0724,-4.0724,-4.0724,-4.0651,0.0,-4.0253,-4.0253,-4.0253,0.0,0.0,0.0,0.0,-4.0157,-4.0117,-4.0117,-4.0117,-4.0117,-4.0157,-4.0157,-4.0098,-4.0077,-4.0057,-3.9996,-3.9933,-3.9889,-3.9889,-3.9889,-3.9889,-3.9889,0.0,0.0,0.0,0.0,0.0,0.0,0.0,0.0,0.0,0.0,0.0,0.0,0.0,0.0,0.0,0.0,0.0,0.0,0.0,0.0,0.0,0.0,0.0,0.0,0.0,0.0,0.0,0.0,0.0,-4.0177,-4.0177,0.0,0.0,0.0,0.0,-4.031,-4.1017,-4.1493,-4.1623,-4.2412,-4.2854,-4.2854,-4.2909,-4.323,-4.3864,-4.3921,-4.4381,-4.5184,-4.5304,-4.5358,-4.5376,-4.5507,-4.5583,-4.5583,-4.5568,-4.5568,-4.5418,-4.3635,-4.2809,-4.2699,-4.2827,-4.2792,-4.268,-4.2679,-4.2679,-4.2679,-4.2679,-4.2639,-4.2579,-4.2579,-4.2538,-4.2455,-4.2411,-4.2433,0.0,0.0,-4.237,-4.237,-4.2303,-4.228,-4.2303,-4.2348,-4.237,-4.2411,-4.2455,-4.2455,-4.1998,0.0,-4.0117,-4.0117,-4.0117,0.0,-4.0117,-4.0117,-4.0117,-4.0098,-4.0117,-4.0117,-4.0117,-4.0117,-4.0098,-4.0098,-4.0117,-4.0036,-3.9996,-3.9996,-3.9933,-3.9889,-3.9889,-3.9889,-3.9889,-3.9889,-3.9889,0.0,0.0,0.0,0.0,0.0,0.0,0.0,0.0,0.0,0.0,0.0,0.0,0.0,0.0,0.0,0.0,0.0,0.0,0.0,0.0,0.0,0.0,0.0,0.0,0.0,0.0,0.0,0.0,-4.031,-4.031,0.0,-4.1017,-4.1146,-4.1426,-4.2002,-4.2387,-4.2587,-4.2544,-4.3371,-4.3784,-4.3656,-4.4803,-4.555,-4.5803,-4.6321,-4.6743,-4.705,-4.7088,-4.7197,-4.7314,-4.7442,-4.7575,-4.7679,-4.7556,-4.745,-4.7318,-4.6579,-4.5315,-4.3827,-4.3797,-4.3438,-4.2926,-4.2833,-4.2794,-4.2794,-4.2694,-4.2652,-4.2631,-4.2525,-4.2481,-4.2458,-4.2435,-4.2458,-4.2458,-4.2435,-4.2435,-4.2435,-4.2412,-4.2412,-4.2412,-4.2435,-4.2435,-4.2435,-4.2458,-4.2458,-4.2287,-4.168,-4.1651,-4.1694,-4.1694,-4.1694,-4.1694,-4.1632,-4.1632,-4.1632,-4.1589,-4.1567,-4.1567,-4.1567,-4.1155,-4.0853,-4.081,-4.0298,-3.9975,-3.9933,-3.9911,-3.9889,-3.9889,-3.9889,-3.9889,-3.9889,-3.9889,-3.9889,0.0,0.0,0.0,0.0,0.0,0.0,0.0,0.0,0.0,0.0,0.0,0.0,0.0,0.0,0.0,0.0,0.0,0.0,0.0,0.0,0.0,0.0,0.0,0.0,0.0,0.0,-4.0406,-4.0673,-4.0711,-4.1036,-4.1858,-4.2328,-4.2797,-4.3288,-4.401,-4.4384,-4.4295,-4.5086,-4.5475,-4.5341,-4.657,-4.7337,-4.7644,-4.8164,-4.8587,-4.8875,-4.8911,-4.8966,-4.8985,-4.9171,-4.9285,-4.9304,-4.9246,-4.9111,-4.8967,-4.8894,-4.7703,-4.5948,-4.5552,-4.5074,-4.4614,-4.4516,-4.4494,-4.4473,-4.4328,-4.4284,-4.422,-4.4104,-4.4099,-4.4099,-4.4099,-4.4099,-4.4099,-4.4099,-4.4099,-4.4099,-4.4099,-4.4099,-4.4099,-4.4099,-4.4099,-4.4099,-4.4099,-4.4099,-4.4099,-4.4099,-4.3259,-4.2544,-4.2544,-4.2544,-4.2544,-4.2503,-4.2481,-4.2458,-4.2435,-4.2393,-4.2412,-4.2412,-4.1942,-4.1661,-4.1616,-4.1108,-4.0675,-4.0366,-4.0347,-4.0214,-3.9908,-3.9889,-3.9889,-3.9889,-3.9889,-3.9889,-3.9889,0.0,0.0,0.0,0.0,0.0,0.0,0.0,0.0,0.0,0.0,0.0,0.0,0.0,0.0,0.0,0.0,0.0,0.0,0.0,0.0,0.0,0.0,0.0,-4.0292,-4.0348,-4.0635,-4.1437,-4.1552,-4.1915,-4.2794,-4.3787,-4.4303,-4.4132,-4.5822,-4.6835,-4.6855,-4.7606,-4.8048,-4.803,-4.8068,-4.8491,-4.9336,-4.9336,-4.976,-5.0587,-5.0731,-5.0605,-5.0325,-5.0641,-5.0623,-5.0348,-5.0526,-5.0485,-5.0302,-5.0302,-4.9843,-4.9041,-4.8181,-4.7818,-4.7799,-4.7799,-4.7818,-4.7777,-4.7662,-4.7547,-4.7498,-4.7422,-4.7397,-4.7397,-4.7397,-4.7397,-4.7397,-4.7397,-4.7397,-4.7397,-4.7397,-4.7397,-4.7397,-4.7397,-4.7397,-4.7397,-4.7397,-4.7397,-4.7397,-4.7397,-4.4781,-4.2564,-4.2564,-4.2564,-4.2587,-4.2633,-4.2568,0.0,-4.2617,-4.253,-4.2488,-4.2488,-4.2469,-4.245,-4.245,-4.2431,-4.2071,-4.1294,-4.1237,-4.0858,-4.0003,-3.9946,-3.9927,-3.9889,-3.9889,-3.9889,-3.9889,0.0,0.0,0.0,0.0,0.0,0.0,0.0,0.0,0.0,0.0,0.0,0.0,0.0,0.0,0.0,0.0,0.0,0.0,0.0,0.0,0.0,0.0,-4.1093,-4.117,-4.117,-4.1495,-4.2335,-4.2966,-4.3654,-4.4532,-4.5515,-4.6337,-4.6858,-4.7521,-4.7824,-4.7664,-4.8471,-4.8913,-4.8786,-4.9508,-5.001,-5.024,-5.024,-5.0356,-5.0606,-5.0486,-5.0466,-5.0526,-5.0606,-5.0661,-5.0677,-5.0728,-5.0661,-5.0526,-5.0526,-5.0306,-4.9882,-4.906,-4.8353,-4.7799,-4.7799,-4.7754,-4.7709,-4.7619,-4.7547,-4.7498,-4.7422,-4.7397,-4.7397,-4.7397,-4.7397,-4.7397,-4.7397,-4.7397,-4.7397,-4.7397,-4.7397,-4.7397,-4.7397,-4.7397,-4.7397,-4.7397,-4.7397,-4.7397,-4.7397,-4.6657,-4.6032,-4.6032,-4.6032,-4.6032,-4.6057,-4.5545,0.0,-4.5185,-4.4592,-4.4213,-4.4213,-4.3682,-4.3341,-4.3341,-4.2773,-4.2318,-4.209,-4.2071,-4.1958,-4.173,-4.1162,-4.0555,-3.9908,-3.9889,-3.9889,0.0,0.0,0.0,0.0,0.0,0.0,0.0,0.0,0.0,0.0,0.0,0.0,0.0,0.0,0.0,0.0,0.0,0.0,0.0,0.0,0.0,0.0,-4.1702,-4.2278,-4.2985,-4.2775,-4.287,-4.373,-4.4571,-4.5392,-4.6252,-4.7261,-4.803,-4.8431,-4.895,-4.9181,-4.8968,-4.9447,-4.9714,-4.9731,-5.0214,-5.0547,-5.0678,-5.0625,-5.0587,-5.0606,-5.0528,-5.0507,-5.0485,-5.0625,-5.0642,-5.0605,-5.0696,-5.0605,-5.0464,-5.0464,-5.0418,0.0,0.0,0.0,0.0,0.0,-4.8804,-4.8757,-4.8667,-4.8593,-4.8542,-4.8465,-4.8439,-4.8439,-4.8439,-4.8439,-4.8439,-4.8439,-4.8439,-4.8439,-4.8439,-4.8439,-4.8439,-4.8439,-4.8439,-4.8439,-4.8439,-4.8439,-4.8439,-4.8439,-4.8439,0.0,-4.8439,-4.7851,-4.7422,-4.7448,-4.7024,-4.6721,-4.6746,-4.6285,-4.5824,-4.5483,-4.5028,-4.4592,-4.4232,-4.3739,0.0,0.0,0.0,-4.2791,-4.2431,-4.1958,0.0,0.0,0.0,-4.0438,-4.0438,-4.0079,0.0,0.0,-3.9554,-3.958,0.0,0.0,0.0,0.0,0.0,0.0,0.0,0.0,0.0,0.0,0.0,0.0,0.0,0.0,0.0,0.0,-4.2584,-4.3673,-4.5354,-4.501,-4.4838,-4.5488,-4.629,-4.7111,-4.7876,-4.8853,-4.9353,-4.9236,-5.0061,-5.0485,-5.0302,0.0,0.0,0.0,0.0,-5.0659,-5.1067,-5.0951,-5.0875,-5.0875,-5.0984,-5.0856,-5.0593,-5.0894,-5.0856,-5.0588,-5.0677,-5.0617,-5.0436,-5.034,-5.0302,-5.0302,-5.0302,-5.0302,-5.0302,-5.0302,-5.0255,-5.0188,-5.0133,0.0,0.0,-4.9906,-4.9898,-4.9898,-4.9898,-4.9898,-4.9898,-4.9898,-4.9898,-4.9898,-4.9898,-4.9898,-4.9898,-4.9898,-4.9898,-4.9898,-4.9898,-4.9898,-4.9898,-4.9898,-4.9898,-4.9898,-4.9898,-4.8666,-4.7707,-4.7758,-4.7656,-4.7574,-4.7625,-4.7505,-4.7131,-4.6411,0.0,0.0,-4.5122,-4.5047,-4.4706,-4.3891,-4.3834,-4.3455,-4.2583,-4.2564,-4.2507,-4.2412,-4.1647,-4.1287,-4.1287,-4.0465,-3.9953,-3.9714,-3.9811,-3.9826,0.0,0.0,0.0,0.0,0.0,0.0,0.0,0.0,0.0,0.0,0.0,0.0,0.0,0.0,0.0,-4.4302,-4.4704,-4.5392,-4.7092,-4.778,-4.7914,-4.7379,-4.8067,-4.8659,-4.8831,-4.9621,-5.0099,-5.0073,-5.0252,-5.0329,-5.0302,-5.0302,-5.065,-5.1385,-5.1461,-5.1873,-5.2646,-5.2626,-5.2624,-5.2605,0.0,0.0,-5.2308,-5.2365,-5.2384,-5.227,-5.1667,-5.1381,-5.1295,-5.0588,-5.0302,-5.0302,-5.0302,-5.0302,-5.0302,-5.0302,-5.0255,-5.0188,-5.0133,-5.0057,-5.0005,-4.9906,-4.9898,-4.9898,-4.9898,-4.9898,0.0,-4.9898,-4.9898,-4.9898,-4.9898,-4.9898,-4.9898,-4.9898,-4.9898,-4.9898,-4.9898,-4.9898,-4.9898,-4.9898,-4.9898,-4.9898,-4.9898,-4.9614,-4.9405,-4.9432,-4.8882,-4.8465,-4.8465,-4.7858,-4.734,-4.7169,-4.7169,-4.6828,-4.6013,-4.5937,-4.5577,-4.4724,-4.4668,-4.4308,-4.3474,-4.3455,-4.3133,-4.2412,-4.1989,-4.175,-4.175,-4.1324,-4.1082,-4.1016,-4.0033,-3.9414,0.0,0.0,0.0,0.0,0.0,0.0,0.0,0.0,0.0,0.0,0.0,-4.1278,0.0,0.0,-4.4113,-4.508,-4.5982,-4.6997,-4.8277,-4.8831,-4.8926,-4.8506,-4.9194,-4.9691,-4.9691,-5.0054,-5.0302,-5.0302,-5.0703,-5.0951,-5.0951,-5.1334,-5.1782,-5.2318,-5.2321,-5.2557,-5.3086,-5.2998,-5.2954,-5.2931,-5.2858,-5.2805,-5.2805,-5.2805,-5.2805,-5.2785,-5.2335,-5.2163,-5.2125,-5.1637,-5.1217,-5.0855,-5.0855,-5.0612,-5.0255,-5.0207,-5.0182,-5.0158,-5.0082,-5.0031,-4.9959,-4.9741,-4.9769,-4.9852,-4.9712,-4.9769,-4.9898,-4.9898,-4.9898,-4.9898,-4.9898,-4.9898,-4.9898,-4.9898,-4.9898,-4.9898,-4.9898,-4.9898,-4.9898,-4.9898,-4.9898,-4.9898,-4.9898,-4.9898,-4.9898,-4.9898,-4.9557,-4.9292,-4.9292,-4.8913,-4.8496,-4.8079,-4.8041,-4.77,-4.6866,-4.6289,-4.5507,-4.4458,-4.4402,-4.4233,-4.3839,-4.382,-4.3613,-4.3154,-4.2604,-4.2296,-4.2296,-4.1694,-4.1329,-4.1188,-4.0555,-4.0224,0.0,0.0,0.0,0.0,0.0,0.0,0.0,0.0,-4.0152,-4.0173,-4.1343,-4.2366,-4.2385,-4.4189,-4.5745,-4.5938,-4.7147,-4.8353,-4.9213,-4.9328,-4.9328,-4.9328,-4.9901,-5.0302,-5.0302,-5.0455,-5.055,-5.055,-5.1353,-5.183,-5.183,-5.2442,-5.2958,-5.3292,-5.313,-5.3207,-5.3541,-5.3398,-5.3301,-5.3301,-5.3282,-5.3257,-5.3257,-5.3257,-5.3257,-5.3232,-5.301,-5.2831,-5.2679,-5.2601,-5.2239,-5.163,-5.1623,-5.1166,-5.0501,-5.0222,-5.0038,-4.9986,-5.0005,-4.9906,-4.9722,-4.9488,-4.9518,-4.9636,-4.9365,-4.9469,-4.9693,-4.9693,-4.975,-4.9797,-4.9797,-4.9852,-4.9898,-4.9898,-4.9898,-4.9898,-4.9898,-4.9898,-4.9898,-4.9898,-4.9898,-4.9898,-4.9898,-4.9898,-4.9898,-4.9898,-4.9898,-4.9898,-4.9898,-4.9898,-4.9633,-4.8988,-4.8913,-4.859,-4.7719,-4.6663,-4.5547,-4.4423,-4.4356,-4.4233,-4.4004,-4.4004,-4.3974,-4.3912,-4.3187,-4.2841,-4.2841,-4.2063,-4.159,-4.1363,-4.1363,-4.1313,-3.8541,-3.8478,0.0,-3.9651,-3.9813,-3.9933,0.0,0.0,-4.1444,-4.1825,-4.3221,-4.4461,-4.4756,-4.6233,-4.7694,-4.8544,-4.8831,-4.9232,-5.0054,-5.0168,-5.0168,-5.0168,-5.0245,-5.0302,-5.0302,-5.1009,-5.1448,-5.1448,-5.2212,-5.2671,-5.2671,-5.2747,-5.3173,-5.3962,-5.3976,-5.4333,-5.5123,-5.5116,-5.5116,-5.5116,-5.4988,-5.4943,-5.4943,-5.4863,-5.4836,-5.4798,-5.4066,-5.3324,-5.262,-5.2601,-5.2563,-5.246,-5.2387,-5.2096,-5.1567,-5.0491,-4.986,-4.9617,-4.9906,-4.9539,-4.8986,-4.9302,-4.9169,-4.8919,-4.8885,-4.8885,-4.8919,-4.8919,-4.9169,-4.9476,-4.9476,-4.9683,-4.9898,-4.9898,-4.9898,-4.9898,-4.9898,-4.9898,-4.9898,-4.9898,-4.9898,-4.9898,-4.9898,-4.9898,-4.9898,-4.9898,-4.9898,-4.9898,-4.9898,-4.9898,-4.986,-4.9765,-4.9765,-4.9424,-4.8609,-4.7731,-4.6852,-4.6013,-4.5956,-4.5447,-4.4393,-4.4327,-4.4213,-4.3912,-4.3517,-4.3327,-4.3327,-4.2923,-4.2722,-4.2685,-4.2685,-4.1923,-3.8886,0.0,0.0,0.0,-4.0712,-4.0908,-4.1249,-4.1762,-4.2298,-4.2706,-4.4031,-4.5294,-4.5848,-4.7186,-4.8359,0.0,-4.9434,-4.992,-5.0197,-5.0278,-5.0302,-5.0302,-5.076,-5.1066,-5.1066,-5.1391,-5.1792,-5.227,-5.3072,-5.355,-5.355,-5.4046,-5.4486,-5.4849,-5.4785,-5.4931,-5.5294,-5.5241,-5.5214,-5.5214,-5.5168,-5.5149,-5.5149,-5.5121,-5.5066,-5.5019,-5.4695,-5.4325,-5.3946,-5.3946,-5.3489,-5.2866,-5.3091,-5.251,-5.1417,-5.0659,-5.0134,-4.9753,-4.9415,-4.9067,-4.8781,-4.8783,-4.8765,-4.8746,-4.8569,-4.8658,-4.8816,-4.8816,-4.8919,-4.9038,-4.9038,-4.915,-4.9246,-4.9246,-4.9246,-4.9246,-4.9246,-4.9246,-4.9327,-4.9548,-4.9625,-4.9683,-4.9871,-4.9898,-4.9898,-4.9898,-4.9898,-4.9898,-4.9898,-4.9898,-4.9898,-4.9898,-4.9898,-4.9503,-4.8485,-4.806,-4.7419,-4.6382,-4.6315,-4.5772,-4.4642,-4.4573,-4.4188,-4.3336,-4.3178,-4.3124,-4.3124,-4.2957,-4.2882,-4.2882,-4.288,-4.2481,-3.9649,0.0,0.0,-4.1186,-4.1582,-4.1869,-4.2069,-4.2743,-4.3449,-4.3869,-4.509,-4.6253,-4.6875,-4.8041,-4.8969,-4.9112,-4.9758,-5.0188,-5.007,-5.0188,-5.0278,-5.0278,-5.1042,-5.1697,-5.1907,-5.2155,-5.2537,-5.311,-5.397,-5.4467,-5.4467,-5.5014,-5.5339,-5.5339,-5.5222,-5.5176,-5.5176,-5.5121,-5.5094,-5.5094,-5.5066,-5.5066,-5.5066,-5.5038,-5.5028,-5.4971,-5.4971,-5.4882,-5.4742,-5.4852,-5.4239,-5.3241,-5.3679,-5.299,-5.1676,-5.115,-5.0615,-5.0084,-4.9618,-4.9342,-4.9104,-4.8712,-4.8714,-4.8734,-4.8284,-4.8307,-4.8513,-4.8513,-4.8586,-4.8658,-4.8658,-4.8816,-4.8937,-4.8816,-4.8952,-4.9085,-4.9005,-4.9019,-4.9182,-4.9488,-4.9537,-4.9625,-4.9852,-4.9898,-4.9898,-4.9898,-4.9898,-4.9898,-4.9898,-4.9898,-4.9898,-4.9898,-4.9898,-4.9551,-4.8748,-4.8574,-4.8077,-4.693,-4.6797,-4.6194,-4.5038,-4.5001,-4.4565,-4.357,-4.3552,-4.3552,-4.3552,-4.3514,-4.3514,-4.3514,-4.3433,-4.3412,0.0,0.0,-4.1199,-4.1744,-4.2287,-4.2823,-4.3495,-4.4327,-4.5127,-4.5788,-4.686,-4.7815,-4.8093,-4.9126,-4.9895,-4.9721,-4.9922,-5.0012,-4.974,-5.0019,-5.0188,-5.0188,-5.1018,-5.1907,0.0,-5.3531,-5.4027,-5.4065,-5.4868,-5.5365,-5.5365,-5.5275,-5.5203,-5.5203,-5.5149,-5.5094,-5.5094,-5.5094,-5.5094,-5.5094,-5.5009,-5.5,-5.5,-5.4931,-5.4901,-5.4901,-5.4901,-5.468,-5.4349,-5.4761,-5.443,-5.3721,-5.4121,-5.3758,-5.2955,-5.2128,-5.132,-5.0622,-5.099,-5.0662,-4.9985,-4.9545,-4.9163,-4.8774,-4.7953,-4.7741,-4.7741,-4.7741,-4.7992,-4.8306,-4.8306,-4.8853,-4.9302,-4.8885,-4.9358,-4.9769,-4.9457,-4.9655,-4.9852,-4.9879,-4.9879,-4.9898,-4.9898,-4.9898,-4.9898,-4.9898,-4.9898,-4.9898,-4.9898,-4.9898,-4.9898,-4.9898,-4.9898,-4.9879,-4.986,-4.9558,-4.9002,-4.8089,-4.7751,-4.703,-4.581,-4.5773,-4.5588,-4.5218,-4.5236,-4.5236,-4.5236,-4.508,-4.5039,-4.5039,-4.4952,-4.4928,0.0,0.0,-4.2174,-4.2277,-4.3268,-4.4202,-4.4176,-4.5115,-4.6064,-4.6394,-4.7129,-4.7876,-4.8243,-4.8695,-4.9113,-4.951,-4.9674,-4.9731,-4.9588,-4.9887,-5.0063,-4.9841,-5.1254,0.0,0.0,0.0,0.0,-5.4797,-5.5096,-5.5267,-5.5214,-5.5168,-5.5149,-5.5149,-5.5066,-5.5009,-5.5009,-5.5,-5.4971,-5.4971,-5.4941,-5.4912,-5.4931,-5.4901,-5.4742,-5.4533,-5.4791,-5.4533,-5.3925,-5.4349,-5.4033,-5.3348,-5.372,-5.3388,-5.268,-5.2718,-5.2358,-5.1752,-5.0787,-5.0314,-5.0079,-4.9901,-4.9785,-4.9637,-4.9365,-4.8931,-4.8514,-4.8514,-4.82,-4.7888,-4.7888,-4.8072,-4.8326,-4.8421,-4.8658,-4.8869,-4.8971,-4.9085,-4.9265,-4.9518,-4.9566,-4.9655,-4.9852,-4.9898,-4.9824,-4.9596,-4.9769,-4.9898,-4.9898,-4.9898,-4.9898,-4.9898,-4.9898,-4.9797,-4.9596,-4.9457,-4.9171,-4.8576,-4.8475,-4.7881,-4.6691,-4.6673,-4.619,-4.521,-4.517,-4.5129,-4.5106,-4.5065,-4.5024,-4.5024,-4.4941,-4.4856,-4.186,-4.2701,-4.3407,-4.3277,-4.434,-4.5411,-4.524,-4.5993,-4.6777,-4.7001,-4.7498,-4.7994,-4.831,-4.8495,-4.8728,-4.9034,-4.9214,-4.9309,-4.9327,-4.9646,-4.986,-4.9759,-5.1319,-5.2436,0.0,0.0,0.0,-5.5138,-5.5157,-5.5149,-5.5094,-5.5066,-5.5066,-5.5066,-5.5,-5.4971,-5.4971,-5.4931,-5.4901,-5.4901,-5.4901,-5.4822,-5.468,-5.468,-5.4449,-5.4104,-5.4364,-5.4104,-5.3508,-5.3925,-5.3624,-5.2944,-5.3308,-5.3096,-5.2526,-5.2787,-5.2717,-5.2353,-5.1303,-5.0959,-5.0904,-5.0615,-5.0524,-5.047,-5.018,-4.9727,-4.9329,-4.9329,-4.8967,-4.8496,-4.8206,-4.8242,-4.8257,-4.8105,-4.8402,-4.8713,-4.8781,-4.9019,-4.9265,-4.9518,-4.9596,-4.9655,-4.9852,-4.9898,-4.9824,-4.9625,-4.9769,-4.9871,-4.9741,-4.9824,-4.9898,-4.9898,-4.9797,-4.9625,-4.9415,-4.9123,-4.8834,-4.8568,-4.8365,-4.7917,-4.7208,-4.715,-4.6753,-4.5876,-4.5876,-4.5834,-4.5827,-4.5803,-4.5803,-4.576,-4.5656,-4.5612,-4.3175,-4.4033,-4.4673,-4.4602,-4.5421,-4.6319,-4.6621,-4.6923,-4.7239,-4.762,-4.801,-4.8306,0.0,0.0,-4.8676,-4.8421,-4.8604,-4.8816,-4.8956,-4.9265,-4.9588,0.0,0.0,0.0,0.0,0.0,0.0,-5.5019,0.0,-5.5094,-5.5094,-5.5028,-5.5,-5.5,-5.4912,-5.4901,-5.4901,-5.4901,-5.4871,-5.4822,-5.4871,-5.4648,-5.4262,-5.4262,-5.4033,-5.3683,-5.3683,-5.3468,-5.3096,-5.3489,-5.3203,-5.2526,-5.29,-5.2831,-5.2498,-5.2498,-5.2498,-5.2498,-5.2498,-5.2498,-5.2371,-5.1611,-5.1357,-5.1212,-5.0434,-5.018,-5.0144,-5.0144,-5.0108,-4.9908,-4.9166,-4.919,-4.9179,-4.8042,-4.8624,-4.9308,-4.8937,-4.9389,-4.9898,-4.9898,-4.9898,-4.9898,-4.9898,-4.9898,-4.9898,-4.9898,-4.9879,-4.9769,-4.9457,-4.9712,-4.9879,-4.9852,-4.9577,-4.9365,-4.9334,-4.8586,-4.8056,-4.8056,-4.7585,-4.7302,-4.7302,-4.7302,-4.732,-4.7302,-4.7302,-4.7302,-4.7258,-4.7223,-4.7196,-4.7196,-4.7043,-4.6998,-4.3321,-4.4015,-4.4602,-4.4473,-4.5513,-4.657,-4.6531,-4.7302,-4.7934,-4.7747,-4.801,-4.819,0.0,0.0,0.0,-4.8288,-4.8402,0.0,-4.8476,-4.8765,0.0,-4.8765,0.0,-5.1442,-5.1563,-5.2989,0.0,0.0,-5.4814,-5.5,-5.4941,-5.4912,-5.4931,-5.4931,-5.4901,-5.4901,-5.4901,-5.4901,-5.4597,-5.3997,-5.4296,-5.4228,-5.3833,-5.3833,-5.3606,-5.3285,-5.3567,-5.3308,-5.2672,-5.3096,-5.2944,-5.2498,-5.2599,-5.2618,-5.2498,-5.2498,-5.2498,-5.2498,-5.2498,-5.2498,-5.2462,-5.2263,-5.219,-5.2154,-5.1937,-5.1466,-5.0977,-5.0977,-5.0542,-5.0035,-4.9836,-4.9851,-4.9743,-4.9135,-4.9418,-4.9732,-4.9319,-4.9607,-4.9898,-4.9898,-4.9898,-4.9898,-4.9898,-4.9898,-4.9898,-4.9898,-4.9617,-4.948,-4.9741,-4.9759,-4.9655,-4.942,-4.9164,-4.8813,-4.831,-4.8059,-4.7797,-4.75,-4.7389,-4.7302,-4.7302,-4.7302,-4.7276,-4.7223,-4.7223,-4.7178,-4.707,-4.7088,-4.7043,-4.7043,-4.7043,-4.6998,-4.3851,-4.4546,-4.5168,-4.5384,-4.6364,-4.7189,-4.7047,-4.7561,-4.786,-4.7288,-4.7361,0.0,0.0,0.0,0.0,0.0,0.0,0.0,-4.8267,-4.8458,-4.8569,0.0,-4.964,0.0,-5.1157,-5.225,-5.3216,0.0,-5.443,-5.4773,-5.4901,-5.4901,-5.4822,-5.4648,-5.4648,-5.4565,-5.4382,-5.4565,-5.433,-5.3683,-5.3925,-5.3814,-5.3428,-5.3428,-5.3203,-5.2831,0.0,-5.29,-5.2544,-5.2761,-5.2717,-5.2498,-5.2498,-5.2498,-5.2498,-5.2498,-5.2498,-5.2498,-5.2498,-5.2498,-5.2498,-5.2498,-5.2498,-5.2498,-5.2498,-5.2172,-5.1828,-5.1828,-5.1484,-5.1049,-5.0705,-5.0615,-5.0486,-4.9828,-4.9722,-4.9658,-4.9447,-4.9559,-4.9741,-4.9852,-4.9898,-4.9898,-4.9898,-4.9843,-4.9816,-4.9816,-4.9499,-4.9377,-4.9655,-4.9377,-4.9085,-4.8915,-4.862,-4.8291,-4.7941,-4.7733,-4.7518,-4.7294,-4.7187,-4.7143,-4.7143,-4.7143,-4.716,-4.7088,-4.7088,-4.7088,-4.6998,-4.6998,-4.6998,-4.6998,-4.6998,-4.6998,-4.4325,-4.5114,-4.5918,-4.6478,-4.7161,-4.7733,-4.7681,-4.7536,-4.721,-4.6631,0.0,-4.6341,-4.6341,-4.6341,-4.6613,-4.7428,0.0,-4.7697,-4.8151,-4.8229,-4.8326,-4.8604,-4.9045,-4.9777,-5.0916,-5.1492,-5.232,-5.3512,-5.3961,-5.4315,-5.4711,-5.4742,-5.4565,-5.4228,-5.4228,-5.4033,-5.3606,-5.4033,-5.3997,-5.3528,-5.3606,-5.3428,-5.3011,-5.3011,-5.2831,-5.2498,-5.2498,-5.2498,-5.2498,-5.2498,-5.2498,-5.2498,-5.2498,-5.2498,-5.2498,-5.2498,-5.2498,-5.2498,-5.2498,-5.2498,-5.2498,-5.2498,-5.2498,-5.2498,-5.2498,-5.2498,-5.2498,-5.2498,-5.2498,-5.2335,-5.1629,-5.1448,-5.1249,-5.0434,-4.9979,-4.9664,-4.9522,-4.9477,-4.9548,-4.9824,-4.9852,-4.9824,-4.9871,-4.9731,-4.9615,-4.9663,-4.9446,-4.9302,-4.9252,-4.8797,-4.8513,-4.8458,-4.8098,-4.7838,-4.7779,-4.7407,-4.7178,-4.7178,-4.7043,-4.6998,-4.6998,-4.6998,-4.6998,-4.6998,-4.6998,-4.6998,-4.6998,-4.6998,-4.6998,-4.6998,-4.6998,-4.6998,-4.3541,-4.4564,-4.5599,-4.5765,-4.6285,-4.6884,-4.7554,-4.6667,0.0,0.0,0.0,-4.5508,-4.5508,-4.5508,0.0,-4.6576,0.0,0.0,0.0,0.0,-4.7824,0.0,0.0,0.0,0.0,0.0,0.0,0.0,-5.3285,-5.3468,-5.3888,-5.3925,-5.3888,-5.3814,-5.3796,-5.3606,-5.3203,-5.3606,-5.3428,-5.2717,-5.3054,-5.2969,-5.2599,-5.2599,-5.2572,-5.2498,-5.2498,0.0,-5.2498,-5.2498,-5.2498,-5.2498,-5.2498,-5.2498,-5.2498,-5.2498,-5.2498,-5.2498,-5.2498,-5.2498,-5.2498,-5.2498,-5.2498,-5.2498,-5.2498,-5.2498,-5.2498,-5.2498,-5.2498,-5.2462,-5.2317,-5.2281,-5.2082,-5.1267,-5.1256,-5.1099,-5.0121,-4.9859,-4.9824,-4.9898,-4.9588,-4.942,-4.9673,-4.9358,-4.9132,-4.9396,-4.909,-4.8711,-4.8458,-4.8568,-4.8568,-4.8272,-4.7856,-4.745,-4.7187,-4.707,-4.7043,-4.7043,-4.698,-4.6998,-4.6998,-4.6998,-4.6998,-4.6998,-4.6998,-4.6998,-4.6998,-4.6998,-4.6998,-4.6998,-4.6998,-4.6998,-4.3688,-4.4381,-4.4996,-4.5433,-4.5718,-4.5979,-4.6359,0.0,0.0,0.0,0.0,-4.4675,-4.4675,0.0,0.0,0.0,0.0,0.0,0.0,0.0,0.0,0.0,0.0,0.0,0.0,0.0,0.0,0.0,-5.2806,-5.3054,-5.3683,-5.3508,-5.3388,-5.3388,-5.3388,-5.3203,-5.2787,-5.3203,-5.3096,-5.2498,-5.269,-5.269,-5.2498,-5.2498,-5.2498,-5.2498,-5.2498,-5.2498,-5.2498,-5.2498,-5.2498,-5.2498,-5.2498,-5.2498,-5.2498,-5.2498,-5.2498,-5.2498,-5.2498,-5.2498,-5.2498,-5.2498,-5.2498,-5.2498,-5.2498,-5.2498,-5.2498,-5.2498,-5.2498,-5.2498,-5.2498,-5.2498,-5.2389,-5.2009,-5.1876,-5.1529,-5.0268,-5.0132,-5.0174,-4.9882,-4.9625,-4.9408,-4.9296,-4.9001,-4.8797,-4.8763,-4.8532,-4.8269,-4.8135,-4.8096,-4.7937,-4.7591,-4.7389,-4.716,-4.698,-4.6998,-4.6998,-4.6998,-4.6998,-4.6998,-4.6998,-4.6998,-4.6998,-4.6998,-4.6998,-4.6998,-4.6998,-4.6998,-4.6998,-4.6998,-4.6998,-4.6998,-4.3506,-4.407,-4.4431,-4.5067,-4.5134,-4.5091,-4.5254,-4.5037,0.0,0.0,-4.3951,-4.3824,-4.3824,0.0,0.0,0.0,0.0,0.0,0.0,0.0,0.0,0.0,0.0,0.0,0.0,0.0,0.0,0.0,-5.2389,-5.2761,-5.3428,-5.312,-5.2987,-5.2987,-5.2987,-5.2831,-5.2498,-5.2787,-5.2787,-5.2498,-5.2498,-5.2498,-5.2498,-5.2498,-5.2498,-5.2498,-5.2498,-5.2498,-5.2498,-5.2498,-5.2498,-5.2498,-5.2498,-5.2498,-5.2498,-5.2498,-5.2498,-5.2498,-5.2498,-5.2498,-5.2498,-5.2498,-5.2498,-5.2498,-5.2498,-5.2498,-5.2498,-5.2498,-5.2498,-5.2498,-5.2498,-5.2498,-5.2498,-5.2452,-5.2211,-5.1643,-5.0342,-5.0294,-5.029,-4.9596,-4.9346,-4.915,-4.8795,-4.8586,-4.8402,-4.8176,-4.8075,-4.7992,-4.7911,-4.7663,-4.7381,-4.7043,-4.6998,-4.6998,-4.6998,-4.6998,-4.6998,-4.6998,-4.6998,-4.6998,-4.6998,-4.6998,-4.6998,-4.6998,-4.6998,-4.6998,-4.6998,-4.6998,-4.6998,-4.6998,-4.6998,-4.6998,-4.2069,-4.3122,-4.417,-4.4376,-4.43,-4.4403,-4.5128,0.0,0.0,-4.3951,-4.3516,-4.3009,-4.3009,-4.3009,0.0,0.0,0.0,0.0,0.0,0.0,0.0,0.0,0.0,0.0,0.0,0.0,0.0,0.0,-5.2082,-5.2526,-5.2618,-5.2572,-5.2572,-5.2572,-5.2572,-5.2526,-5.2498,-5.2526,-5.2526,-5.2498,-5.2498,-5.2498,-5.2498,-5.2498,-5.2498,-5.2498,-5.2498,-5.2498,0.0,-5.2498,-5.2498,-5.2498,-5.2498,-5.2498,-5.2498,-5.2498,-5.2498,-5.2498,-5.2498,-5.2498,-5.2498,-5.2498,-5.2498,-5.2498,-5.2498,-5.2498,-5.2498,-5.2498,-5.2498,-5.2498,-5.2498,-5.2498,-5.2452,-5.2358,-5.2229,-5.1808,-5.0542,-5.0249,-4.9905,-4.8805,-4.8216,-4.7965,-4.8216,-4.7879,-4.7705,-4.7992,-4.8032,-4.787,-4.7597,-4.7511,-4.7381,-4.7043,-4.6998,-4.6998,-4.6998,-4.6998,-4.6998,-4.6998,-4.6998,-4.6998,-4.6998,-4.6998,-4.6998,-4.6998,-4.6998,-4.6998,-4.6998,-4.6998,-4.6998,-4.6998,-4.6998,-4.6998,-4.1506,-4.2231,-4.2774,-4.3338,-4.3409,-4.3444,-4.3769,0.0,0.0,-4.3299,-4.3118,-4.2882,-4.2882,-4.2882,-4.3154,0.0,0.0,0.0,0.0,0.0,0.0,0.0,0.0,0.0,0.0,0.0,0.0,-5.1919,-5.2317,-5.2498,-5.2498,-5.2498,-5.2498,-5.2498,-5.2498,-5.2498,-5.2498,-5.2498,-5.2498,-5.2498,-5.2498,-5.2498,-5.2498,-5.2498,-5.2498,-5.2498,-5.2498,-5.2498,0.0,-5.2498,-5.2498,-5.2498,-5.2498,-5.2498,-5.2498,-5.2498,-5.2498,-5.2498,-5.2498,-5.2498,-5.2498,-5.2498,-5.2498,-5.2498,-5.2498,-5.2498,-5.2498,-5.2498,-5.2498,-5.2498,-5.2498,-5.2452,-5.2405,-5.2444,-5.2514,-5.232,-5.1775,-5.1081,-5.0361,-4.9528,-4.8603,-4.7962,-4.7816,-4.7603,-4.7468,-4.7407,-4.7407,-4.7363,-4.7205,-4.7205,-4.716,-4.698,-4.6998,-4.6998,-4.6998,-4.6998,-4.6998,-4.6998,-4.6998,-4.6998,-4.6998,-4.6998,-4.6998,-4.6998,-4.6998,-4.6998,-4.6998,-4.6998,-4.6998,-4.6998,-4.6998,-4.6998,-4.0727,-4.1361,-4.185,-4.2393,-4.2719,-4.2844,0.0,0.0,-4.2844,-4.2711,-4.2806,-4.2882,-4.2882,-4.2806,-4.293,0.0,0.0,-4.5351,0.0,0.0,0.0,0.0,0.0,0.0,0.0,0.0,0.0,-5.2371,-5.2498,-5.2498,-5.2498,-5.2498,-5.2498,-5.2498,-5.2498,-5.2498,-5.2498,-5.2498,-5.2498,-5.2498,-5.2498,-5.2498,-5.2498,-5.2498,-5.2498,-5.2498,-5.2498,-5.2498,0.0,-5.2498,-5.2498,-5.2498,-5.2498,-5.2498,-5.2498,-5.2498,-5.2498,-5.2498,-5.2498,-5.2498,-5.2498,-5.2498,-5.2498,-5.2498,-5.2498,-5.2498,-5.2498,-5.2498,-5.2452,-5.2452,-5.2452,-5.2387,-5.2369,-5.2379,-5.2572,-5.2645,-5.205,-5.1206,-5.0362,-4.9533,-4.8568,-4.7756,-4.7407,-4.7338,-4.7249,-4.7043,-4.6998,-4.6998,-4.6998,-4.6998,-4.6998,-4.6998,-4.6998,-4.6998,-4.6998,-4.6998,-4.6998,-4.6998,-4.6998,-4.6998,-4.6998,-4.6998,-4.6998,-4.6998,-4.6998,-4.6998,-4.6998,-4.6998,-4.6998,-4.6998,-4.6998,-4.6998,-3.9405,-4.0546,-4.1723,-4.1723,-4.2321,-4.2768,0.0,0.0,-4.2768,-4.2279,-4.2595,-4.2882,-4.2882,-4.2498,-4.2378,-4.2862,-4.3863,0.0,0.0,0.0,0.0,0.0,0.0,0.0,0.0,0.0,0.0,-5.2371,-5.2498,0.0,-5.2498,-5.2498,-5.2498,-5.2498,-5.2498,-5.2498,-5.2498,-5.2498,-5.2498,-5.2498,-5.2498,-5.2498,-5.2498,-5.2498,-5.2498,-5.2498,-5.2498,-5.2498,0.0,-5.2498,-5.2498,-5.2498,-5.2498,-5.2498,-5.2498,-5.2498,-5.2498,-5.2498,-5.2498,-5.2498,-5.2498,-5.2498,-5.2498,-5.2498,-5.2498,-5.2498,-5.2498,-5.2498,-5.2405,-5.2311,-5.2311,-5.2462,-5.2472,-5.2036,-5.2462,-5.2543,-5.085,-5.0203,-4.9595,-4.8458,-4.7579,-4.698,-4.6998,-4.6998,-4.698,-4.6998,-4.6998,-4.6998,-4.6998,-4.6998,-4.6998,-4.6998,-4.6998,-4.6998,-4.6998,-4.6998,-4.6998,-4.6998,-4.6998,-4.6998,-4.6998,-4.6998,-4.6998,-4.6998,-4.6998,-4.6998,-4.6998,-4.6998,-4.6998,-4.6998,-4.6998,-4.6998,-3.9048,-3.9696,-4.0383,-4.1452,-4.1643,-4.1794,-4.2508,0.0,-4.2098,-4.2577,-4.2537,-4.2418,-4.2418,-4.2297,-4.2257,-4.2418,-4.3347,0.0,0.0,0.0,0.0,0.0,0.0,0.0,0.0,0.0,-5.0715,-5.2232,-5.2358,-5.2293,-5.2246,-5.2246,-5.2293,-5.2498,-5.2405,-5.2358,-5.2358,-5.2246,-5.2246,-5.2246,-5.2246,-5.2246,-5.2246,-5.2246,-5.2246,-5.2246,-5.2246,-5.2246,-5.2246,-5.2246,-5.2293,-5.2358,-5.2358,-5.2405,-5.2498,-5.2498,-5.2498,-5.2498,-5.2498,-5.2498,-5.2498,-5.2498,-5.2452,-5.2358,-5.2358,-5.2358,-5.2358,-5.2246,-5.2369,-5.2444,-5.2102,-5.2257,-5.2408,-5.2173,-5.2096,-5.209,-5.2072,-5.0721,-4.9482,-4.9369,-4.8074,-4.6998,-4.6998,-4.6998,-4.6998,-4.6998,-4.6998,-4.6998,-4.6998,-4.6998,-4.6998,-4.6998,-4.6998,-4.6998,-4.6998,-4.6998,-4.6998,-4.6998,-4.6998,-4.6998,-4.6998,-4.6998,-4.6998,-4.6998,-4.6998,-4.6998,-4.6998,-4.6998,-4.6888,-4.6749,-4.6749,-4.6637,0.0,-3.8852,-3.9283,-4.0291,-4.0766,0.0,0.0,0.0,-4.205,-4.2297,-4.2216,-4.2092,-4.2133,-4.1948,-4.1803,-4.1846,-4.3068,0.0,0.0,0.0,0.0,0.0,0.0,0.0,0.0,0.0,-5.0561,-5.2137,-5.2198,-5.2198,-5.2084,-5.2102,-5.2198,-5.234,-5.2246,-5.2198,-5.2198,-5.215,-5.2102,-5.2102,-5.2102,-5.2102,-5.2102,-5.2102,-5.2102,-5.2102,-5.2102,-5.2102,0.0,-5.2102,-5.215,-5.2216,-5.2264,-5.2311,-5.2358,-5.2405,-5.2405,-5.2405,-5.2405,-5.2452,-5.2498,-5.2498,-5.2452,-5.2358,-5.2264,-5.2264,-5.2264,-5.2198,-5.2275,-5.2333,-5.2005,-5.2114,-5.225,-5.2078,-5.1951,-5.2,-5.2286,-5.076,-4.9365,-4.9647,-4.8235,-4.6998,-4.6998,-4.6998,-4.6998,-4.6998,-4.6998,-4.6998,-4.6998,-4.6998,-4.6998,-4.6998,-4.6998,-4.6998,-4.6998,-4.6998,-4.6998,-4.6998,-4.6998,-4.6998,-4.6998,-4.6998,-4.6998,-4.6998,-4.6998,-4.6934,-4.6842,-4.6731,-4.659,-4.6447,-4.6447,-4.6332,0.0,0.0,0.0,0.0,0.0,0.0,0.0,0.0,0.0,0.0,-4.1666,-4.1881,-4.1959,-4.1472,-4.1076,-4.1213,-4.2961,0.0,0.0,0.0,0.0,0.0,0.0,0.0,0.0,-4.9675,-5.034,-5.1886,-5.2066,-5.2084,-5.2084,-5.2084,-5.2084,-5.2084,-5.2084,-5.2102,-5.2102,-5.2102,-5.2084,-5.2084,-5.2084,-5.2084,-5.2084,-5.2084,-5.2084,0.0,-5.2084,-5.2084,-5.2084,-5.2084,-5.2084,-5.2102,-5.2264,-5.2198,-5.215,-5.2264,-5.2311,-5.2311,-5.2311,-5.2405,-5.2498,-5.2498,-5.2452,-5.2387,-5.215,-5.2198,-5.2264,-5.2264,-5.2198,-5.2084,-5.1907,-5.2048,-5.2108,-5.1772,-5.1951,-5.206,-5.179,-5.0441,-4.9317,-4.9317,-4.805,-4.6998,-4.6998,-4.6998,-4.6998,-4.6998,-4.6998,-4.6998,-4.6998,-4.6998,-4.6998,-4.6998,-4.6998,-4.6998,-4.6998,-4.6998,-4.6998,-4.6998,-4.698,-4.698,-4.698,-4.6934,-4.6934,-4.6934,-4.6934,-4.6842,-4.659,-4.6332,-4.6186,-4.6186,-4.6186,-4.6137,-3.7111,0.0,-3.7671,-3.7865,-3.8407,0.0,0.0,0.0,0.0,0.0,0.0,0.0,0.0,0.0,-4.0577,-4.0625,-4.1995,0.0,0.0,0.0,0.0,0.0,0.0,0.0,0.0,-4.9351,-5.006,-5.0952,-5.1597,-5.1907,-5.179,-5.179,-5.179,-5.179,-5.179,-5.184,-5.1956,-5.1858,-5.179,-5.179,-5.179,-5.179,-5.179,-5.179,-5.179,-5.179,-5.179,-5.179,-5.179,-5.179,-5.1889,-5.2084,-5.215,-5.2246,-5.2387,-5.2452,-5.2452,-5.2452,-5.2452,-5.2452,-5.2452,-5.2246,-5.2102,-5.2005,-5.1956,-5.2054,-5.2102,-5.1889,-5.2,-5.2126,-5.184,-5.2,-5.2108,-5.1772,-5.1772,-5.1772,-5.174,-5.0441,-4.9317,-4.9317,-4.805,-4.6998,-4.6998,-4.6998,-4.6998,-4.6998,-4.6998,-4.6998,-4.6998,-4.6998,-4.6998,-4.6998,-4.6998,-4.6998,-4.6998,-4.6998,-4.6998,-4.6998,-4.6795,-4.6684,-4.6684,-4.6495,-4.6381,-4.6381,-4.6381,-4.635,-4.6284,-4.6235,-4.6087,-4.5887,-4.5887,-4.5786,-3.6399,-3.6563,-3.6908,-3.7067,-3.7721,-3.8521,0.0,0.0,0.0,0.0,0.0,0.0,0.0,0.0,0.0,0.0,0.0,0.0,0.0,0.0,0.0,0.0,0.0,0.0,0.0,-4.9041,-4.9829,-5.0539,-5.1343,-5.1808,-5.169,-5.169,-5.169,-5.169,-5.169,-5.174,-5.1808,-5.1758,-5.169,-5.169,-5.169,-5.169,-5.169,-5.169,-5.169,-5.169,-5.169,-5.169,-5.169,-5.169,-5.179,-5.1938,-5.2005,-5.2054,-5.215,-5.2198,-5.2198,-5.2198,-5.2198,-5.2246,-5.2293,-5.215,-5.2054,-5.1956,-5.1907,-5.1956,-5.1956,-5.184,-5.192,-5.2,-5.179,-5.1804,-5.1951,-5.174,-5.169,-5.169,-5.169,-5.0441,-4.9317,-4.9317,-4.805,-4.6998,-4.6998,-4.6998,-4.6998,-4.6998,-4.6998,-4.6998,-4.6998,-4.6998,-4.6998,-4.6998,-4.6888,-4.6842,-4.6842,-4.6684,-4.6684,-4.6795,-4.659,-4.6447,-4.6447,-4.6284,-4.6186,-4.6186,-4.6087,-4.6038,-4.6038,-4.5887,-4.5752,-4.5598,-4.5598,-4.5563,-3.5994,-3.6062,-3.6316,-3.6291,-3.7254,-3.817,0.0,0.0,0.0,0.0,0.0,0.0,0.0,0.0,0.0,0.0,0.0,0.0,0.0,0.0,0.0,0.0,0.0,0.0,-4.7925,-4.8693,-4.9478,-5.0263,-5.1066,-5.1565,-5.169,-5.169,-5.169,-5.169,-5.169,-5.169,-5.169,-5.169,-5.169,-5.169,-5.169,-5.169,-5.169,-5.169,-5.169,-5.169,-5.169,0.0,-5.169,-5.169,-5.169,-5.174,-5.1858,-5.1858,-5.179,-5.1907,-5.1907,-5.1907,-5.1907,-5.2005,-5.2054,-5.2054,-5.2054,-5.2005,-5.1907,-5.1858,-5.1858,-5.1858,-5.1858,-5.1858,-5.174,-5.169,-5.169,-5.169,-5.169,-5.169,-5.169,-5.0441,-4.9317,-4.9317,-4.805,-4.6998,-4.6998,-4.6998,-4.6998,-4.6998,-4.6998,-4.6998,-4.6934,-4.6934,-4.6934,-4.6888,-4.6684,-4.6542,-4.6542,-4.6284,-4.6235,-4.6477,-4.6284,-4.6137,-4.6087,-4.6087,-4.6087,-4.6087,-4.5837,-4.5735,-4.5735,-4.5511,-4.5423,-4.5423,-4.5423,-4.5423,-3.6643,-3.6741,-3.6603,-3.5907,-3.6689,-3.7704,0.0,0.0,0.0,0.0,0.0,0.0,0.0,0.0,0.0,0.0,0.0,0.0,0.0,0.0,0.0,0.0,0.0,-4.7033,-4.7158,-4.789,-4.8675,-4.9442,-5.0245,-5.0976,-5.1654,-5.169,-5.169,-5.169,-5.169,-5.169,-5.169,-5.169,-5.169,-5.169,-5.169,-5.169,-5.169,-5.169,-5.169,-5.169,0.0,-5.169,-5.169,-5.169,-5.1758,-5.1858,-5.1907,-5.1956,-5.2036,-5.2054,-5.2054,-5.2054,-5.2054,-5.2005,-5.1907,-5.1907,-5.1858,-5.174,-5.174,-5.174,-5.174,-5.174,-5.174,-5.1758,-5.169,-5.169,-5.169,-5.169,-5.169,-5.169,-5.169,-5.0441,-4.9317,-4.9317,-4.805,-4.6998,-4.6998,-4.6998,-4.6998,-4.6998,-4.6998,-4.6934,-4.6684,-4.6637,-4.659,-4.635,-4.6284,-4.6235,-4.6235,-4.6038,-4.5887,-4.5938,-4.5887,-4.5752,-4.5511,-4.5511,-4.5511,-4.5511,-4.5459,-4.5459,-4.5459,-4.5423,-4.5423,-4.5423,-4.5423,-4.5423,-3.6522,-3.69,-3.7111,-3.6457,-3.6923,0.0,0.0,0.0,0.0,0.0,0.0,0.0,0.0,0.0,0.0,0.0,0.0,0.0,0.0,0.0,0.0,0.0,0.0,-4.6998,-4.6998,-4.7711,-4.8318,-4.8675,-4.9424,-5.0209,-5.1012,-5.1048,-5.1244,-5.1672,-5.169,-5.169,-5.169,-5.169,-5.169,-5.169,-5.169,-5.169,-5.169,-5.169,-5.169,-5.169,0.0,-5.169,-5.169,-5.169,-5.1758,-5.1808,-5.1808,-5.184,-5.1889,-5.1889,-5.1889,-5.1889,-5.1889,-5.184,-5.1808,-5.1808,-5.174,-5.169,-5.169,-5.169,-5.169,-5.169,-5.169,-5.169,-5.169,-5.169,-5.169,-5.169,-5.169,-5.169,-5.169,-5.0441,-4.9317,-4.9317,-4.805,-4.6998,-4.6998,-4.6888,-4.6778,-4.6778,-4.6637,-4.6525,-4.6381,-4.6381,-4.6332,-4.6235,-4.6087,-4.5988,-4.5988,-4.5752,-4.5598,-4.5598,-4.5598,-4.5511,-4.5423,-4.5423,-4.5423,-4.5423,-4.5423,-4.5423,-4.5423,-4.5423,-4.5423,-4.5423,-4.5423,-4.5423,-3.6603,-3.7073,-3.7503,-3.715,0.0,0.0,0.0,0.0,0.0,0.0,0.0,0.0,0.0,0.0,0.0,0.0,0.0,0.0,0.0,0.0,0.0,-4.6998,-4.6998,-4.6998,-4.6998,-4.7551,-4.7979,-4.8204,-4.871,-4.9406,-5.0191,-5.0227,-5.0602,-5.1387,-5.1422,-5.1512,-5.169,-5.169,-5.169,-5.169,-5.169,-5.169,-5.169,-5.169,-5.169,-5.169,-5.169,-5.169,-5.169,-5.169,-5.169,-5.169,-5.169,-5.169,-5.169,-5.169,-5.169,-5.169,-5.169,-5.169,-5.169,-5.169,-5.169,-5.169,-5.169,-5.169,-5.169,-5.169,-5.169,-5.169,-5.169,-5.169,-5.169,-5.169,-5.169,-5.169,-5.169,-5.0441,-4.9317,-4.9317,-4.805,-4.698,-4.6934,-4.6749,-4.659,-4.6542,-4.6332,-4.6186,-4.6137,-4.6087,-4.6087,-4.6038,-4.5854,-4.5701,-4.5701,-4.5511,-4.5423,-4.5423,-4.5423,-4.5423,-4.5423,-4.5423,-4.5423,-4.5423,-4.5423,-4.5423,-4.5423,-4.5423,-4.5423,-4.5423,-4.5423,-4.5423,-3.7374,-3.754,-3.7577,-3.754,0.0,0.0,0.0,0.0,0.0,0.0,0.0,0.0,0.0,0.0,0.0,0.0,0.0,0.0,0.0,0.0,-4.6998,-4.6998,-4.6998,-4.6998,-4.6998,-4.7033,-4.739,-4.8122,-4.8229,-4.8586,-4.9371,-4.9406,-4.9781,-5.0566,-5.0602,-5.0941,-5.169,-5.169,-5.169,-5.169,-5.169,-5.169,-5.169,-5.169,-5.169,-5.169,-5.169,-5.169,-5.169,-5.169,-5.169,-5.169,-5.169,-5.169,-5.169,-5.169,-5.169,-5.169,-5.169,-5.169,-5.169,-5.169,-5.169,-5.169,-5.169,-5.169,-5.169,-5.169,-5.169,-5.169,-5.169,-5.169,-5.169,-5.169,-5.169,-5.169,-5.169,-5.0441,-4.9317,-4.9317,-4.805,-4.6934,-4.6684,-4.6637,-4.6542,-4.6284,-4.6186,-4.6087,-4.5837,-4.5837,-4.5752,-4.5459,-4.5423,-4.5423,-4.5423,-4.5423,-4.5423,-4.5423,-4.5423,-4.5423,-4.5423,-4.5423,-4.5423,-4.5423,-4.5423,-4.5423,-4.5423,-4.5423,-4.5423,-4.5423,-4.5423,-4.5423,-3.754,-3.7577,-3.7577,-3.7577,0.0,0.0,0.0,0.0,0.0,0.0,0.0,0.0,0.0,0.0,0.0,0.0,0.0,0.0,0.0,-4.6998,-4.6998,-4.6998,-4.6998,-4.6998,-4.6998,-4.6998,-4.7122,-4.7408,-4.7444,-4.7783,-4.8568,-4.8621,-4.896,-4.9745,-4.9763,-5.0156,-5.0959,-5.0959,-5.1191,-5.169,-5.169,-5.169,-5.169,-5.169,-5.169,-5.169,-5.169,-5.169,-5.169,-5.169,-5.169,-5.169,-5.169,-5.169,-5.169,-5.169,-5.169,-5.169,-5.169,-5.169,-5.169,-5.169,-5.169,-5.169,-5.169,-5.169,-5.169,-5.169,-5.169,-5.169,-5.169,-5.169,-5.169,-5.169,-5.169,-5.169,-5.169,-5.0834,-4.9906,-4.9424,-4.8461,-4.7522,-4.6726,-4.6447,-4.6235,-4.5988,-4.5803,-4.5667,-4.5546,-4.5563,-4.5511,-4.5423,-4.5423,-4.5423,-4.5423,-4.5423,-4.5423,-4.5423,-4.5423,-4.5423,-4.5423,-4.5423,-4.5423,-4.5423,-4.5423,-4.5423,-4.5423,-4.5423,-4.5423,-4.5423,-4.5423,-4.5423,-3.7577,-3.7577,-3.7577,0.0,0.0,0.0,0.0,0.0,0.0,0.0,0.0,0.0,0.0,0.0,0.0,0.0,0.0,0.0,-4.6998,-4.6998,-4.6998,-4.6998,-4.6998,-4.6998,-4.6998,-4.6998,-4.6998,-4.6998,-4.6998,-4.7229,-4.7765,-4.78,-4.8157,-4.8942,-4.896,-4.9335,-5.012,-5.0138,-5.0405,-5.0959,-5.1191,-5.144,-5.169,-5.169,-5.169,-5.169,-5.169,-5.169,-5.169,-5.169,-5.169,-5.169,-5.169,-5.169,-5.169,-5.169,-5.169,-5.169,-5.169,-5.169,-5.169,-5.169,-5.169,-5.169,-5.169,-5.169,-5.169,-5.169,-5.169,-5.169,-5.169,-5.169,-5.169,-5.169,-5.169,-5.169,-5.169,-5.1066,-5.0352,-4.9799,-4.9067,-4.8235,-4.7151,-4.6769,-4.6385,-4.5871,-4.5546,-4.5423,-4.5423,-4.5423,-4.5423,-4.5423,-4.5423,-4.5423,-4.5423,-4.5423,-4.5423,-4.5423,-4.5423,-4.5423,-4.5423,-4.5423,-4.5423,-4.5423,-4.5423,-4.5423,-4.5423,-4.5423,-4.5423,-4.5423,-4.5423,-4.5423,-3.7577,-3.7577,0.0,0.0,0.0,0.0,0.0,0.0,0.0,0.0,0.0,0.0,0.0,0.0,0.0,0.0,0.0,-4.6998,-4.6998,-4.6998,-4.6998,-4.6998,-4.6998,-4.6998,-4.6998,-4.6998,-4.6998,-4.6998,-4.6998,-4.6998,-4.6998,-4.6998,-4.7354,-4.8139,-4.8175,-4.8532,-4.9299,-4.9299,-4.9317,-4.9335,-5.012,-5.0905,-5.169,-5.169,-5.169,-5.169,-5.169,-5.169,-5.169,-5.169,-5.169,-5.169,-5.169,-5.169,-5.169,-5.169,-5.169,-5.169,-5.169,-5.169,-5.169,-5.169,-5.169,-5.169,-5.169,-5.169,-5.169,-5.169,-5.169,-5.169,-5.169,-5.169,-5.169,-5.169,-5.169,-5.169,-5.169,-5.1066,-5.0513,-5.0513,-4.987,-4.8989,-4.8001,-4.7548,-4.7033,-4.5959,-4.5563,-4.5441,-4.5423,-4.5423,-4.5423,-4.5423,-4.5423,-4.5423,-4.5423,-4.5423,-4.5423,-4.5423,-4.5423,-4.5423,-4.5423,-4.5423,-4.5423,-4.5423,-4.5423,-4.5423,-4.5423,-4.5423,-4.5423,-4.5423,-4.5423,-4.5423,-3.7577,0.0,0.0,0.0,0.0,0.0,0.0,0.0,0.0,0.0,0.0,0.0,0.0,0.0,0.0,-4.6998,-4.6998,-4.6998,-4.6998,-4.6998,-4.6998,-4.6998,-4.6998,-4.6998,-4.6998,-4.6998,-4.6998,-4.6998,-4.6998,-4.6998,-4.6998,-4.6998,-4.7105,-4.7337,-4.7354,-4.7711,-4.8514,-4.8514,-4.8782,-4.9317,-4.9549,-5.0084,-5.0887,-5.144,-5.169,-5.169,-5.169,-5.169,-5.169,-5.169,-5.169,-5.169,-5.169,-5.169,-5.169,-5.169,-5.169,-5.169,-5.169,-5.169,-5.169,-5.169,-5.169,-5.169,-5.169,-5.169,-5.169,-5.169,-5.169,-5.169,-5.169,-5.169,-5.169,-5.169,-5.169,-5.169,-5.169,-5.1512,-5.1365,-5.1325,-5.0539,-4.951,-4.8463,-4.8102,-4.7526,-4.6515,-4.6305,-4.6061,-4.5492,-4.5423,-4.5423,-4.5423,-4.5423,-4.5423,-4.5423,-4.5423,-4.5423,-4.5423,-4.5423,-4.5423,-4.5423,-4.5423,-4.5423,-4.5423,-4.5423,-4.5423,-4.5423,-4.5423,-4.5423,-4.5423,-4.5423,-4.5423,-3.7577,0.0,0.0,0.0,0.0,0.0,0.0,0.0,0.0,0.0,0.0,0.0,0.0,0.0,0.0,-4.6998,-4.6998,-4.6998,-4.6998,-4.6998,-4.6998,-4.6998,-4.6998,-4.6998,-4.6998,-4.6998,-4.6998,-4.6998,-4.6998,-4.6998,-4.6998,-4.6998,-4.6998,-4.6998,-4.6998,-4.7212,-4.7711,-4.7711,-4.7943,-4.8389,-4.871,-4.9121,-4.9603,-5.0388,-5.0744,-5.0762,-5.1083,-5.1226,-5.1244,-5.1565,-5.169,-5.169,-5.169,-5.169,-5.169,-5.169,-5.169,-5.169,-5.169,-5.169,-5.169,-5.169,-5.169,-5.169,-5.169,-5.169,-5.169,-5.169,-5.169,-5.169,-5.169,-5.169,-5.169,-5.169,-5.169,-5.169,-5.1538,-5.161,-5.1627,-5.1381,-5.0873,-5.0171,-4.9135,-4.8749,-4.829,-4.7328,-4.6857,-4.6424,-4.5958,-4.563,-4.5423,-4.5423,-4.5423,-4.5423,-4.5423,-4.5423,-4.5423,-4.5423,-4.5423,-4.5423,-4.5423,-4.5423,-4.5423,-4.5423,-4.5423,-4.5423,-4.5423,-4.5423,-4.5423,-4.5423,-4.5423,-4.5423,0.0,0.0,0.0,0.0,0.0,0.0,0.0,0.0,0.0,0.0,0.0,0.0,0.0,0.0,-4.6998,-4.6998,-4.6998,-4.6998,-4.6998,-4.6998,-4.6998,-4.6998,-4.6998,-4.6998,-4.6998,-4.6998,-4.6998,-4.6998,-4.6998,-4.6998,-4.6998,-4.6998,-4.6998,-4.6998,-4.6998,-4.6998,-4.6998,-4.6998,-4.6998,-4.6998,-4.7729,-4.8068,-4.8104,-4.8942,-4.9317,-4.9353,-5.0084,-5.0388,-5.0459,-5.1173,-5.1476,-5.1476,-5.1547,-5.1583,-5.1601,-5.1672,-5.169,-5.169,-5.169,-5.169,-5.169,-5.169,-5.169,-5.169,-5.169,-5.169,-5.169,-5.169,-5.169,-5.169,-5.169,-5.164,-5.164,-5.164,-5.164,-5.1589,-5.135,-5.1458,-5.1458,-5.0909,-5.0926,-5.0785,-4.9924,-4.9569,-4.9072,-4.8307,-4.7346,-4.6682,-4.6613,-4.5975,-4.551,-4.5441,-4.5423,-4.5423,-4.5423,-4.5423,-4.5423,-4.5423,-4.5423,-4.5423,-4.5423,-4.5423,-4.5423,-4.5423,-4.5423,-4.5423,-4.5423,-4.5423,-4.5423,-4.5423,-4.5423,-4.5423,0.0,0.0,0.0,0.0,0.0,0.0,0.0,0.0,0.0,0.0,0.0,0.0,0.0,0.0,-4.6998,-4.6998,-4.6998,-4.6998,-4.6998,-4.6998,-4.6998,-4.6998,-4.6998,-4.6998,-4.6998,-4.6998,-4.6998,-4.6998,-4.6998,-4.6998,-4.6998,-4.6998,-4.6998,-4.6998,-4.6998,-4.6998,-4.6998,-4.6998,-4.6998,-4.6998,-4.7158,-4.7247,-4.7283,-4.8693,-4.9317,-4.9335,-4.9495,-4.9585,-4.9585,-4.9763,-4.9834,-4.9888,-5.0513,-5.0762,-5.0834,-5.1458,-5.169,-5.169,-5.169,-5.169,-5.169,-5.169,-5.169,-5.169,-5.169,-5.169,-5.169,-5.169,-5.169,-5.164,-5.1436,-5.1402,-5.1333,-5.1035,-5.1211,-5.1368,-5.1211,-5.1051,-5.0981,-5.082,-5.0727,-5.0561,-5.0369,-5.0055,-4.9608,-4.8756,-4.7941,-4.7269,-4.6682,-4.6458,-4.6113,-4.5492,-4.5423,-4.5423,-4.5423,-4.5423,-4.5423,-4.5423,-4.5423,-4.5423,-4.5423,-4.5423,-4.5423,-4.5423,-4.5423,-4.5423,-4.5423,-4.5423,-4.5423,-4.5423,-4.5423,-4.5423,0.0,0.0,0.0,0.0,0.0,0.0,0.0,0.0,0.0,0.0,0.0,0.0,0.0,-4.6998,-4.6998,-4.6998,-4.6998,-4.6998,-4.6998,-4.6998,-4.6998,-4.6998,-4.6998,-4.6998,-4.6998,-4.6998,-4.6998,-4.6998,-4.6998,-4.6998,-4.6998,-4.6998,-4.6998,-4.6998,-4.6998,-4.6998,-4.6998,-4.6998,-4.6998,-4.6998,-4.6998,-4.6998,-4.7015,-4.7836,-4.8211,-4.8229,-4.8603,-4.8764,-4.88,-4.9156,-4.9317,-4.9353,-4.9781,-4.9942,-5.0031,-5.0834,-5.1137,-5.1173,-5.1565,-5.169,-5.169,-5.169,-5.169,-5.169,-5.1538,-5.1487,-5.1487,-5.1487,-5.1367,-5.1263,-5.1281,-5.1176,-5.0999,-5.0657,-5.0838,-5.1017,-5.0834,-5.0797,-5.0724,-5.0488,-5.0337,-5.0241,-5.0241,-5.0126,-4.9873,-4.9459,-4.8734,-4.7976,-4.7234,-4.6837,-4.6303,-4.551,-4.5423,-4.5423,-4.5423,-4.5423,-4.5423,-4.5423,-4.5423,-4.5423,-4.5423,-4.5423,-4.5423,-4.5423,-4.5423,-4.5423,-4.5423,-4.5423,-4.5423,-4.5423,-4.5423,-4.5423,0.0,0.0,0.0,0.0,0.0,0.0,0.0,0.0,0.0,0.0,0.0,0.0,-4.6694,-4.6998,-4.6998,-4.6998,-4.6998,-4.6998,-4.6998,-4.6998,-4.6998,-4.6998,-4.6998,-4.6998,-4.6998,-4.6998,-4.6998,-4.6998,-4.6998,-4.6998,-4.6998,-4.6998,-4.6998,-4.6998,-4.6998,-4.6998,-4.6998,-4.6998,-4.6998,-4.6998,-4.6998,-4.6998,-4.6998,-4.6998,-4.6998,-4.7033,-4.7676,-4.7961,-4.8015,-4.8657,-4.8907,-4.8942,-4.9067,-4.9121,-4.9228,-5.0013,-5.0298,-5.0423,-5.1208,-5.1444,-5.1462,-5.1601,-5.1586,-5.1467,-5.1278,-5.1228,-5.1211,-5.1211,-5.1017,-5.0874,-5.1052,-5.0946,-5.0657,-5.0397,-5.0509,-5.0602,-5.0359,-5.0498,-5.0528,-5.0086,-5.0011,-5.0011,-5.0011,-5.0011,-5.0011,-5.0011,-4.9441,-4.8752,-4.801,-4.7269,-4.651,-4.5717,-4.551,-4.5423,-4.5423,-4.5423,-4.5423,-4.5423,-4.5423,-4.5423,-4.5423,-4.5423,-4.5423,-4.5423,-4.5423,-4.5423,-4.5423,-4.5423,-4.5423,-4.5423,-4.5423,-4.5423,0.0,0.0,0.0,0.0,0.0,0.0,0.0,0.0,0.0,0.0,0.0,0.0,-4.6694,-4.6998,-4.6998,-4.6998,-4.6998,-4.6998,-4.6998,-4.6998,-4.6998,-4.6998,-4.6998,-4.6998,-4.6998,-4.6998,-4.6998,-4.6998,-4.6998,-4.6998,-4.6998,-4.6998,-4.6998,-4.6998,-4.6998,-4.6998,-4.6998,-4.6998,-4.6998,-4.6998,-4.6998,-4.6998,-4.6998,-4.6998,-4.6998,-4.6998,-4.7105,-4.7158,-4.7158,-4.7265,-4.7301,-4.7372,-4.805,-4.8336,-4.8425,-4.9192,-4.9478,-4.9585,-5.0388,-5.0524,-5.0462,-5.1144,-5.117,-5.0928,-5.0868,-5.0858,-5.0867,-5.0867,-5.0799,-5.0766,-5.0564,-5.0471,-5.0415,-5.0109,-5.0051,-5.0109,-5.0051,-5.0068,-5.0086,-5.0011,-5.0011,-5.0011,-5.0011,-5.0011,-5.0011,-5.0011,-4.9907,-4.9562,-4.8786,-4.8027,-4.7286,-4.6527,-4.5837,-4.5423,-4.5423,-4.5423,-4.5423,-4.5423,-4.5423,-4.5423,-4.5423,-4.5423,-4.5423,-4.5423,-4.5423,-4.5423,-4.5423,-4.5423,-4.5423,-4.5423,-4.5423,-4.5423,0.0,0.0,0.0,0.0,0.0,0.0,0.0,0.0,0.0,0.0,0.0,-4.4464,-4.6034,-4.6694,-4.6998,-4.6998,-4.6998,-4.6998,-4.6998,-4.6998,-4.6998,-4.6998,-4.6998,-4.6998,-4.6998,-4.6998,-4.6998,-4.6998,-4.6998,-4.6998,-4.6998,-4.6998,-4.6998,-4.6998,-4.6998,-4.6998,-4.6998,-4.6998,-4.6998,-4.6998,-4.6998,-4.6998,-4.698,-4.6842,-4.6842,-4.6998,-4.6998,-4.6998,-4.6998,-4.6998,-4.6998,-4.7033,-4.7372,-4.7515,-4.7604,-4.8389,-4.858,-4.8613,-4.9838,-5.0095,-5.0012,-5.0787,-5.0911,-5.077,-5.0611,-5.0572,-5.0575,-5.0602,-5.0441,-5.0359,-5.0415,-5.0302,-5.0166,-5.0011,-5.0011,-5.0011,-5.0011,-5.0011,-5.0011,-5.0011,-5.0011,-5.0011,-5.0011,-5.0011,-5.0011,-5.0011,-5.0011,-4.9717,-4.8924,-4.8183,-4.7441,-4.6682,-4.5906,-4.5423,-4.5423,-4.5423,-4.5423,-4.5423,-4.5423,-4.5423,-4.5423,-4.5423,-4.5423,-4.5423,-4.5423,-4.5423,-4.5423,-4.5423,-4.5423,-4.5423,-4.5423,-4.5423,0.0,0.0,0.0,0.0,0.0,0.0,0.0,0.0,0.0,0.0,-4.3233,-4.3857,-4.4999,-4.6034,-4.6694,-4.6694,-4.6855,-4.6934,-4.6842,-4.6888,-4.6934,-4.6824,-4.6934,-4.6998,-4.6998,-4.6998,-4.6998,-4.6998,-4.6998,-4.6998,-4.6998,-4.6998,-4.6998,-4.6998,-4.6998,-4.6998,-4.6998,-4.6998,-4.6998,-4.6998,-4.6998,-4.6934,-4.6888,-4.6684,-4.6684,-4.6795,-4.6795,-4.6795,-4.6795,-4.6888,-4.6888,-4.6888,-4.698,-4.6934,-4.6959,-4.7547,-4.7636,-4.759,-4.895,-4.9345,-4.9415,-5.015,-5.0517,-5.0547,-5.0345,-5.0324,-5.0298,-5.0299,-5.0131,-5.0068,-5.0263,-5.0149,-5.0011,-5.0011,-5.0011,-5.0011,-5.0011,-5.0011,-5.0011,-5.0011,-5.0011,-5.0011,-5.0011,-5.0011,-5.0011,-5.0011,-5.0011,-4.9786,-4.92,-4.8303,-4.751,-4.6941,-4.601,-4.5423,-4.5423,-4.5423,-4.5423,-4.5423,-4.5423,-4.5423,-4.5423,-4.5423,-4.5423,-4.5423,-4.5423,-4.5423,-4.5423,-4.5423,-4.5423,-4.5423,-4.5423,-4.5423,0.0,0.0,0.0,0.0,0.0,0.0,0.0,0.0,0.0,0.0,-4.2448,-4.3536,-4.3607,-4.4856,-4.5856,-4.5856,-4.6498,-4.6842,-4.6332,-4.6684,-4.6795,-4.6284,-4.6684,-4.6998,-4.6998,-4.6998,-4.6998,-4.6998,-4.6998,-4.6998,-4.6998,-4.6998,-4.6998,-4.6998,-4.6998,-4.6998,-4.6998,-4.6998,-4.6998,-4.6998,-4.6998,-4.6888,-4.6637,-4.659,-4.6495,-4.6235,-4.6235,-4.6235,-4.6235,-4.6542,-4.6637,-4.6637,-4.6888,-4.6842,-4.6637,-4.669,-4.65,-4.6411,-4.7272,-4.784,-4.8344,-4.9142,-4.9686,-5.0051,-5.0051,-4.9993,-5.0011,-5.0011,-5.0011,-4.9993,-5.0011,-5.0011,-5.0011,-5.0011,-5.0011,-5.0011,-5.0011,-5.0011,-5.0011,-5.0011,-5.0011,-5.0011,-5.0011,-5.0011,-5.0011,-5.0011,-5.0011,-4.9993,-4.9942,-4.8631,-4.77,-4.7665,-4.632,-4.5423,-4.5423,-4.5423,-4.5423,-4.5423,-4.5423,-4.5423,-4.5423,-4.5423,-4.5423,-4.5423,-4.5423,-4.5423,-4.5423,-4.5423,-4.5423,-4.5423,-4.5423,-4.5423,0.0,0.0,0.0,0.0,0.0,0.0,0.0,0.0,0.0,0.0,-4.1556,-4.2126,-4.2626,-4.4,-4.5035,-4.5035,-4.5713,-4.6031,-4.5497,-4.6015,-4.6266,-4.5683,-4.6119,-4.6495,-4.6495,-4.6495,-4.6495,-4.6495,-4.6495,-4.6495,-4.6495,-4.6824,-4.6998,-4.6998,-4.6998,-4.6998,-4.6998,-4.6998,-4.6888,-4.6731,-4.6731,-4.659,-4.6332,-4.6186,-4.6038,-4.5938,-4.5752,-4.5905,-4.6186,-4.6284,-4.6332,-4.6332,-4.6447,-4.6429,-4.6332,-4.6332,-4.6186,-4.606,-4.6845,-4.7438,-4.7948,-4.8726,-4.9447,-5.0011,-5.0011,-5.0011,-5.0011,-5.0011,-5.0011,-5.0011,-5.0011,-5.0011,-5.0011,-5.0011,-5.0011,-5.0011,-5.0011,-5.0011,-5.0011,-5.0011,-5.0011,-5.0011,-5.0011,-5.0011,-5.0011,-5.0011,-5.0011,-4.9821,-4.9321,-4.8355,-4.7527,-4.7044,-4.6061,-4.5423,-4.5423,-4.5423,-4.5423,-4.5423,-4.5423,-4.5423,-4.5423,-4.5423,-4.5423,-4.5423,-4.5423,-4.5423,-4.5423,-4.5423,-4.5423,-4.5423,-4.5423,-4.5423,0.0,0.0,0.0,0.0,0.0,0.0,0.0,0.0,0.0,0.0,-4.0521,-4.0949,-4.1752,-4.2733,-4.3607,-4.4161,-4.4743,-4.4968,-4.4415,-4.503,-4.53,-4.473,-4.5373,-4.592,-4.592,-4.592,-4.592,-4.592,-4.592,0.0,-4.6186,-4.6542,-4.6824,-4.698,-4.6998,-4.6998,-4.6998,-4.6888,-4.6795,-4.659,-4.6495,-4.6332,-4.6038,-4.5887,-4.5735,-4.5649,-4.5476,-4.5615,-4.5955,-4.6038,-4.6087,-4.6087,-4.6186,-4.6137,-4.6087,-4.6087,-4.5887,-4.5719,-4.6257,-4.6844,-4.7458,-4.8217,-4.8976,-4.9666,-4.9924,-5.0011,-5.0011,-5.0011,-5.0011,-5.0011,-5.0011,-5.0011,-5.0011,-5.0011,-5.0011,-5.0011,-5.0011,-5.0011,-5.0011,-5.0011,-5.0011,-5.0011,-5.0011,-5.0011,-5.0011,-5.0011,-5.0011,-4.9717,-4.8924,-4.8183,-4.7441,-4.6682,-4.5906,-4.5423,-4.5423,-4.5423,-4.5423,-4.5423,-4.5423,-4.5423,-4.5423,-4.5423,-4.5423,-4.5423,-4.5423,-4.5423,-4.5423,-4.5423,-4.5423,-4.5423,-4.5423,-4.5423,0.0,0.0,0.0,0.0,0.0,0.0,0.0,0.0,0.0,-3.8752,-3.9379,-4.0128,-4.0913,-4.1056,-4.1591,-4.3179,-4.366,-4.3658,-4.3042,-4.3647,-4.3924,-4.3389,-4.4434,-4.5198,-4.5216,-4.5216,-4.5233,-4.525,-4.525,-4.5528,-4.6137,-4.6186,-4.6447,-4.698,-4.6998,-4.6998,-4.6998,-4.6731,-4.659,-4.659,-4.6332,-4.6038,-4.5786,-4.5786,-4.5649,-4.5423,-4.5423,-4.5423,-4.5423,-4.5701,-4.5786,-4.5837,-4.6087,-4.6038,-4.5786,-4.5786,-4.5598,-4.5423,-4.5423,-4.5941,-4.6734,-4.7476,-4.8217,-4.8976,-4.9769,-5.0011,-5.0011,-5.0011,-5.0011,-5.0011,-5.0011,-5.0011,-5.0011,-5.0011,-5.0011,-5.0011,-5.0011,-5.0011,-5.0011,-5.0011,-5.0011,-5.0011,-5.0011,-5.0011,-5.0011,-5.0011,-4.9993,-4.9683,-4.889,-4.8131,-4.7389,-4.6648,-4.5889,-4.5423,-4.5423,-4.5423,-4.5423,-4.5423,-4.5423,-4.5423,-4.5423,-4.5423,-4.5423,-4.5423,-4.5423,-4.5423,-4.5423,-4.5423,-4.5423,-4.5423,-4.5423,-4.5423,-3.6301,0.0,0.0,0.0,0.0,0.0,0.0,0.0,0.0,-3.8645,-3.8968,-3.9343,-4.011,-4.0235,-4.0574,-4.1609,-4.2475,-4.2824,-4.2299,-4.2535,-4.2594,-4.2028,-4.2635,-4.3333,-4.3878,-4.3946,-4.4167,0.0,-4.4708,-4.4964,-4.5528,-4.6315,-4.6842,-4.6998,-4.6998,-4.6888,-4.6731,-4.6637,-4.6398,-4.6038,-4.5938,-4.5752,-4.5511,-4.5511,-4.5459,-4.5423,-4.5423,-4.5423,-4.5423,-4.5459,-4.5511,-4.5511,-4.5615,-4.5563,-4.5511,-4.5511,-4.5459,-4.5423,-4.5423,-4.5941,-4.6734,-4.7476,-4.8217,-4.8976,-4.9769,-5.0011,-5.0011,-5.0011,-5.0011,-5.0011,-5.0011,-5.0011,-5.0011,-5.0011,-5.0011,-5.0011,-5.0011,-5.0011,-5.0011,-5.0011,-5.0011,-5.0011,-5.0011,-5.0011,-5.0011,-5.0011,-4.951,-4.8872,-4.8114,-4.7372,-4.6613,-4.5837,-4.5561,-4.5423,-4.5423,-4.5423,-4.5423,-4.5423,-4.5423,-4.5423,-4.5423,-4.5423,-4.5423,-4.5423,-4.5423,-4.5423,-4.5423,-4.5423,-4.5423,-4.5423,-4.5423,-4.5423,0.0,0.0,0.0,0.0,0.0,0.0,-3.7009,-3.7182,-3.74,0.0,-3.829,-3.854,-3.9307,-3.926,-3.9469,-4.0428,-4.1067,-4.147,-4.1423,-4.1665,-4.1584,-4.1034,-4.1543,-4.2097,-4.2551,-4.2601,-4.2847,-4.3602,-4.3652,-4.4147,-4.5233,-4.6151,-4.6795,-4.698,-4.6998,-4.6888,-4.659,-4.6495,-4.6235,-4.5786,-4.5701,-4.5563,-4.5423,-4.5423,-4.5423,-4.5423,-4.5423,-4.5423,-4.5423,-4.5423,-4.5423,-4.5423,-4.5423,-4.5423,-4.5423,-4.5423,-4.5423,-4.5423,-4.5423,-4.5734,-4.6251,-4.701,-4.7751,-4.851,-4.9269,-4.9735,-5.0011,-5.0011,-5.0011,-5.0011,-5.0011,-5.0011,-5.0011,-5.0011,-5.0011,-5.0011,-5.0011,-5.0011,-5.0011,-5.0011,-5.0011,-5.0011,-5.0011,-4.9735,-4.951,-4.951,-4.8855,-4.8079,-4.7355,-4.6889,-4.6303,-4.551,-4.5423,-4.5423,-4.5423,-4.5423,-4.5423,-4.5423,-4.5423,-4.5423,-4.5423,-4.5423,-4.5423,-4.5423,-4.5423,-4.5423,-4.5423,-4.5423,-4.5423,-4.5423,-4.5423,-4.5423,0.0,0.0,0.0,0.0,0.0,0.0,-3.6869,-3.693,-3.7009,-3.7429,-3.7503,-3.768,-3.8465,-3.817,-3.8239,-3.9434,-3.9528,-3.9698,-4.056,-4.083,-4.0809,-4.0358,-4.0796,-4.121,-4.1293,-4.1293,-4.1607,-4.2336,-4.2526,-4.3412,-4.5216,-4.5852,-4.6429,-4.6888,-4.6934,-4.6795,-4.6495,-4.6235,-4.6038,-4.5735,-4.5511,-4.5423,-4.5423,-4.5423,-4.5423,-4.5423,-4.5423,-4.5423,-4.5423,-4.5423,-4.5423,-4.5423,-4.5423,-4.5423,-4.5423,-4.5423,-4.5423,-4.5423,-4.5423,-4.5423,-4.5561,-4.6355,-4.7044,-4.7751,-4.8562,-4.9321,-4.989,-4.9976,-5.0011,-5.0011,-5.0011,-5.0011,-5.0011,-5.0011,-5.0011,-5.0011,-5.0011,-4.9942,-4.9873,-4.9873,-4.9873,-4.9873,-4.9873,-4.9217,-4.87,-4.87,-4.8062,-4.7355,-4.67,-4.6527,-4.6199,-4.551,-4.5423,-4.5423,-4.5423,-4.5423,-4.5423,-4.5423,-4.5423,-4.5423,-4.5423,-4.5423,-4.5423,-4.5423,-4.5423,-4.5423,-4.5423,-4.5423,-4.5423,-4.5423,-4.5423,-4.5423,0.0,0.0,0.0,0.0,0.0,0.0,-3.6643,-3.6527,-3.6451,0.0,-3.6856,-3.6771,-3.7259,-3.6783,-3.6715,-3.7875,-3.7845,-3.8178,-3.9635,-4.0046,-4.0035,-3.9594,-3.9603,-3.9918,-4.0531,-4.058,-4.0878,-4.1574,-4.2607,-4.3837,-4.5216,-4.5852,-4.6235,-4.6332,-4.659,-4.6332,-4.5632,-4.5786,-4.5735,-4.5476,-4.5423,-4.5423,-4.5423,-4.5423,-4.5423,-4.5423,-4.5423,-4.5423,-4.5423,-4.5423,-4.5423,-4.5423,-4.5423,-4.5423,-4.5423,-4.5423,-4.5423,-4.5423,-4.5423,-4.5423,-4.5561,-4.6355,-4.67,-4.7079,-4.8424,-4.8924,-4.9183,-4.9821,-5.0011,-5.0011,-5.0011,-5.0011,-5.0011,-5.0011,-5.0011,-5.0011,-5.0011,-4.951,-4.9045,-4.9045,-4.9045,-4.9045,-4.9045,-4.8424,-4.7924,-4.7924,-4.7303,-4.6769,-4.6631,-4.6044,-4.5596,-4.5441,-4.5423,-4.5423,-4.5423,-4.5423,-4.5423,-4.5423,-4.5423,-4.5423,-4.5423,-4.5423,-4.5423,-4.5423,-4.5423,-4.5423,-4.5423,-4.5423,-4.5423,-4.5423,-4.5423,-4.5423,0.0,0.0,0.0,-3.6301,0.0,0.0,0.0,-3.6544,-3.6485,-3.6673,-3.6516,-3.6433,-3.6433,-3.595,-3.579,-3.662,-3.6823,-3.7155,-3.7857,-3.8509,-3.8857,-3.8745,-3.8742,-3.9023,-3.9752,-3.9835,-4.0117,-4.0717,-4.171,-4.2858,-4.417,-4.4803,-4.5249,-4.5631,-4.6052,-4.5953,-4.5249,-4.539,-4.5424,-4.5423,-4.5423,-4.5423,-4.5423,-4.5423,-4.5423,-4.5423,-4.5423,-4.5423,-4.5423,-4.5423,-4.5423,-4.5423,-4.5423,-4.5423,-4.5423,-4.5423,-4.5423,-4.5423,-4.5423,-4.5423,-4.5492,-4.5889,-4.6286,-4.6751,-4.7493,-4.8247,-4.8856,-4.9309,-4.9711,-5.0011,-5.0011,-4.9717,-4.9407,-4.9407,-4.9131,-4.8855,-4.8855,-4.8545,-4.8269,-4.8269,-4.7976,-4.7838,-4.8217,-4.7648,-4.7165,-4.7165,-4.651,-4.601,-4.601,-4.5665,-4.5423,-4.5423,-4.5423,-4.5423,-4.5423,-4.5423,-4.5423,-4.5423,-4.5423,-4.5423,-4.5423,-4.5423,-4.5423,-4.5423,-4.5423,-4.5423,-4.5423,-4.5423,-4.5423,-4.5423,-4.5423,-4.5423,0.0,0.0,0.0,0.0,0.0,-3.6259,0.0,0.0,0.0,-3.6308,-3.6291,0.0,0.0,0.0,0.0,0.0,0.0,0.0,0.0,-3.6544,0.0,-3.7829,-3.7945,-3.8278,-3.9007,-3.9189,-3.9516,-4.0061,-4.0654,-4.1564,-4.2863,-4.352,-4.4092,-4.4653,-4.5321,-4.5459,-4.4947,-4.5018,-4.5142,-4.5423,-4.5423,-4.5423,-4.5423,-4.5423,-4.5423,-4.5423,-4.5423,-4.5423,-4.5423,-4.5423,-4.5423,-4.5423,-4.5423,-4.5423,-4.5423,-4.5423,-4.5423,-4.5423,-4.5423,-4.5423,-4.5423,-4.5423,-4.5958,-4.6613,-4.6613,-4.752,-4.8615,-4.8575,-4.9051,-4.9545,-4.9562,-4.9097,-4.8614,-4.8614,-4.8148,-4.7717,-4.7717,-4.7596,-4.751,-4.751,-4.6889,-4.6613,-4.7372,-4.6889,-4.6372,-4.6372,-4.5837,-4.5423,-4.5423,-4.5423,-4.5423,-4.5423,-4.5423,-4.5423,-4.5423,-4.5423,-4.5423,-4.5423,-4.5423,-4.5423,-4.5423,-4.5423,-4.5423,-4.5423,-4.5423,-4.5423,-4.5423,-4.5423,-4.5423,-4.5423,-4.5423,-4.5423,0.0,0.0,0.0,0.0,-3.6088,0.0,0.0,0.0,-3.5915,-3.5854,0.0,0.0,0.0,0.0,0.0,0.0,0.0,0.0,-3.3631,-3.4316,-3.5399,-3.6694,-3.7081,-3.7465,-3.8104,-3.8854,-3.9516,-4.0061,-4.0193,-4.0746,-4.1909,-4.2816,-4.3259,-4.316,-4.4262,-4.4708,-4.4406,-4.4597,-4.4944,-4.5423,-4.5423,-4.5423,-4.5423,-4.5423,-4.5423,-4.5423,-4.5423,-4.5423,-4.5423,-4.5423,-4.5423,-4.5423,-4.5423,-4.5423,-4.5423,-4.5423,-4.5423,-4.5423,-4.5423,-4.5423,-4.5423,-4.5423,-4.5958,-4.6613,-4.6613,-4.7185,-4.779,-4.7838,-4.791,-4.7966,-4.7941,-4.7907,-4.7838,-4.7838,-4.7769,-4.7717,-4.7717,-4.72,-4.6734,-4.6734,-4.6096,-4.582,-4.6596,-4.6079,-4.5561,-4.5561,-4.5492,-4.5423,-4.5423,-4.5423,-4.5423,-4.5423,-4.5423,-4.5423,-4.5423,-4.5423,-4.5423,-4.5423,-4.5423,-4.5423,-4.5423,-4.5423,-4.5423,-4.5423,-4.5423,-4.5423,-4.5423,-4.5423,-4.5423,-4.5423,-4.5423,-4.5423,0.0,0.0,0.0,0.0,0.0,0.0,-3.6502,0.0,-3.6028,0.0,0.0,0.0,0.0,0.0,0.0,0.0,-3.4105,0.0,0.0,0.0,-3.489,0.0,0.0,0.0,-3.7887,-3.8319,-3.878,-3.9325,-3.928,-3.9631,-4.0529,-4.1271,-4.1822,-4.2261,-4.3096,-4.3765,-4.4105,-4.4259,-4.4669,-4.5423,-4.5423,-4.5423,-4.5423,-4.5423,-4.5423,-4.5423,-4.5423,-4.5423,-4.5423,-4.5423,-4.5423,-4.5423,-4.5423,-4.5423,-4.5423,-4.5423,-4.5423,-4.5423,-4.5423,-4.5423,-4.5423,-4.5423,-4.5648,-4.5924,-4.5924,-4.6424,-4.7047,-4.7049,-4.7378,-4.7703,-4.7686,-4.7392,-4.7079,-4.7079,-4.6717,-4.6389,-4.6389,-4.6148,-4.5924,-4.5924,-4.5648,-4.5527,-4.5872,-4.5648,-4.5423,-4.5423,-4.5423,-4.5423,-4.5423,-4.5423,-4.5423,-4.5423,-4.5423,-4.5423,-4.5423,-4.5423,-4.5423,-4.5423,-4.5423,-4.5423,-4.5423,-4.5423,-4.5423,-4.5423,-4.5423,-4.5423,-4.5423,-4.5423,-4.5423,-4.5423,-4.5423,-4.5423,-3.8894,0.0,0.0,0.0,0.0,0.0,0.0,0.0,0.0,0.0,0.0,0.0,0.0,0.0,0.0,0.0,0.0,-3.4136,0.0,-3.4137,0.0,0.0,0.0,0.0,0.0,-3.7521,-3.788,-3.839,-3.8345,-3.8616,-3.9292,-3.9929,-4.0661,-4.1422,-4.2253,-4.3089,-4.3956,-4.4145,-4.4614,-4.5423,-4.5423,-4.5423,-4.5423,-4.5423,-4.5423,-4.5423,-4.5423,-4.5423,-4.5423,-4.5423,-4.5423,-4.5423,-4.5423,-4.5423,-4.5423,-4.5423,-4.5423,-4.5423,-4.5423,-4.5423,-4.5423,-4.5423,-4.5423,-4.5423,-4.5423,-4.582,-4.6251,-4.6237,-4.6633,-4.7079,-4.7101,-4.6685,-4.6286,-4.6286,-4.5837,-4.5423,-4.5423,-4.5423,-4.5423,-4.5423,-4.5423,-4.5423,-4.5423,-4.5423,-4.5423,-4.5423,-4.5423,-4.5423,-4.5423,-4.5423,-4.5423,-4.5423,-4.5423,-4.5423,-4.5423,-4.5423,-4.5423,-4.5423,-4.5423,-4.5423,-4.5423,-4.5423,-4.5423,-4.5423,-4.5423,-4.5423,-4.5423,-4.5423,-4.5423,-4.5423,-4.5423,-4.5423,0.0,0.0,0.0,-3.8087,0.0,0.0,0.0,0.0,-3.6216,0.0,0.0,0.0,0.0,0.0,0.0,0.0,0.0,0.0,0.0,0.0,0.0,0.0,0.0,0.0,0.0,-3.6299,-3.695,0.0,-3.7525,-3.7796,-3.8391,-3.9243,-4.0,-4.0496,-4.1831,-4.2991,-4.3956,-4.4429,-4.4944,-4.5423,-4.5423,-4.5423,-4.5423,-4.5423,-4.5423,-4.5423,-4.5423,-4.5423,-4.5423,-4.5423,-4.5423,-4.5423,-4.5423,-4.5423,-4.5423,-4.5423,-4.5423,-4.5423,-4.5423,-4.5423,-4.5423,-4.5423,-4.5423,-4.5423,-4.5423,-4.5441,-4.5458,-4.5458,-4.5475,-4.5492,-4.5492,-4.5475,-4.5458,-4.5458,-4.5441,-4.5423,-4.5423,-4.5423,-4.5423,-4.5423,-4.5423,-4.5423,-4.5423,-4.5423,-4.5423,-4.5423,-4.5423,-4.5423,-4.5423,-4.5423,-4.5423,-4.5423,-4.5423,-4.5423,-4.5423,-4.5423,-4.5423,-4.5423,-4.5423,-4.5423,-4.5423,-4.5423,-4.5423,-4.5423,-4.5423,-4.5423,-4.5423,-4.5423,-4.5423,-4.5423,-4.5423,-4.5423,0.0,0.0,-4.0759,-3.9759,0.0,0.0,0.0,0.0,0.0,0.0,0.0,0.0,0.0,0.0,0.0,0.0,0.0,0.0,0.0,0.0,0.0,0.0,0.0,0.0,0.0,0.0,0.0,0.0,-3.74,-3.7686,-3.8359,-3.8675,-3.93,-4.023,-4.1165,-4.2178,-4.3253,-4.4231,-4.4763,-4.4944,-4.5247,-4.5423,-4.5423,-4.5423,-4.5423,-4.5423,-4.5423,-4.5423,-4.5423,-4.5423,-4.5423,-4.5423,-4.5423,-4.5423,-4.5423,-4.5423,-4.5423,-4.5423,-4.5423,-4.5423,-4.5423,-4.5423,-4.5423,-4.5423,-4.5423,-4.5423,-4.5423,-4.5423,-4.5423,-4.5423,-4.5423,-4.5423,-4.5423,-4.5423,-4.5423,-4.5423,-4.5423,-4.5423,-4.5423,-4.5423,-4.5423,-4.5423,-4.5423,-4.5423,-4.5423,-4.5423,-4.5423,-4.5423,-4.5423,-4.5423,-4.5423,-4.5423,-4.5423,-4.5423,-4.5423,-4.5423,-4.5423,-4.5423,-4.5423,-4.5423,-4.5423,-4.5423,-4.5423,-4.5423,-4.5423,-4.5423,-4.5423,-4.5423,-4.5423,-4.5388,-4.5958,-4.6199,-4.2732,-4.2428,0.0,-4.1107,-4.0384,0.0,-3.8753,0.0,-3.7253,0.0,0.0,0.0,0.0,0.0,0.0,0.0,0.0,0.0,0.0,-3.4101,0.0,0.0,0.0,0.0,0.0,0.0,-3.5438,-3.6592,-3.6843,-3.7274,-3.7987,-3.8262,-3.8845,-3.9829,-4.0915,-4.191,-4.2942,-4.4296,-4.4944,-4.4944,-4.5247,-4.5423,-4.5423,-4.5423,-4.5423,-4.5423,-4.5423,-4.5423,-4.5423,-4.5423,-4.5423,-4.5423,-4.5423,-4.5423,-4.5423,-4.5423,-4.5423,-4.5423,-4.5423,-4.5423,-4.5423,-4.5423,-4.5423,-4.5423,-4.5423,-4.5423,-4.5544,-4.6079,-4.5837,-4.5561,-4.6096,-4.5837,-4.5423,-4.5423,-4.5423,-4.5423,-4.5423,-4.5423,-4.5423,-4.5423,-4.5423,-4.5423,-4.5423,-4.5423,-4.5423,-4.5423,-4.5423,-4.5423,-4.5423,-4.5423,-4.5423,-4.5423,-4.5423,-4.5423,-4.5423,-4.5423,-4.5423,-4.5423,-4.5423,-4.5423,-4.5423,-4.5423,-4.5423,-4.5423,-4.5423,-4.5423,-4.5423,-4.5717,-4.5855,-4.5872,-4.6648,-4.7148]}]]